<?xml version="1.0" encoding="UTF-8" standalone="yes"?>
<gpx
 xmlns="http://www.topografix.com/GPX/1/1"
 creator="OziExplorer Version 3956f - http://www.oziexplorer.com"
 version="1.1"
 xmlns:xsi="http://www.w3.org/2001/XMLSchema-instance"
 xsi:schemaLocation="http://www.topografix.com/GPX/1/1 http://www.topografix.com/GPX/1/1/gpx.xsd">
<metadata>
 <time>2024-02-29T06:30:00Z</time>
 <bounds minlat="31.634570" minlon="34.940110" maxlat="31.686410" maxlon="35.003190"/>
</metadata>
<wpt lat="31.6745600" lon="34.9403500">
 <time>2024-02-29T08:28:12.053Z</time>
 <name>St\Fin</name>
 <sym>Bike Trail</sym>
</wpt>
<wpt lat="31.6491000" lon="34.9722300">
 <time>2024-02-29T08:28:12.078Z</time>
 <name>Atika</name>
 <sym>Flag, Red</sym>
</wpt>
<wpt lat="31.6593600" lon="34.9735100">
 <time>2024-02-29T08:28:12.082Z</time>
 <name>Colombarium</name>
 <sym>Flag, Red</sym>
</wpt>
<trk>
 <name>Adolam-Kanim_Sin_31km.700m_V1</name>
 <desc>Adolam-Kanim_Sin_31km.700m_V1</desc>
<trkseg>
<trkpt lat="31.6745500" lon="34.9403500">
<ele>249.260010</ele>
<time>2024-02-29T08:28:12.082Z</time>
</trkpt>
<trkpt lat="31.6745700" lon="34.9403900">
<ele>249.880005</ele>
<time>2024-02-29T08:28:12.082Z</time>
</trkpt>
<trkpt lat="31.6745900" lon="34.9403700">
<ele>249.900009</ele>
<time>2024-02-29T08:28:12.082Z</time>
</trkpt>
<trkpt lat="31.6749700" lon="34.9401200">
<ele>261.830017</ele>
<time>2024-02-29T08:28:12.082Z</time>
</trkpt>
<trkpt lat="31.6751100" lon="34.9401100">
<ele>264.639984</ele>
<time>2024-02-29T08:28:12.082Z</time>
</trkpt>
<trkpt lat="31.6753000" lon="34.9402500">
<ele>265.399994</ele>
<time>2024-02-29T08:28:12.082Z</time>
</trkpt>
<trkpt lat="31.6754000" lon="34.9403400">
<ele>266.549988</ele>
<time>2024-02-29T08:28:12.082Z</time>
</trkpt>
<trkpt lat="31.6756400" lon="34.9406300">
<ele>268.859985</ele>
<time>2024-02-29T08:28:12.082Z</time>
</trkpt>
<trkpt lat="31.6759800" lon="34.9412400">
<ele>262.500000</ele>
<time>2024-02-29T08:28:12.082Z</time>
</trkpt>
<trkpt lat="31.6763300" lon="34.9421800">
<ele>259.399994</ele>
<time>2024-02-29T08:28:12.082Z</time>
</trkpt>
<trkpt lat="31.6763300" lon="34.9422600">
<ele>258.640015</ele>
<time>2024-02-29T08:28:12.082Z</time>
</trkpt>
<trkpt lat="31.6762800" lon="34.9423900">
<ele>256.250000</ele>
<time>2024-02-29T08:28:12.082Z</time>
</trkpt>
<trkpt lat="31.6762800" lon="34.9424300">
<ele>255.730011</ele>
<time>2024-02-29T08:28:12.082Z</time>
</trkpt>
<trkpt lat="31.6763600" lon="34.9426400">
<ele>254.180008</ele>
<time>2024-02-29T08:28:12.082Z</time>
</trkpt>
<trkpt lat="31.6763800" lon="34.9429000">
<ele>252.919998</ele>
<time>2024-02-29T08:28:12.082Z</time>
</trkpt>
<trkpt lat="31.6762100" lon="34.9445300">
<ele>253.360001</ele>
<time>2024-02-29T08:28:12.082Z</time>
</trkpt>
<trkpt lat="31.6761800" lon="34.9449800">
<ele>252.550003</ele>
<time>2024-02-29T08:28:12.082Z</time>
</trkpt>
<trkpt lat="31.6761800" lon="34.9451000">
<ele>252.130005</ele>
<time>2024-02-29T08:28:12.082Z</time>
</trkpt>
<trkpt lat="31.6762400" lon="34.9457800">
<ele>249.540009</ele>
<time>2024-02-29T08:28:12.082Z</time>
</trkpt>
<trkpt lat="31.6762200" lon="34.9458800">
<ele>248.709991</ele>
<time>2024-02-29T08:28:12.082Z</time>
</trkpt>
<trkpt lat="31.6761300" lon="34.9460300">
<ele>247.039993</ele>
<time>2024-02-29T08:28:12.082Z</time>
</trkpt>
<trkpt lat="31.6761000" lon="34.9460700">
<ele>246.820007</ele>
<time>2024-02-29T08:28:12.082Z</time>
</trkpt>
<trkpt lat="31.6762200" lon="34.9461500">
<ele>248.740005</ele>
<time>2024-02-29T08:28:12.082Z</time>
</trkpt>
<trkpt lat="31.6763200" lon="34.9462400">
<ele>250.240005</ele>
<time>2024-02-29T08:28:12.082Z</time>
</trkpt>
<trkpt lat="31.6765800" lon="34.9466600">
<ele>250.990005</ele>
<time>2024-02-29T08:28:12.082Z</time>
</trkpt>
<trkpt lat="31.6768200" lon="34.9469200">
<ele>248.270004</ele>
<time>2024-02-29T08:28:12.082Z</time>
</trkpt>
<trkpt lat="31.6769900" lon="34.9470100">
<ele>247.369995</ele>
<time>2024-02-29T08:28:12.082Z</time>
</trkpt>
<trkpt lat="31.6772000" lon="34.9470400">
<ele>247.599991</ele>
<time>2024-02-29T08:28:12.082Z</time>
</trkpt>
<trkpt lat="31.6778400" lon="34.9470700">
<ele>246.839996</ele>
<time>2024-02-29T08:28:12.082Z</time>
</trkpt>
<trkpt lat="31.6778400" lon="34.9470700">
<ele>246.839996</ele>
<time>2024-02-29T08:28:12.082Z</time>
</trkpt>
<trkpt lat="31.6790300" lon="34.9471200">
<ele>236.420013</ele>
<time>2024-02-29T08:28:12.082Z</time>
</trkpt>
<trkpt lat="31.6793500" lon="34.9471300">
<ele>235.820007</ele>
<time>2024-02-29T08:28:12.082Z</time>
</trkpt>
<trkpt lat="31.6795700" lon="34.9471000">
<ele>233.069992</ele>
<time>2024-02-29T08:28:12.082Z</time>
</trkpt>
<trkpt lat="31.6801600" lon="34.9469200">
<ele>238.759995</ele>
<time>2024-02-29T08:28:12.082Z</time>
</trkpt>
<trkpt lat="31.6805000" lon="34.9468800">
<ele>239.310013</ele>
<time>2024-02-29T08:28:12.082Z</time>
</trkpt>
<trkpt lat="31.6806700" lon="34.9468400">
<ele>239.580002</ele>
<time>2024-02-29T08:28:12.082Z</time>
</trkpt>
<trkpt lat="31.6818600" lon="34.9471100">
<ele>244.800003</ele>
<time>2024-02-29T08:28:12.082Z</time>
</trkpt>
<trkpt lat="31.6817700" lon="34.9472500">
<ele>242.919998</ele>
<time>2024-02-29T08:28:12.082Z</time>
</trkpt>
<trkpt lat="31.6817700" lon="34.9472500">
<ele>242.919998</ele>
<time>2024-02-29T08:28:12.082Z</time>
</trkpt>
<trkpt lat="31.6817700" lon="34.9472500">
<ele>242.919998</ele>
<time>2024-02-29T08:28:12.082Z</time>
</trkpt>
<trkpt lat="31.6818600" lon="34.9471100">
<ele>244.800003</ele>
<time>2024-02-29T08:28:12.082Z</time>
</trkpt>
<trkpt lat="31.6824800" lon="34.9471200">
<ele>256.209991</ele>
<time>2024-02-29T08:28:12.082Z</time>
</trkpt>
<trkpt lat="31.6826000" lon="34.9471200">
<ele>256.660004</ele>
<time>2024-02-29T08:28:12.082Z</time>
</trkpt>
<trkpt lat="31.6826700" lon="34.9471200">
<ele>256.750000</ele>
<time>2024-02-29T08:28:12.082Z</time>
</trkpt>
<trkpt lat="31.6829800" lon="34.9472000">
<ele>255.629990</ele>
<time>2024-02-29T08:28:12.082Z</time>
</trkpt>
<trkpt lat="31.6830500" lon="34.9472700">
<ele>254.539993</ele>
<time>2024-02-29T08:28:12.082Z</time>
</trkpt>
<trkpt lat="31.6830500" lon="34.9472700">
<ele>254.539993</ele>
<time>2024-02-29T08:28:12.082Z</time>
</trkpt>
<trkpt lat="31.6830500" lon="34.9472700">
<ele>254.539993</ele>
<time>2024-02-29T08:28:12.082Z</time>
</trkpt>
<trkpt lat="31.6831500" lon="34.9473700">
<ele>251.879990</ele>
<time>2024-02-29T08:28:12.082Z</time>
</trkpt>
<trkpt lat="31.6832500" lon="34.9473800">
<ele>250.189987</ele>
<time>2024-02-29T08:28:12.082Z</time>
</trkpt>
<trkpt lat="31.6832400" lon="34.9473100">
<ele>250.939987</ele>
<time>2024-02-29T08:28:12.082Z</time>
</trkpt>
<trkpt lat="31.6832300" lon="34.9472600">
<ele>251.539993</ele>
<time>2024-02-29T08:28:12.082Z</time>
</trkpt>
<trkpt lat="31.6831300" lon="34.9471500">
<ele>253.419998</ele>
<time>2024-02-29T08:28:12.082Z</time>
</trkpt>
<trkpt lat="31.6830600" lon="34.9470300">
<ele>253.580002</ele>
<time>2024-02-29T08:28:12.082Z</time>
</trkpt>
<trkpt lat="31.6830300" lon="34.9469400">
<ele>253.119995</ele>
<time>2024-02-29T08:28:12.082Z</time>
</trkpt>
<trkpt lat="31.6830400" lon="34.9469100">
<ele>252.600006</ele>
<time>2024-02-29T08:28:12.082Z</time>
</trkpt>
<trkpt lat="31.6831900" lon="34.9469200">
<ele>252.159988</ele>
<time>2024-02-29T08:28:12.082Z</time>
</trkpt>
<trkpt lat="31.6836200" lon="34.9469400">
<ele>250.949997</ele>
<time>2024-02-29T08:28:12.082Z</time>
</trkpt>
<trkpt lat="31.6841900" lon="34.9469900">
<ele>245.009995</ele>
<time>2024-02-29T08:28:12.082Z</time>
</trkpt>
<trkpt lat="31.6843900" lon="34.9470000">
<ele>245.320007</ele>
<time>2024-02-29T08:28:12.082Z</time>
</trkpt>
<trkpt lat="31.6843900" lon="34.9470000">
<ele>245.320007</ele>
<time>2024-02-29T08:28:12.082Z</time>
</trkpt>
<trkpt lat="31.6844100" lon="34.9470000">
<ele>245.349991</ele>
<time>2024-02-29T08:28:12.082Z</time>
</trkpt>
<trkpt lat="31.6849400" lon="34.9471800">
<ele>248.759995</ele>
<time>2024-02-29T08:28:12.082Z</time>
</trkpt>
<trkpt lat="31.6850500" lon="34.9471900">
<ele>249.550003</ele>
<time>2024-02-29T08:28:12.082Z</time>
</trkpt>
<trkpt lat="31.6851700" lon="34.9471800">
<ele>252.639999</ele>
<time>2024-02-29T08:28:12.082Z</time>
</trkpt>
<trkpt lat="31.6851100" lon="34.9473200">
<ele>254.419998</ele>
<time>2024-02-29T08:28:12.082Z</time>
</trkpt>
<trkpt lat="31.6851100" lon="34.9473200">
<ele>254.419998</ele>
<time>2024-02-29T08:28:12.082Z</time>
</trkpt>
<trkpt lat="31.6851100" lon="34.9473200">
<ele>254.419998</ele>
<time>2024-02-29T08:28:12.082Z</time>
</trkpt>
<trkpt lat="31.6851100" lon="34.9473300">
<ele>254.750000</ele>
<time>2024-02-29T08:28:12.082Z</time>
</trkpt>
<trkpt lat="31.6850800" lon="34.9475800">
<ele>262.510010</ele>
<time>2024-02-29T08:28:12.082Z</time>
</trkpt>
<trkpt lat="31.6851100" lon="34.9477800">
<ele>268.029999</ele>
<time>2024-02-29T08:28:12.082Z</time>
</trkpt>
<trkpt lat="31.6851900" lon="34.9480600">
<ele>273.110016</ele>
<time>2024-02-29T08:28:12.082Z</time>
</trkpt>
<trkpt lat="31.6854700" lon="34.9486100">
<ele>278.690002</ele>
<time>2024-02-29T08:28:12.082Z</time>
</trkpt>
<trkpt lat="31.6856500" lon="34.9490200">
<ele>278.269989</ele>
<time>2024-02-29T08:28:12.082Z</time>
</trkpt>
<trkpt lat="31.6857400" lon="34.9491600">
<ele>276.739990</ele>
<time>2024-02-29T08:28:12.082Z</time>
</trkpt>
<trkpt lat="31.6857800" lon="34.9492200">
<ele>276.770020</ele>
<time>2024-02-29T08:28:12.082Z</time>
</trkpt>
<trkpt lat="31.6858900" lon="34.9494400">
<ele>278.419983</ele>
<time>2024-02-29T08:28:12.082Z</time>
</trkpt>
<trkpt lat="31.6862400" lon="34.9504500">
<ele>281.880005</ele>
<time>2024-02-29T08:28:12.082Z</time>
</trkpt>
<trkpt lat="31.6863000" lon="34.9506200">
<ele>282.339996</ele>
<time>2024-02-29T08:28:12.082Z</time>
</trkpt>
<trkpt lat="31.6863300" lon="34.9507800">
<ele>282.000000</ele>
<time>2024-02-29T08:28:12.082Z</time>
</trkpt>
<trkpt lat="31.6863500" lon="34.9510400">
<ele>281.419983</ele>
<time>2024-02-29T08:28:12.082Z</time>
</trkpt>
<trkpt lat="31.6863100" lon="34.9517100">
<ele>279.760010</ele>
<time>2024-02-29T08:28:12.082Z</time>
</trkpt>
<trkpt lat="31.6863400" lon="34.9519200">
<ele>279.980011</ele>
<time>2024-02-29T08:28:12.082Z</time>
</trkpt>
<trkpt lat="31.6864100" lon="34.9522500">
<ele>280.640015</ele>
<time>2024-02-29T08:28:12.082Z</time>
</trkpt>
<trkpt lat="31.6864000" lon="34.9523300">
<ele>280.679993</ele>
<time>2024-02-29T08:28:12.082Z</time>
</trkpt>
<trkpt lat="31.6863600" lon="34.9524400">
<ele>280.350006</ele>
<time>2024-02-29T08:28:12.082Z</time>
</trkpt>
<trkpt lat="31.6861800" lon="34.9526500">
<ele>278.589996</ele>
<time>2024-02-29T08:28:12.082Z</time>
</trkpt>
<trkpt lat="31.6861200" lon="34.9527600">
<ele>278.910004</ele>
<time>2024-02-29T08:28:12.082Z</time>
</trkpt>
<trkpt lat="31.6859900" lon="34.9531500">
<ele>277.220001</ele>
<time>2024-02-29T08:28:12.082Z</time>
</trkpt>
<trkpt lat="31.6857500" lon="34.9537700">
<ele>277.940002</ele>
<time>2024-02-29T08:28:12.082Z</time>
</trkpt>
<trkpt lat="31.6857000" lon="34.9539700">
<ele>280.480011</ele>
<time>2024-02-29T08:28:12.082Z</time>
</trkpt>
<trkpt lat="31.6856900" lon="34.9542600">
<ele>287.220001</ele>
<time>2024-02-29T08:28:12.082Z</time>
</trkpt>
<trkpt lat="31.6857100" lon="34.9544100">
<ele>291.760010</ele>
<time>2024-02-29T08:28:12.082Z</time>
</trkpt>
<trkpt lat="31.6857100" lon="34.9544300">
<ele>292.289978</ele>
<time>2024-02-29T08:28:12.082Z</time>
</trkpt>
<trkpt lat="31.6857700" lon="34.9546300">
<ele>298.389984</ele>
<time>2024-02-29T08:28:12.082Z</time>
</trkpt>
<trkpt lat="31.6859400" lon="34.9549600">
<ele>305.089996</ele>
<time>2024-02-29T08:28:12.082Z</time>
</trkpt>
<trkpt lat="31.6859800" lon="34.9551200">
<ele>305.760010</ele>
<time>2024-02-29T08:28:12.082Z</time>
</trkpt>
<trkpt lat="31.6860700" lon="34.9553000">
<ele>305.830017</ele>
<time>2024-02-29T08:28:12.082Z</time>
</trkpt>
<trkpt lat="31.6861000" lon="34.9555000">
<ele>304.369995</ele>
<time>2024-02-29T08:28:12.082Z</time>
</trkpt>
<trkpt lat="31.6860300" lon="34.9556000">
<ele>303.769989</ele>
<time>2024-02-29T08:28:12.082Z</time>
</trkpt>
<trkpt lat="31.6857900" lon="34.9554400">
<ele>303.480011</ele>
<time>2024-02-29T08:28:12.082Z</time>
</trkpt>
<trkpt lat="31.6855400" lon="34.9554800">
<ele>299.399994</ele>
<time>2024-02-29T08:28:12.082Z</time>
</trkpt>
<trkpt lat="31.6854400" lon="34.9555200">
<ele>296.489990</ele>
<time>2024-02-29T08:28:12.082Z</time>
</trkpt>
<trkpt lat="31.6852200" lon="34.9557400">
<ele>289.899994</ele>
<time>2024-02-29T08:28:12.082Z</time>
</trkpt>
<trkpt lat="31.6851200" lon="34.9559600">
<ele>289.619995</ele>
<time>2024-02-29T08:28:12.082Z</time>
</trkpt>
<trkpt lat="31.6850200" lon="34.9564600">
<ele>295.500000</ele>
<time>2024-02-29T08:28:12.082Z</time>
</trkpt>
<trkpt lat="31.6848700" lon="34.9570200">
<ele>301.709991</ele>
<time>2024-02-29T08:28:12.082Z</time>
</trkpt>
<trkpt lat="31.6848000" lon="34.9574400">
<ele>306.089996</ele>
<time>2024-02-29T08:28:12.082Z</time>
</trkpt>
<trkpt lat="31.6846600" lon="34.9579200">
<ele>303.500000</ele>
<time>2024-02-29T08:28:12.082Z</time>
</trkpt>
<trkpt lat="31.6846200" lon="34.9581300">
<ele>303.929993</ele>
<time>2024-02-29T08:28:12.082Z</time>
</trkpt>
<trkpt lat="31.6845600" lon="34.9588000">
<ele>311.410004</ele>
<time>2024-02-29T08:28:12.082Z</time>
</trkpt>
<trkpt lat="31.6845700" lon="34.9592200">
<ele>311.309998</ele>
<time>2024-02-29T08:28:12.082Z</time>
</trkpt>
<trkpt lat="31.6846100" lon="34.9594700">
<ele>312.319977</ele>
<time>2024-02-29T08:28:12.082Z</time>
</trkpt>
<trkpt lat="31.6845900" lon="34.9596000">
<ele>312.380005</ele>
<time>2024-02-29T08:28:12.082Z</time>
</trkpt>
<trkpt lat="31.6844900" lon="34.9598700">
<ele>311.680023</ele>
<time>2024-02-29T08:28:12.082Z</time>
</trkpt>
<trkpt lat="31.6842900" lon="34.9602200">
<ele>312.940002</ele>
<time>2024-02-29T08:28:12.082Z</time>
</trkpt>
<trkpt lat="31.6841600" lon="34.9604700">
<ele>314.649994</ele>
<time>2024-02-29T08:28:12.082Z</time>
</trkpt>
<trkpt lat="31.6840300" lon="34.9606800">
<ele>315.569977</ele>
<time>2024-02-29T08:28:12.082Z</time>
</trkpt>
<trkpt lat="31.6839600" lon="34.9608300">
<ele>316.000000</ele>
<time>2024-02-29T08:28:12.082Z</time>
</trkpt>
<trkpt lat="31.6839100" lon="34.9609800">
<ele>317.209991</ele>
<time>2024-02-29T08:28:12.082Z</time>
</trkpt>
<trkpt lat="31.6838600" lon="34.9614500">
<ele>326.770020</ele>
<time>2024-02-29T08:28:12.082Z</time>
</trkpt>
<trkpt lat="31.6838600" lon="34.9616400">
<ele>330.110016</ele>
<time>2024-02-29T08:28:12.082Z</time>
</trkpt>
<trkpt lat="31.6838500" lon="34.9617400">
<ele>332.399994</ele>
<time>2024-02-29T08:28:12.082Z</time>
</trkpt>
<trkpt lat="31.6837600" lon="34.9621500">
<ele>339.329987</ele>
<time>2024-02-29T08:28:12.082Z</time>
</trkpt>
<trkpt lat="31.6837600" lon="34.9624000">
<ele>343.860016</ele>
<time>2024-02-29T08:28:12.082Z</time>
</trkpt>
<trkpt lat="31.6837800" lon="34.9625300">
<ele>346.059998</ele>
<time>2024-02-29T08:28:12.082Z</time>
</trkpt>
<trkpt lat="31.6838200" lon="34.9626000">
<ele>347.159973</ele>
<time>2024-02-29T08:28:12.082Z</time>
</trkpt>
<trkpt lat="31.6839900" lon="34.9628200">
<ele>351.740021</ele>
<time>2024-02-29T08:28:12.082Z</time>
</trkpt>
<trkpt lat="31.6840500" lon="34.9629200">
<ele>353.059998</ele>
<time>2024-02-29T08:28:12.082Z</time>
</trkpt>
<trkpt lat="31.6840800" lon="34.9630200">
<ele>354.099976</ele>
<time>2024-02-29T08:28:12.082Z</time>
</trkpt>
<trkpt lat="31.6840800" lon="34.9630800">
<ele>354.380005</ele>
<time>2024-02-29T08:28:12.082Z</time>
</trkpt>
<trkpt lat="31.6840600" lon="34.9631600">
<ele>354.550018</ele>
<time>2024-02-29T08:28:12.082Z</time>
</trkpt>
<trkpt lat="31.6840300" lon="34.9631900">
<ele>354.239990</ele>
<time>2024-02-29T08:28:12.082Z</time>
</trkpt>
<trkpt lat="31.6839700" lon="34.9632400">
<ele>353.920013</ele>
<time>2024-02-29T08:28:12.082Z</time>
</trkpt>
<trkpt lat="31.6839300" lon="34.9632400">
<ele>353.289978</ele>
<time>2024-02-29T08:28:12.082Z</time>
</trkpt>
<trkpt lat="31.6837500" lon="34.9632400">
<ele>351.650024</ele>
<time>2024-02-29T08:28:12.082Z</time>
</trkpt>
<trkpt lat="31.6835500" lon="34.9631600">
<ele>348.510010</ele>
<time>2024-02-29T08:28:12.082Z</time>
</trkpt>
<trkpt lat="31.6833700" lon="34.9631700">
<ele>345.870026</ele>
<time>2024-02-29T08:28:12.082Z</time>
</trkpt>
<trkpt lat="31.6832000" lon="34.9632500">
<ele>343.949982</ele>
<time>2024-02-29T08:28:12.082Z</time>
</trkpt>
<trkpt lat="31.6829400" lon="34.9634700">
<ele>340.739990</ele>
<time>2024-02-29T08:28:12.082Z</time>
</trkpt>
<trkpt lat="31.6827800" lon="34.9636400">
<ele>340.579987</ele>
<time>2024-02-29T08:28:12.082Z</time>
</trkpt>
<trkpt lat="31.6827000" lon="34.9637800">
<ele>341.750000</ele>
<time>2024-02-29T08:28:12.082Z</time>
</trkpt>
<trkpt lat="31.6824600" lon="34.9644200">
<ele>354.170013</ele>
<time>2024-02-29T08:28:12.082Z</time>
</trkpt>
<trkpt lat="31.6823800" lon="34.9645100">
<ele>353.490021</ele>
<time>2024-02-29T08:28:12.082Z</time>
</trkpt>
<trkpt lat="31.6823700" lon="34.9647000">
<ele>355.939972</ele>
<time>2024-02-29T08:28:12.082Z</time>
</trkpt>
<trkpt lat="31.6822200" lon="34.9650000">
<ele>354.950012</ele>
<time>2024-02-29T08:28:12.082Z</time>
</trkpt>
<trkpt lat="31.6820600" lon="34.9652400">
<ele>354.950012</ele>
<time>2024-02-29T08:28:12.082Z</time>
</trkpt>
<trkpt lat="31.6819000" lon="34.9653900">
<ele>355.350006</ele>
<time>2024-02-29T08:28:12.082Z</time>
</trkpt>
<trkpt lat="31.6816700" lon="34.9655200">
<ele>356.140015</ele>
<time>2024-02-29T08:28:12.082Z</time>
</trkpt>
<trkpt lat="31.6814100" lon="34.9657400">
<ele>358.220001</ele>
<time>2024-02-29T08:28:12.082Z</time>
</trkpt>
<trkpt lat="31.6812800" lon="34.9659800">
<ele>359.640015</ele>
<time>2024-02-29T08:28:12.082Z</time>
</trkpt>
<trkpt lat="31.6811600" lon="34.9661500">
<ele>359.630005</ele>
<time>2024-02-29T08:28:12.082Z</time>
</trkpt>
<trkpt lat="31.6811300" lon="34.9662500">
<ele>360.139984</ele>
<time>2024-02-29T08:28:12.082Z</time>
</trkpt>
<trkpt lat="31.6810800" lon="34.9664100">
<ele>360.980011</ele>
<time>2024-02-29T08:28:12.082Z</time>
</trkpt>
<trkpt lat="31.6809900" lon="34.9664700">
<ele>360.750000</ele>
<time>2024-02-29T08:28:12.082Z</time>
</trkpt>
<trkpt lat="31.6807700" lon="34.9664800">
<ele>360.190002</ele>
<time>2024-02-29T08:28:12.082Z</time>
</trkpt>
<trkpt lat="31.6807700" lon="34.9664800">
<ele>360.190002</ele>
<time>2024-02-29T08:28:12.082Z</time>
</trkpt>
<trkpt lat="31.6807700" lon="34.9664800">
<ele>360.190002</ele>
<time>2024-02-29T08:28:12.082Z</time>
</trkpt>
<trkpt lat="31.6807100" lon="34.9664800">
<ele>360.049988</ele>
<time>2024-02-29T08:28:12.082Z</time>
</trkpt>
<trkpt lat="31.6804200" lon="34.9665400">
<ele>359.619995</ele>
<time>2024-02-29T08:28:12.082Z</time>
</trkpt>
<trkpt lat="31.6800400" lon="34.9666000">
<ele>363.290009</ele>
<time>2024-02-29T08:28:12.082Z</time>
</trkpt>
<trkpt lat="31.6797700" lon="34.9666200">
<ele>367.740021</ele>
<time>2024-02-29T08:28:12.082Z</time>
</trkpt>
<trkpt lat="31.6796000" lon="34.9666800">
<ele>369.590027</ele>
<time>2024-02-29T08:28:12.082Z</time>
</trkpt>
<trkpt lat="31.6794000" lon="34.9667800">
<ele>368.750000</ele>
<time>2024-02-29T08:28:12.082Z</time>
</trkpt>
<trkpt lat="31.6791200" lon="34.9669700">
<ele>368.200012</ele>
<time>2024-02-29T08:28:12.082Z</time>
</trkpt>
<trkpt lat="31.6789200" lon="34.9671600">
<ele>373.570007</ele>
<time>2024-02-29T08:28:12.082Z</time>
</trkpt>
<trkpt lat="31.6788300" lon="34.9672900">
<ele>376.619995</ele>
<time>2024-02-29T08:28:12.082Z</time>
</trkpt>
<trkpt lat="31.6787500" lon="34.9675700">
<ele>380.630005</ele>
<time>2024-02-29T08:28:12.082Z</time>
</trkpt>
<trkpt lat="31.6787100" lon="34.9677800">
<ele>382.649994</ele>
<time>2024-02-29T08:28:12.082Z</time>
</trkpt>
<trkpt lat="31.6787100" lon="34.9679000">
<ele>382.929993</ele>
<time>2024-02-29T08:28:12.082Z</time>
</trkpt>
<trkpt lat="31.6787400" lon="34.9681600">
<ele>383.190002</ele>
<time>2024-02-29T08:28:12.082Z</time>
</trkpt>
<trkpt lat="31.6787400" lon="34.9683200">
<ele>383.379974</ele>
<time>2024-02-29T08:28:12.082Z</time>
</trkpt>
<trkpt lat="31.6788900" lon="34.9687500">
<ele>385.489990</ele>
<time>2024-02-29T08:28:12.082Z</time>
</trkpt>
<trkpt lat="31.6789400" lon="34.9689900">
<ele>385.080017</ele>
<time>2024-02-29T08:28:12.082Z</time>
</trkpt>
<trkpt lat="31.6789800" lon="34.9691600">
<ele>384.040009</ele>
<time>2024-02-29T08:28:12.082Z</time>
</trkpt>
<trkpt lat="31.6789800" lon="34.9692900">
<ele>382.390015</ele>
<time>2024-02-29T08:28:12.082Z</time>
</trkpt>
<trkpt lat="31.6789600" lon="34.9693600">
<ele>381.629974</ele>
<time>2024-02-29T08:28:12.082Z</time>
</trkpt>
<trkpt lat="31.6788900" lon="34.9695200">
<ele>379.359985</ele>
<time>2024-02-29T08:28:12.082Z</time>
</trkpt>
<trkpt lat="31.6788300" lon="34.9696200">
<ele>376.709991</ele>
<time>2024-02-29T08:28:12.082Z</time>
</trkpt>
<trkpt lat="31.6787600" lon="34.9697500">
<ele>373.779999</ele>
<time>2024-02-29T08:28:12.082Z</time>
</trkpt>
<trkpt lat="31.6786100" lon="34.9700600">
<ele>369.000000</ele>
<time>2024-02-29T08:28:12.082Z</time>
</trkpt>
<trkpt lat="31.6785200" lon="34.9701900">
<ele>369.670013</ele>
<time>2024-02-29T08:28:12.082Z</time>
</trkpt>
<trkpt lat="31.6783200" lon="34.9703800">
<ele>371.340027</ele>
<time>2024-02-29T08:28:12.082Z</time>
</trkpt>
<trkpt lat="31.6780600" lon="34.9705300">
<ele>375.450012</ele>
<time>2024-02-29T08:28:12.082Z</time>
</trkpt>
<trkpt lat="31.6778100" lon="34.9707700">
<ele>378.639984</ele>
<time>2024-02-29T08:28:12.082Z</time>
</trkpt>
<trkpt lat="31.6776800" lon="34.9708200">
<ele>380.500000</ele>
<time>2024-02-29T08:28:12.082Z</time>
</trkpt>
<trkpt lat="31.6775700" lon="34.9708000">
<ele>380.930023</ele>
<time>2024-02-29T08:28:12.082Z</time>
</trkpt>
<trkpt lat="31.6774600" lon="34.9708100">
<ele>381.570007</ele>
<time>2024-02-29T08:28:12.082Z</time>
</trkpt>
<trkpt lat="31.6771900" lon="34.9709400">
<ele>384.069977</ele>
<time>2024-02-29T08:28:12.082Z</time>
</trkpt>
<trkpt lat="31.6770200" lon="34.9710900">
<ele>386.089996</ele>
<time>2024-02-29T08:28:12.082Z</time>
</trkpt>
<trkpt lat="31.6767900" lon="34.9712100">
<ele>384.050018</ele>
<time>2024-02-29T08:28:12.082Z</time>
</trkpt>
<trkpt lat="31.6763900" lon="34.9715000">
<ele>388.399994</ele>
<time>2024-02-29T08:28:12.082Z</time>
</trkpt>
<trkpt lat="31.6761600" lon="34.9717600">
<ele>394.389984</ele>
<time>2024-02-29T08:28:12.082Z</time>
</trkpt>
<trkpt lat="31.6759200" lon="34.9718500">
<ele>397.690002</ele>
<time>2024-02-29T08:28:12.082Z</time>
</trkpt>
<trkpt lat="31.6758600" lon="34.9719600">
<ele>398.980011</ele>
<time>2024-02-29T08:28:12.082Z</time>
</trkpt>
<trkpt lat="31.6757800" lon="34.9720400">
<ele>399.910004</ele>
<time>2024-02-29T08:28:12.082Z</time>
</trkpt>
<trkpt lat="31.6757200" lon="34.9720900">
<ele>400.279999</ele>
<time>2024-02-29T08:28:12.082Z</time>
</trkpt>
<trkpt lat="31.6756500" lon="34.9720900">
<ele>400.750000</ele>
<time>2024-02-29T08:28:12.082Z</time>
</trkpt>
<trkpt lat="31.6753900" lon="34.9719400">
<ele>406.440002</ele>
<time>2024-02-29T08:28:12.082Z</time>
</trkpt>
<trkpt lat="31.6750400" lon="34.9716600">
<ele>416.460022</ele>
<time>2024-02-29T08:28:12.082Z</time>
</trkpt>
<trkpt lat="31.6749400" lon="34.9714600">
<ele>417.950012</ele>
<time>2024-02-29T08:28:12.082Z</time>
</trkpt>
<trkpt lat="31.6747500" lon="34.9710900">
<ele>418.489990</ele>
<time>2024-02-29T08:28:12.082Z</time>
</trkpt>
<trkpt lat="31.6747100" lon="34.9708700">
<ele>418.510010</ele>
<time>2024-02-29T08:28:12.082Z</time>
</trkpt>
<trkpt lat="31.6745800" lon="34.9700000">
<ele>416.700012</ele>
<time>2024-02-29T08:28:12.082Z</time>
</trkpt>
<trkpt lat="31.6745100" lon="34.9697600">
<ele>419.209991</ele>
<time>2024-02-29T08:28:12.082Z</time>
</trkpt>
<trkpt lat="31.6744000" lon="34.9696200">
<ele>421.799988</ele>
<time>2024-02-29T08:28:12.082Z</time>
</trkpt>
<trkpt lat="31.6743400" lon="34.9695800">
<ele>422.299988</ele>
<time>2024-02-29T08:28:12.082Z</time>
</trkpt>
<trkpt lat="31.6741900" lon="34.9696000">
<ele>424.269989</ele>
<time>2024-02-29T08:28:12.082Z</time>
</trkpt>
<trkpt lat="31.6741000" lon="34.9696500">
<ele>424.139984</ele>
<time>2024-02-29T08:28:12.082Z</time>
</trkpt>
<trkpt lat="31.6740000" lon="34.9697500">
<ele>424.000031</ele>
<time>2024-02-29T08:28:12.082Z</time>
</trkpt>
<trkpt lat="31.6739400" lon="34.9698200">
<ele>424.070007</ele>
<time>2024-02-29T08:28:12.082Z</time>
</trkpt>
<trkpt lat="31.6739100" lon="34.9699400">
<ele>424.720001</ele>
<time>2024-02-29T08:28:12.082Z</time>
</trkpt>
<trkpt lat="31.6739500" lon="34.9701500">
<ele>426.099976</ele>
<time>2024-02-29T08:28:12.082Z</time>
</trkpt>
<trkpt lat="31.6739600" lon="34.9702300">
<ele>426.549988</ele>
<time>2024-02-29T08:28:12.082Z</time>
</trkpt>
<trkpt lat="31.6739300" lon="34.9704400">
<ele>426.359985</ele>
<time>2024-02-29T08:28:12.082Z</time>
</trkpt>
<trkpt lat="31.6738700" lon="34.9705900">
<ele>425.600006</ele>
<time>2024-02-29T08:28:12.082Z</time>
</trkpt>
<trkpt lat="31.6738800" lon="34.9706700">
<ele>425.459991</ele>
<time>2024-02-29T08:28:12.082Z</time>
</trkpt>
<trkpt lat="31.6738900" lon="34.9707200">
<ele>425.419983</ele>
<time>2024-02-29T08:28:12.082Z</time>
</trkpt>
<trkpt lat="31.6739100" lon="34.9707900">
<ele>425.309998</ele>
<time>2024-02-29T08:28:12.082Z</time>
</trkpt>
<trkpt lat="31.6739000" lon="34.9708700">
<ele>424.689972</ele>
<time>2024-02-29T08:28:12.082Z</time>
</trkpt>
<trkpt lat="31.6738700" lon="34.9709200">
<ele>423.750000</ele>
<time>2024-02-29T08:28:12.082Z</time>
</trkpt>
<trkpt lat="31.6738000" lon="34.9709700">
<ele>421.929993</ele>
<time>2024-02-29T08:28:12.082Z</time>
</trkpt>
<trkpt lat="31.6737900" lon="34.9711200">
<ele>419.720032</ele>
<time>2024-02-29T08:28:12.082Z</time>
</trkpt>
<trkpt lat="31.6737400" lon="34.9712600">
<ele>416.389984</ele>
<time>2024-02-29T08:28:12.082Z</time>
</trkpt>
<trkpt lat="31.6736800" lon="34.9715100">
<ele>411.820007</ele>
<time>2024-02-29T08:28:12.082Z</time>
</trkpt>
<trkpt lat="31.6736600" lon="34.9716500">
<ele>409.889984</ele>
<time>2024-02-29T08:28:12.082Z</time>
</trkpt>
<trkpt lat="31.6736000" lon="34.9717400">
<ele>408.110016</ele>
<time>2024-02-29T08:28:12.082Z</time>
</trkpt>
<trkpt lat="31.6735900" lon="34.9719000">
<ele>406.199982</ele>
<time>2024-02-29T08:28:12.082Z</time>
</trkpt>
<trkpt lat="31.6735800" lon="34.9719600">
<ele>405.489990</ele>
<time>2024-02-29T08:28:12.082Z</time>
</trkpt>
<trkpt lat="31.6735600" lon="34.9719500">
<ele>405.240021</ele>
<time>2024-02-29T08:28:12.082Z</time>
</trkpt>
<trkpt lat="31.6735200" lon="34.9719000">
<ele>405.269989</ele>
<time>2024-02-29T08:28:12.082Z</time>
</trkpt>
<trkpt lat="31.6734500" lon="34.9719000">
<ele>404.350006</ele>
<time>2024-02-29T08:28:12.082Z</time>
</trkpt>
<trkpt lat="31.6733600" lon="34.9719700">
<ele>402.210022</ele>
<time>2024-02-29T08:28:12.082Z</time>
</trkpt>
<trkpt lat="31.6733200" lon="34.9720400">
<ele>401.310028</ele>
<time>2024-02-29T08:28:12.082Z</time>
</trkpt>
<trkpt lat="31.6732700" lon="34.9722200">
<ele>400.020020</ele>
<time>2024-02-29T08:28:12.082Z</time>
</trkpt>
<trkpt lat="31.6732600" lon="34.9723500">
<ele>400.339996</ele>
<time>2024-02-29T08:28:12.082Z</time>
</trkpt>
<trkpt lat="31.6732800" lon="34.9725700">
<ele>401.359985</ele>
<time>2024-02-29T08:28:12.082Z</time>
</trkpt>
<trkpt lat="31.6732700" lon="34.9726700">
<ele>402.139984</ele>
<time>2024-02-29T08:28:12.082Z</time>
</trkpt>
<trkpt lat="31.6731800" lon="34.9730000">
<ele>405.479980</ele>
<time>2024-02-29T08:28:12.082Z</time>
</trkpt>
<trkpt lat="31.6731300" lon="34.9731600">
<ele>407.009979</ele>
<time>2024-02-29T08:28:12.082Z</time>
</trkpt>
<trkpt lat="31.6730100" lon="34.9734200">
<ele>409.100006</ele>
<time>2024-02-29T08:28:12.082Z</time>
</trkpt>
<trkpt lat="31.6729400" lon="34.9735100">
<ele>409.530029</ele>
<time>2024-02-29T08:28:12.082Z</time>
</trkpt>
<trkpt lat="31.6726600" lon="34.9737100">
<ele>407.919983</ele>
<time>2024-02-29T08:28:12.082Z</time>
</trkpt>
<trkpt lat="31.6724900" lon="34.9737200">
<ele>406.440002</ele>
<time>2024-02-29T08:28:12.082Z</time>
</trkpt>
<trkpt lat="31.6724600" lon="34.9737300">
<ele>405.910004</ele>
<time>2024-02-29T08:28:12.082Z</time>
</trkpt>
<trkpt lat="31.6724900" lon="34.9737200">
<ele>406.440002</ele>
<time>2024-02-29T08:28:12.082Z</time>
</trkpt>
<trkpt lat="31.6723900" lon="34.9737600">
<ele>404.699982</ele>
<time>2024-02-29T08:28:12.082Z</time>
</trkpt>
<trkpt lat="31.6720300" lon="34.9741700">
<ele>404.040009</ele>
<time>2024-02-29T08:28:12.082Z</time>
</trkpt>
<trkpt lat="31.6716600" lon="34.9744800">
<ele>406.130005</ele>
<time>2024-02-29T08:28:12.082Z</time>
</trkpt>
<trkpt lat="31.6716000" lon="34.9744700">
<ele>406.140015</ele>
<time>2024-02-29T08:28:12.082Z</time>
</trkpt>
<trkpt lat="31.6714100" lon="34.9744700">
<ele>406.260010</ele>
<time>2024-02-29T08:28:12.082Z</time>
</trkpt>
<trkpt lat="31.6712300" lon="34.9744900">
<ele>406.299988</ele>
<time>2024-02-29T08:28:12.082Z</time>
</trkpt>
<trkpt lat="31.6710600" lon="34.9744800">
<ele>406.289978</ele>
<time>2024-02-29T08:28:12.082Z</time>
</trkpt>
<trkpt lat="31.6708900" lon="34.9744300">
<ele>406.579987</ele>
<time>2024-02-29T08:28:12.082Z</time>
</trkpt>
<trkpt lat="31.6707000" lon="34.9744800">
<ele>405.200012</ele>
<time>2024-02-29T08:28:12.082Z</time>
</trkpt>
<trkpt lat="31.6705300" lon="34.9744400">
<ele>402.859985</ele>
<time>2024-02-29T08:28:12.082Z</time>
</trkpt>
<trkpt lat="31.6704600" lon="34.9744400">
<ele>402.609985</ele>
<time>2024-02-29T08:28:12.082Z</time>
</trkpt>
<trkpt lat="31.6703900" lon="34.9744800">
<ele>402.580017</ele>
<time>2024-02-29T08:28:12.082Z</time>
</trkpt>
<trkpt lat="31.6703400" lon="34.9745800">
<ele>402.819977</ele>
<time>2024-02-29T08:28:12.082Z</time>
</trkpt>
<trkpt lat="31.6702600" lon="34.9750300">
<ele>402.299988</ele>
<time>2024-02-29T08:28:12.082Z</time>
</trkpt>
<trkpt lat="31.6702500" lon="34.9751900">
<ele>400.419983</ele>
<time>2024-02-29T08:28:12.082Z</time>
</trkpt>
<trkpt lat="31.6702700" lon="34.9753200">
<ele>399.100006</ele>
<time>2024-02-29T08:28:12.082Z</time>
</trkpt>
<trkpt lat="31.6703300" lon="34.9754800">
<ele>397.710022</ele>
<time>2024-02-29T08:28:12.082Z</time>
</trkpt>
<trkpt lat="31.6703100" lon="34.9755500">
<ele>396.019989</ele>
<time>2024-02-29T08:28:12.082Z</time>
</trkpt>
<trkpt lat="31.6702400" lon="34.9755700">
<ele>394.339996</ele>
<time>2024-02-29T08:28:12.082Z</time>
</trkpt>
<trkpt lat="31.6701800" lon="34.9755300">
<ele>393.699982</ele>
<time>2024-02-29T08:28:12.082Z</time>
</trkpt>
<trkpt lat="31.6701000" lon="34.9754400">
<ele>393.880005</ele>
<time>2024-02-29T08:28:12.082Z</time>
</trkpt>
<trkpt lat="31.6699600" lon="34.9752500">
<ele>394.489990</ele>
<time>2024-02-29T08:28:12.082Z</time>
</trkpt>
<trkpt lat="31.6698400" lon="34.9751300">
<ele>393.489990</ele>
<time>2024-02-29T08:28:12.082Z</time>
</trkpt>
<trkpt lat="31.6697400" lon="34.9750900">
<ele>392.299988</ele>
<time>2024-02-29T08:28:12.082Z</time>
</trkpt>
<trkpt lat="31.6695100" lon="34.9750800">
<ele>388.859985</ele>
<time>2024-02-29T08:28:12.082Z</time>
</trkpt>
<trkpt lat="31.6694500" lon="34.9751100">
<ele>387.500000</ele>
<time>2024-02-29T08:28:12.082Z</time>
</trkpt>
<trkpt lat="31.6694200" lon="34.9751600">
<ele>386.559998</ele>
<time>2024-02-29T08:28:12.082Z</time>
</trkpt>
<trkpt lat="31.6694100" lon="34.9752400">
<ele>385.309998</ele>
<time>2024-02-29T08:28:12.082Z</time>
</trkpt>
<trkpt lat="31.6695300" lon="34.9754800">
<ele>385.529999</ele>
<time>2024-02-29T08:28:12.082Z</time>
</trkpt>
<trkpt lat="31.6695200" lon="34.9755700">
<ele>384.940002</ele>
<time>2024-02-29T08:28:12.082Z</time>
</trkpt>
<trkpt lat="31.6694500" lon="34.9756100">
<ele>383.330017</ele>
<time>2024-02-29T08:28:12.082Z</time>
</trkpt>
<trkpt lat="31.6693400" lon="34.9756000">
<ele>381.100006</ele>
<time>2024-02-29T08:28:12.082Z</time>
</trkpt>
<trkpt lat="31.6692600" lon="34.9756200">
<ele>379.449982</ele>
<time>2024-02-29T08:28:12.082Z</time>
</trkpt>
<trkpt lat="31.6691300" lon="34.9757100">
<ele>376.610016</ele>
<time>2024-02-29T08:28:12.082Z</time>
</trkpt>
<trkpt lat="31.6690100" lon="34.9757600">
<ele>375.130005</ele>
<time>2024-02-29T08:28:12.082Z</time>
</trkpt>
<trkpt lat="31.6689000" lon="34.9758300">
<ele>373.170013</ele>
<time>2024-02-29T08:28:12.082Z</time>
</trkpt>
<trkpt lat="31.6688100" lon="34.9759300">
<ele>372.089996</ele>
<time>2024-02-29T08:28:12.082Z</time>
</trkpt>
<trkpt lat="31.6686900" lon="34.9759900">
<ele>370.570007</ele>
<time>2024-02-29T08:28:12.082Z</time>
</trkpt>
<trkpt lat="31.6685400" lon="34.9760000">
<ele>370.309998</ele>
<time>2024-02-29T08:28:12.082Z</time>
</trkpt>
<trkpt lat="31.6683100" lon="34.9759500">
<ele>373.100006</ele>
<time>2024-02-29T08:28:12.082Z</time>
</trkpt>
<trkpt lat="31.6679200" lon="34.9757100">
<ele>375.649994</ele>
<time>2024-02-29T08:28:12.082Z</time>
</trkpt>
<trkpt lat="31.6677100" lon="34.9756300">
<ele>373.390015</ele>
<time>2024-02-29T08:28:12.082Z</time>
</trkpt>
<trkpt lat="31.6675000" lon="34.9756200">
<ele>369.930023</ele>
<time>2024-02-29T08:28:12.082Z</time>
</trkpt>
<trkpt lat="31.6673400" lon="34.9755600">
<ele>366.209991</ele>
<time>2024-02-29T08:28:12.082Z</time>
</trkpt>
<trkpt lat="31.6671800" lon="34.9754700">
<ele>363.829987</ele>
<time>2024-02-29T08:28:12.082Z</time>
</trkpt>
<trkpt lat="31.6670000" lon="34.9753100">
<ele>365.239990</ele>
<time>2024-02-29T08:28:12.082Z</time>
</trkpt>
<trkpt lat="31.6668400" lon="34.9752200">
<ele>366.779999</ele>
<time>2024-02-29T08:28:12.082Z</time>
</trkpt>
<trkpt lat="31.6667300" lon="34.9751300">
<ele>366.380005</ele>
<time>2024-02-29T08:28:12.082Z</time>
</trkpt>
<trkpt lat="31.6665500" lon="34.9749800">
<ele>363.829987</ele>
<time>2024-02-29T08:28:12.082Z</time>
</trkpt>
<trkpt lat="31.6664500" lon="34.9749600">
<ele>363.599976</ele>
<time>2024-02-29T08:28:12.082Z</time>
</trkpt>
<trkpt lat="31.6664000" lon="34.9748900">
<ele>362.829987</ele>
<time>2024-02-29T08:28:12.082Z</time>
</trkpt>
<trkpt lat="31.6663600" lon="34.9747700">
<ele>360.839996</ele>
<time>2024-02-29T08:28:12.082Z</time>
</trkpt>
<trkpt lat="31.6663500" lon="34.9746000">
<ele>360.600006</ele>
<time>2024-02-29T08:28:12.082Z</time>
</trkpt>
<trkpt lat="31.6662900" lon="34.9744900">
<ele>359.700012</ele>
<time>2024-02-29T08:28:12.082Z</time>
</trkpt>
<trkpt lat="31.6662800" lon="34.9743800">
<ele>359.559998</ele>
<time>2024-02-29T08:28:12.082Z</time>
</trkpt>
<trkpt lat="31.6663300" lon="34.9741900">
<ele>360.529999</ele>
<time>2024-02-29T08:28:12.082Z</time>
</trkpt>
<trkpt lat="31.6663000" lon="34.9739700">
<ele>355.769989</ele>
<time>2024-02-29T08:28:12.082Z</time>
</trkpt>
<trkpt lat="31.6663200" lon="34.9738800">
<ele>354.600006</ele>
<time>2024-02-29T08:28:12.082Z</time>
</trkpt>
<trkpt lat="31.6662700" lon="34.9738400">
<ele>352.190002</ele>
<time>2024-02-29T08:28:12.082Z</time>
</trkpt>
<trkpt lat="31.6662200" lon="34.9738700">
<ele>351.149994</ele>
<time>2024-02-29T08:28:12.082Z</time>
</trkpt>
<trkpt lat="31.6661300" lon="34.9740600">
<ele>352.839996</ele>
<time>2024-02-29T08:28:12.082Z</time>
</trkpt>
<trkpt lat="31.6660900" lon="34.9740500">
<ele>351.199982</ele>
<time>2024-02-29T08:28:12.082Z</time>
</trkpt>
<trkpt lat="31.6660700" lon="34.9740300">
<ele>349.920013</ele>
<time>2024-02-29T08:28:12.082Z</time>
</trkpt>
<trkpt lat="31.6660900" lon="34.9738800">
<ele>347.130005</ele>
<time>2024-02-29T08:28:12.082Z</time>
</trkpt>
<trkpt lat="31.6660600" lon="34.9737500">
<ele>343.619995</ele>
<time>2024-02-29T08:28:12.082Z</time>
</trkpt>
<trkpt lat="31.6660600" lon="34.9736600">
<ele>341.850006</ele>
<time>2024-02-29T08:28:12.082Z</time>
</trkpt>
<trkpt lat="31.6660800" lon="34.9736000">
<ele>341.360016</ele>
<time>2024-02-29T08:28:12.082Z</time>
</trkpt>
<trkpt lat="31.6661300" lon="34.9735500">
<ele>342.870026</ele>
<time>2024-02-29T08:28:12.082Z</time>
</trkpt>
<trkpt lat="31.6661400" lon="34.9735100">
<ele>343.329987</ele>
<time>2024-02-29T08:28:12.082Z</time>
</trkpt>
<trkpt lat="31.6661000" lon="34.9734800">
<ele>342.209991</ele>
<time>2024-02-29T08:28:12.082Z</time>
</trkpt>
<trkpt lat="31.6660300" lon="34.9735300">
<ele>340.449982</ele>
<time>2024-02-29T08:28:12.082Z</time>
</trkpt>
<trkpt lat="31.6659500" lon="34.9736400">
<ele>338.959991</ele>
<time>2024-02-29T08:28:12.082Z</time>
</trkpt>
<trkpt lat="31.6659000" lon="34.9736500">
<ele>337.959991</ele>
<time>2024-02-29T08:28:12.082Z</time>
</trkpt>
<trkpt lat="31.6658600" lon="34.9735500">
<ele>336.600006</ele>
<time>2024-02-29T08:28:12.082Z</time>
</trkpt>
<trkpt lat="31.6658500" lon="34.9734000">
<ele>336.410004</ele>
<time>2024-02-29T08:28:12.082Z</time>
</trkpt>
<trkpt lat="31.6659300" lon="34.9732600">
<ele>338.949982</ele>
<time>2024-02-29T08:28:12.082Z</time>
</trkpt>
<trkpt lat="31.6659400" lon="34.9731500">
<ele>339.910004</ele>
<time>2024-02-29T08:28:12.082Z</time>
</trkpt>
<trkpt lat="31.6658700" lon="34.9730900">
<ele>339.209991</ele>
<time>2024-02-29T08:28:12.082Z</time>
</trkpt>
<trkpt lat="31.6658300" lon="34.9730700">
<ele>338.810028</ele>
<time>2024-02-29T08:28:12.082Z</time>
</trkpt>
<trkpt lat="31.6657700" lon="34.9730700">
<ele>338.169983</ele>
<time>2024-02-29T08:28:12.082Z</time>
</trkpt>
<trkpt lat="31.6657200" lon="34.9731800">
<ele>336.610016</ele>
<time>2024-02-29T08:28:12.082Z</time>
</trkpt>
<trkpt lat="31.6656500" lon="34.9732200">
<ele>335.630005</ele>
<time>2024-02-29T08:28:12.082Z</time>
</trkpt>
<trkpt lat="31.6655000" lon="34.9732600">
<ele>334.419983</ele>
<time>2024-02-29T08:28:12.082Z</time>
</trkpt>
<trkpt lat="31.6654400" lon="34.9732600">
<ele>334.309998</ele>
<time>2024-02-29T08:28:12.082Z</time>
</trkpt>
<trkpt lat="31.6653500" lon="34.9732100">
<ele>334.230011</ele>
<time>2024-02-29T08:28:12.082Z</time>
</trkpt>
<trkpt lat="31.6651100" lon="34.9728000">
<ele>336.270020</ele>
<time>2024-02-29T08:28:12.082Z</time>
</trkpt>
<trkpt lat="31.6650300" lon="34.9727000">
<ele>336.000000</ele>
<time>2024-02-29T08:28:12.082Z</time>
</trkpt>
<trkpt lat="31.6649000" lon="34.9725800">
<ele>334.970001</ele>
<time>2024-02-29T08:28:12.082Z</time>
</trkpt>
<trkpt lat="31.6647600" lon="34.9725300">
<ele>334.419983</ele>
<time>2024-02-29T08:28:12.082Z</time>
</trkpt>
<trkpt lat="31.6646600" lon="34.9725200">
<ele>334.059967</ele>
<time>2024-02-29T08:28:12.082Z</time>
</trkpt>
<trkpt lat="31.6645800" lon="34.9725300">
<ele>333.920013</ele>
<time>2024-02-29T08:28:12.082Z</time>
</trkpt>
<trkpt lat="31.6645200" lon="34.9725600">
<ele>334.140015</ele>
<time>2024-02-29T08:28:12.082Z</time>
</trkpt>
<trkpt lat="31.6644600" lon="34.9726200">
<ele>334.779999</ele>
<time>2024-02-29T08:28:12.082Z</time>
</trkpt>
<trkpt lat="31.6644200" lon="34.9727400">
<ele>336.230011</ele>
<time>2024-02-29T08:28:12.082Z</time>
</trkpt>
<trkpt lat="31.6644100" lon="34.9728600">
<ele>338.399994</ele>
<time>2024-02-29T08:28:12.082Z</time>
</trkpt>
<trkpt lat="31.6643900" lon="34.9729300">
<ele>339.700012</ele>
<time>2024-02-29T08:28:12.082Z</time>
</trkpt>
<trkpt lat="31.6641500" lon="34.9730600">
<ele>340.099976</ele>
<time>2024-02-29T08:28:12.082Z</time>
</trkpt>
<trkpt lat="31.6639000" lon="34.9731000">
<ele>340.180023</ele>
<time>2024-02-29T08:28:12.082Z</time>
</trkpt>
<trkpt lat="31.6638200" lon="34.9731400">
<ele>340.380005</ele>
<time>2024-02-29T08:28:12.082Z</time>
</trkpt>
<trkpt lat="31.6637200" lon="34.9732200">
<ele>341.320007</ele>
<time>2024-02-29T08:28:12.082Z</time>
</trkpt>
<trkpt lat="31.6636500" lon="34.9733000">
<ele>342.579987</ele>
<time>2024-02-29T08:28:12.082Z</time>
</trkpt>
<trkpt lat="31.6635200" lon="34.9735400">
<ele>347.660004</ele>
<time>2024-02-29T08:28:12.082Z</time>
</trkpt>
<trkpt lat="31.6634900" lon="34.9736400">
<ele>349.110016</ele>
<time>2024-02-29T08:28:12.082Z</time>
</trkpt>
<trkpt lat="31.6634400" lon="34.9738800">
<ele>353.329987</ele>
<time>2024-02-29T08:28:12.082Z</time>
</trkpt>
<trkpt lat="31.6634100" lon="34.9743700">
<ele>358.279999</ele>
<time>2024-02-29T08:28:12.082Z</time>
</trkpt>
<trkpt lat="31.6633700" lon="34.9745900">
<ele>358.580017</ele>
<time>2024-02-29T08:28:12.082Z</time>
</trkpt>
<trkpt lat="31.6633200" lon="34.9747200">
<ele>359.040009</ele>
<time>2024-02-29T08:28:12.082Z</time>
</trkpt>
<trkpt lat="31.6632500" lon="34.9747600">
<ele>359.570007</ele>
<time>2024-02-29T08:28:12.082Z</time>
</trkpt>
<trkpt lat="31.6631800" lon="34.9747700">
<ele>359.899994</ele>
<time>2024-02-29T08:28:12.082Z</time>
</trkpt>
<trkpt lat="31.6630000" lon="34.9746900">
<ele>360.410004</ele>
<time>2024-02-29T08:28:12.082Z</time>
</trkpt>
<trkpt lat="31.6628900" lon="34.9747300">
<ele>361.790009</ele>
<time>2024-02-29T08:28:12.082Z</time>
</trkpt>
<trkpt lat="31.6628800" lon="34.9747700">
<ele>361.910004</ele>
<time>2024-02-29T08:28:12.082Z</time>
</trkpt>
<trkpt lat="31.6628800" lon="34.9748500">
<ele>361.940002</ele>
<time>2024-02-29T08:28:12.082Z</time>
</trkpt>
<trkpt lat="31.6630200" lon="34.9752300">
<ele>362.829987</ele>
<time>2024-02-29T08:28:12.082Z</time>
</trkpt>
<trkpt lat="31.6630600" lon="34.9753100">
<ele>363.129974</ele>
<time>2024-02-29T08:28:12.082Z</time>
</trkpt>
<trkpt lat="31.6631500" lon="34.9754200">
<ele>364.029999</ele>
<time>2024-02-29T08:28:12.082Z</time>
</trkpt>
<trkpt lat="31.6631700" lon="34.9754800">
<ele>364.440002</ele>
<time>2024-02-29T08:28:12.082Z</time>
</trkpt>
<trkpt lat="31.6631500" lon="34.9755500">
<ele>364.649994</ele>
<time>2024-02-29T08:28:12.082Z</time>
</trkpt>
<trkpt lat="31.6629900" lon="34.9757400">
<ele>366.500000</ele>
<time>2024-02-29T08:28:12.082Z</time>
</trkpt>
<trkpt lat="31.6627900" lon="34.9760600">
<ele>372.719971</ele>
<time>2024-02-29T08:28:12.082Z</time>
</trkpt>
<trkpt lat="31.6626500" lon="34.9763000">
<ele>376.089996</ele>
<time>2024-02-29T08:28:12.082Z</time>
</trkpt>
<trkpt lat="31.6625500" lon="34.9765200">
<ele>378.329987</ele>
<time>2024-02-29T08:28:12.082Z</time>
</trkpt>
<trkpt lat="31.6624800" lon="34.9766200">
<ele>379.200012</ele>
<time>2024-02-29T08:28:12.082Z</time>
</trkpt>
<trkpt lat="31.6624400" lon="34.9766400">
<ele>379.200012</ele>
<time>2024-02-29T08:28:12.082Z</time>
</trkpt>
<trkpt lat="31.6623600" lon="34.9766300">
<ele>378.529999</ele>
<time>2024-02-29T08:28:12.082Z</time>
</trkpt>
<trkpt lat="31.6623200" lon="34.9766000">
<ele>377.899994</ele>
<time>2024-02-29T08:28:12.082Z</time>
</trkpt>
<trkpt lat="31.6622600" lon="34.9765100">
<ele>376.500000</ele>
<time>2024-02-29T08:28:12.082Z</time>
</trkpt>
<trkpt lat="31.6622200" lon="34.9762800">
<ele>375.029968</ele>
<time>2024-02-29T08:28:12.082Z</time>
</trkpt>
<trkpt lat="31.6621700" lon="34.9760900">
<ele>375.440002</ele>
<time>2024-02-29T08:28:12.082Z</time>
</trkpt>
<trkpt lat="31.6621600" lon="34.9760000">
<ele>375.049988</ele>
<time>2024-02-29T08:28:12.082Z</time>
</trkpt>
<trkpt lat="31.6621600" lon="34.9758000">
<ele>373.789978</ele>
<time>2024-02-29T08:28:12.082Z</time>
</trkpt>
<trkpt lat="31.6621300" lon="34.9757200">
<ele>373.570007</ele>
<time>2024-02-29T08:28:12.082Z</time>
</trkpt>
<trkpt lat="31.6620700" lon="34.9756800">
<ele>374.389984</ele>
<time>2024-02-29T08:28:12.082Z</time>
</trkpt>
<trkpt lat="31.6620300" lon="34.9757000">
<ele>375.350006</ele>
<time>2024-02-29T08:28:12.082Z</time>
</trkpt>
<trkpt lat="31.6619300" lon="34.9761500">
<ele>378.539978</ele>
<time>2024-02-29T08:28:12.082Z</time>
</trkpt>
<trkpt lat="31.6618500" lon="34.9763600">
<ele>381.010010</ele>
<time>2024-02-29T08:28:12.082Z</time>
</trkpt>
<trkpt lat="31.6618200" lon="34.9766000">
<ele>382.029999</ele>
<time>2024-02-29T08:28:12.082Z</time>
</trkpt>
<trkpt lat="31.6617100" lon="34.9769600">
<ele>386.179993</ele>
<time>2024-02-29T08:28:12.082Z</time>
</trkpt>
<trkpt lat="31.6616700" lon="34.9771300">
<ele>388.259979</ele>
<time>2024-02-29T08:28:12.082Z</time>
</trkpt>
<trkpt lat="31.6616500" lon="34.9773200">
<ele>390.310028</ele>
<time>2024-02-29T08:28:12.082Z</time>
</trkpt>
<trkpt lat="31.6616600" lon="34.9774400">
<ele>391.429993</ele>
<time>2024-02-29T08:28:12.082Z</time>
</trkpt>
<trkpt lat="31.6617100" lon="34.9775400">
<ele>392.339996</ele>
<time>2024-02-29T08:28:12.082Z</time>
</trkpt>
<trkpt lat="31.6618300" lon="34.9776700">
<ele>392.799988</ele>
<time>2024-02-29T08:28:12.082Z</time>
</trkpt>
<trkpt lat="31.6618100" lon="34.9777400">
<ele>393.949982</ele>
<time>2024-02-29T08:28:12.082Z</time>
</trkpt>
<trkpt lat="31.6617500" lon="34.9777600">
<ele>395.239990</ele>
<time>2024-02-29T08:28:12.082Z</time>
</trkpt>
<trkpt lat="31.6616700" lon="34.9777700">
<ele>396.799988</ele>
<time>2024-02-29T08:28:12.082Z</time>
</trkpt>
<trkpt lat="31.6615600" lon="34.9777500">
<ele>398.690002</ele>
<time>2024-02-29T08:28:12.082Z</time>
</trkpt>
<trkpt lat="31.6612500" lon="34.9775100">
<ele>398.730011</ele>
<time>2024-02-29T08:28:12.082Z</time>
</trkpt>
<trkpt lat="31.6611400" lon="34.9774600">
<ele>400.869995</ele>
<time>2024-02-29T08:28:12.082Z</time>
</trkpt>
<trkpt lat="31.6609700" lon="34.9774700">
<ele>404.269989</ele>
<time>2024-02-29T08:28:12.082Z</time>
</trkpt>
<trkpt lat="31.6608600" lon="34.9774500">
<ele>406.140015</ele>
<time>2024-02-29T08:28:12.082Z</time>
</trkpt>
<trkpt lat="31.6608000" lon="34.9774900">
<ele>406.920013</ele>
<time>2024-02-29T08:28:12.082Z</time>
</trkpt>
<trkpt lat="31.6607400" lon="34.9775800">
<ele>407.670013</ele>
<time>2024-02-29T08:28:12.082Z</time>
</trkpt>
<trkpt lat="31.6607100" lon="34.9776100">
<ele>407.970001</ele>
<time>2024-02-29T08:28:12.082Z</time>
</trkpt>
<trkpt lat="31.6607100" lon="34.9776100">
<ele>407.970001</ele>
<time>2024-02-29T08:28:12.082Z</time>
</trkpt>
<trkpt lat="31.6606800" lon="34.9776300">
<ele>408.190002</ele>
<time>2024-02-29T08:28:12.082Z</time>
</trkpt>
<trkpt lat="31.6605100" lon="34.9777000">
<ele>408.460022</ele>
<time>2024-02-29T08:28:12.082Z</time>
</trkpt>
<trkpt lat="31.6604700" lon="34.9777700">
<ele>408.679993</ele>
<time>2024-02-29T08:28:12.082Z</time>
</trkpt>
<trkpt lat="31.6603800" lon="34.9779400">
<ele>408.269989</ele>
<time>2024-02-29T08:28:12.082Z</time>
</trkpt>
<trkpt lat="31.6602600" lon="34.9781000">
<ele>406.179993</ele>
<time>2024-02-29T08:28:12.082Z</time>
</trkpt>
<trkpt lat="31.6601700" lon="34.9782600">
<ele>402.709991</ele>
<time>2024-02-29T08:28:12.082Z</time>
</trkpt>
<trkpt lat="31.6601300" lon="34.9787100">
<ele>404.980011</ele>
<time>2024-02-29T08:28:12.082Z</time>
</trkpt>
<trkpt lat="31.6601300" lon="34.9788400">
<ele>407.130005</ele>
<time>2024-02-29T08:28:12.082Z</time>
</trkpt>
<trkpt lat="31.6601100" lon="34.9789700">
<ele>408.429993</ele>
<time>2024-02-29T08:28:12.082Z</time>
</trkpt>
<trkpt lat="31.6600900" lon="34.9790300">
<ele>408.649994</ele>
<time>2024-02-29T08:28:12.082Z</time>
</trkpt>
<trkpt lat="31.6600900" lon="34.9791800">
<ele>409.720001</ele>
<time>2024-02-29T08:28:12.082Z</time>
</trkpt>
<trkpt lat="31.6600400" lon="34.9793100">
<ele>409.749969</ele>
<time>2024-02-29T08:28:12.082Z</time>
</trkpt>
<trkpt lat="31.6599600" lon="34.9795500">
<ele>410.239990</ele>
<time>2024-02-29T08:28:12.082Z</time>
</trkpt>
<trkpt lat="31.6598900" lon="34.9796300">
<ele>410.269989</ele>
<time>2024-02-29T08:28:12.082Z</time>
</trkpt>
<trkpt lat="31.6597900" lon="34.9796700">
<ele>410.059998</ele>
<time>2024-02-29T08:28:12.082Z</time>
</trkpt>
<trkpt lat="31.6597400" lon="34.9797000">
<ele>409.980011</ele>
<time>2024-02-29T08:28:12.082Z</time>
</trkpt>
<trkpt lat="31.6596600" lon="34.9797400">
<ele>409.789978</ele>
<time>2024-02-29T08:28:12.082Z</time>
</trkpt>
<trkpt lat="31.6594900" lon="34.9797800">
<ele>409.339996</ele>
<time>2024-02-29T08:28:12.082Z</time>
</trkpt>
<trkpt lat="31.6592900" lon="34.9797700">
<ele>410.190002</ele>
<time>2024-02-29T08:28:12.082Z</time>
</trkpt>
<trkpt lat="31.6590300" lon="34.9800200">
<ele>411.490021</ele>
<time>2024-02-29T08:28:12.082Z</time>
</trkpt>
<trkpt lat="31.6589900" lon="34.9800800">
<ele>411.639984</ele>
<time>2024-02-29T08:28:12.082Z</time>
</trkpt>
<trkpt lat="31.6589600" lon="34.9801600">
<ele>411.739990</ele>
<time>2024-02-29T08:28:12.082Z</time>
</trkpt>
<trkpt lat="31.6589300" lon="34.9804100">
<ele>411.710022</ele>
<time>2024-02-29T08:28:12.082Z</time>
</trkpt>
<trkpt lat="31.6589300" lon="34.9804100">
<ele>411.710022</ele>
<time>2024-02-29T08:28:12.082Z</time>
</trkpt>
<trkpt lat="31.6588900" lon="34.9805800">
<ele>411.809998</ele>
<time>2024-02-29T08:28:12.082Z</time>
</trkpt>
<trkpt lat="31.6588900" lon="34.9808100">
<ele>410.160004</ele>
<time>2024-02-29T08:28:12.082Z</time>
</trkpt>
<trkpt lat="31.6590000" lon="34.9812100">
<ele>406.589996</ele>
<time>2024-02-29T08:28:12.082Z</time>
</trkpt>
<trkpt lat="31.6590100" lon="34.9813200">
<ele>406.270020</ele>
<time>2024-02-29T08:28:12.082Z</time>
</trkpt>
<trkpt lat="31.6590100" lon="34.9815400">
<ele>406.369995</ele>
<time>2024-02-29T08:28:12.082Z</time>
</trkpt>
<trkpt lat="31.6589700" lon="34.9816900">
<ele>406.850006</ele>
<time>2024-02-29T08:28:12.082Z</time>
</trkpt>
<trkpt lat="31.6589700" lon="34.9817800">
<ele>407.399994</ele>
<time>2024-02-29T08:28:12.082Z</time>
</trkpt>
<trkpt lat="31.6590700" lon="34.9819700">
<ele>407.940002</ele>
<time>2024-02-29T08:28:12.082Z</time>
</trkpt>
<trkpt lat="31.6591300" lon="34.9821500">
<ele>408.940002</ele>
<time>2024-02-29T08:28:12.082Z</time>
</trkpt>
<trkpt lat="31.6591200" lon="34.9822200">
<ele>409.650024</ele>
<time>2024-02-29T08:28:12.082Z</time>
</trkpt>
<trkpt lat="31.6590400" lon="34.9824400">
<ele>412.390015</ele>
<time>2024-02-29T08:28:12.082Z</time>
</trkpt>
<trkpt lat="31.6590300" lon="34.9825200">
<ele>412.889984</ele>
<time>2024-02-29T08:28:12.082Z</time>
</trkpt>
<trkpt lat="31.6590500" lon="34.9826200">
<ele>412.180023</ele>
<time>2024-02-29T08:28:12.082Z</time>
</trkpt>
<trkpt lat="31.6591500" lon="34.9827900">
<ele>409.440002</ele>
<time>2024-02-29T08:28:12.082Z</time>
</trkpt>
<trkpt lat="31.6592400" lon="34.9830100">
<ele>410.100006</ele>
<time>2024-02-29T08:28:12.082Z</time>
</trkpt>
<trkpt lat="31.6592400" lon="34.9830700">
<ele>410.600006</ele>
<time>2024-02-29T08:28:12.082Z</time>
</trkpt>
<trkpt lat="31.6591800" lon="34.9832600">
<ele>412.449982</ele>
<time>2024-02-29T08:28:12.082Z</time>
</trkpt>
<trkpt lat="31.6591000" lon="34.9834200">
<ele>414.429993</ele>
<time>2024-02-29T08:28:12.082Z</time>
</trkpt>
<trkpt lat="31.6590800" lon="34.9834800">
<ele>414.969971</ele>
<time>2024-02-29T08:28:12.082Z</time>
</trkpt>
<trkpt lat="31.6591000" lon="34.9835600">
<ele>415.199982</ele>
<time>2024-02-29T08:28:12.082Z</time>
</trkpt>
<trkpt lat="31.6592200" lon="34.9838900">
<ele>414.199982</ele>
<time>2024-02-29T08:28:12.082Z</time>
</trkpt>
<trkpt lat="31.6592600" lon="34.9840400">
<ele>415.239990</ele>
<time>2024-02-29T08:28:12.082Z</time>
</trkpt>
<trkpt lat="31.6592900" lon="34.9841700">
<ele>415.990021</ele>
<time>2024-02-29T08:28:12.082Z</time>
</trkpt>
<trkpt lat="31.6593500" lon="34.9843200">
<ele>415.809998</ele>
<time>2024-02-29T08:28:12.082Z</time>
</trkpt>
<trkpt lat="31.6593700" lon="34.9844700">
<ele>415.500000</ele>
<time>2024-02-29T08:28:12.082Z</time>
</trkpt>
<trkpt lat="31.6594000" lon="34.9845400">
<ele>415.040009</ele>
<time>2024-02-29T08:28:12.082Z</time>
</trkpt>
<trkpt lat="31.6595500" lon="34.9846500">
<ele>412.820007</ele>
<time>2024-02-29T08:28:12.082Z</time>
</trkpt>
<trkpt lat="31.6596600" lon="34.9847400">
<ele>409.850006</ele>
<time>2024-02-29T08:28:12.082Z</time>
</trkpt>
<trkpt lat="31.6597200" lon="34.9848200">
<ele>407.630005</ele>
<time>2024-02-29T08:28:12.082Z</time>
</trkpt>
<trkpt lat="31.6598200" lon="34.9850200">
<ele>404.809998</ele>
<time>2024-02-29T08:28:12.082Z</time>
</trkpt>
<trkpt lat="31.6598300" lon="34.9851000">
<ele>404.059998</ele>
<time>2024-02-29T08:28:12.082Z</time>
</trkpt>
<trkpt lat="31.6598100" lon="34.9852000">
<ele>403.069977</ele>
<time>2024-02-29T08:28:12.082Z</time>
</trkpt>
<trkpt lat="31.6597700" lon="34.9852600">
<ele>402.349976</ele>
<time>2024-02-29T08:28:12.082Z</time>
</trkpt>
<trkpt lat="31.6596100" lon="34.9853400">
<ele>402.309998</ele>
<time>2024-02-29T08:28:12.082Z</time>
</trkpt>
<trkpt lat="31.6595000" lon="34.9855000">
<ele>400.880005</ele>
<time>2024-02-29T08:28:12.082Z</time>
</trkpt>
<trkpt lat="31.6594200" lon="34.9855700">
<ele>399.660004</ele>
<time>2024-02-29T08:28:12.082Z</time>
</trkpt>
<trkpt lat="31.6593400" lon="34.9856000">
<ele>398.650024</ele>
<time>2024-02-29T08:28:12.082Z</time>
</trkpt>
<trkpt lat="31.6592100" lon="34.9856100">
<ele>397.389984</ele>
<time>2024-02-29T08:28:12.082Z</time>
</trkpt>
<trkpt lat="31.6590600" lon="34.9855700">
<ele>397.379974</ele>
<time>2024-02-29T08:28:12.082Z</time>
</trkpt>
<trkpt lat="31.6587200" lon="34.9856100">
<ele>395.600006</ele>
<time>2024-02-29T08:28:12.082Z</time>
</trkpt>
<trkpt lat="31.6586200" lon="34.9856400">
<ele>395.319977</ele>
<time>2024-02-29T08:28:12.082Z</time>
</trkpt>
<trkpt lat="31.6585600" lon="34.9857100">
<ele>395.350006</ele>
<time>2024-02-29T08:28:12.082Z</time>
</trkpt>
<trkpt lat="31.6584800" lon="34.9858500">
<ele>394.760010</ele>
<time>2024-02-29T08:28:12.082Z</time>
</trkpt>
<trkpt lat="31.6584200" lon="34.9859100">
<ele>393.239990</ele>
<time>2024-02-29T08:28:12.082Z</time>
</trkpt>
<trkpt lat="31.6581600" lon="34.9861200">
<ele>387.019989</ele>
<time>2024-02-29T08:28:12.082Z</time>
</trkpt>
<trkpt lat="31.6579500" lon="34.9862600">
<ele>384.750000</ele>
<time>2024-02-29T08:28:12.082Z</time>
</trkpt>
<trkpt lat="31.6578300" lon="34.9863600">
<ele>384.119995</ele>
<time>2024-02-29T08:28:12.082Z</time>
</trkpt>
<trkpt lat="31.6576200" lon="34.9866800">
<ele>379.369995</ele>
<time>2024-02-29T08:28:12.082Z</time>
</trkpt>
<trkpt lat="31.6574100" lon="34.9868200">
<ele>379.829987</ele>
<time>2024-02-29T08:28:12.082Z</time>
</trkpt>
<trkpt lat="31.6569900" lon="34.9871700">
<ele>387.470001</ele>
<time>2024-02-29T08:28:12.082Z</time>
</trkpt>
<trkpt lat="31.6568400" lon="34.9872400">
<ele>388.839996</ele>
<time>2024-02-29T08:28:12.082Z</time>
</trkpt>
<trkpt lat="31.6566500" lon="34.9872100">
<ele>387.799988</ele>
<time>2024-02-29T08:28:12.082Z</time>
</trkpt>
<trkpt lat="31.6565600" lon="34.9872300">
<ele>388.440002</ele>
<time>2024-02-29T08:28:12.082Z</time>
</trkpt>
<trkpt lat="31.6564600" lon="34.9872800">
<ele>388.800018</ele>
<time>2024-02-29T08:28:12.082Z</time>
</trkpt>
<trkpt lat="31.6564600" lon="34.9872800">
<ele>388.800018</ele>
<time>2024-02-29T08:28:12.082Z</time>
</trkpt>
<trkpt lat="31.6563600" lon="34.9873200">
<ele>388.510010</ele>
<time>2024-02-29T08:28:12.082Z</time>
</trkpt>
<trkpt lat="31.6561300" lon="34.9873200">
<ele>387.440002</ele>
<time>2024-02-29T08:28:12.082Z</time>
</trkpt>
<trkpt lat="31.6560800" lon="34.9873500">
<ele>386.989990</ele>
<time>2024-02-29T08:28:12.082Z</time>
</trkpt>
<trkpt lat="31.6560100" lon="34.9874300">
<ele>386.649994</ele>
<time>2024-02-29T08:28:12.082Z</time>
</trkpt>
<trkpt lat="31.6556100" lon="34.9880000">
<ele>387.699982</ele>
<time>2024-02-29T08:28:12.082Z</time>
</trkpt>
<trkpt lat="31.6555300" lon="34.9881900">
<ele>388.129974</ele>
<time>2024-02-29T08:28:12.082Z</time>
</trkpt>
<trkpt lat="31.6554200" lon="34.9884100">
<ele>388.470032</ele>
<time>2024-02-29T08:28:12.082Z</time>
</trkpt>
<trkpt lat="31.6553800" lon="34.9885700">
<ele>388.640015</ele>
<time>2024-02-29T08:28:12.082Z</time>
</trkpt>
<trkpt lat="31.6552400" lon="34.9888800">
<ele>389.499969</ele>
<time>2024-02-29T08:28:12.082Z</time>
</trkpt>
<trkpt lat="31.6548600" lon="34.9897000">
<ele>388.859985</ele>
<time>2024-02-29T08:28:12.082Z</time>
</trkpt>
<trkpt lat="31.6547200" lon="34.9898400">
<ele>387.410004</ele>
<time>2024-02-29T08:28:12.082Z</time>
</trkpt>
<trkpt lat="31.6545300" lon="34.9899500">
<ele>385.989990</ele>
<time>2024-02-29T08:28:12.082Z</time>
</trkpt>
<trkpt lat="31.6542400" lon="34.9903200">
<ele>386.859985</ele>
<time>2024-02-29T08:28:12.082Z</time>
</trkpt>
<trkpt lat="31.6541100" lon="34.9904000">
<ele>386.800018</ele>
<time>2024-02-29T08:28:12.082Z</time>
</trkpt>
<trkpt lat="31.6538600" lon="34.9905900">
<ele>385.819977</ele>
<time>2024-02-29T08:28:12.082Z</time>
</trkpt>
<trkpt lat="31.6538000" lon="34.9906500">
<ele>385.579987</ele>
<time>2024-02-29T08:28:12.082Z</time>
</trkpt>
<trkpt lat="31.6537500" lon="34.9907300">
<ele>385.630005</ele>
<time>2024-02-29T08:28:12.082Z</time>
</trkpt>
<trkpt lat="31.6537500" lon="34.9907300">
<ele>385.630005</ele>
<time>2024-02-29T08:28:12.082Z</time>
</trkpt>
<trkpt lat="31.6533500" lon="34.9913500">
<ele>387.659973</ele>
<time>2024-02-29T08:28:12.082Z</time>
</trkpt>
<trkpt lat="31.6533000" lon="34.9914900">
<ele>389.410004</ele>
<time>2024-02-29T08:28:12.082Z</time>
</trkpt>
<trkpt lat="31.6532500" lon="34.9915400">
<ele>390.010010</ele>
<time>2024-02-29T08:28:12.082Z</time>
</trkpt>
<trkpt lat="31.6531500" lon="34.9915400">
<ele>389.820007</ele>
<time>2024-02-29T08:28:12.082Z</time>
</trkpt>
<trkpt lat="31.6530200" lon="34.9914800">
<ele>389.069977</ele>
<time>2024-02-29T08:28:12.082Z</time>
</trkpt>
<trkpt lat="31.6529600" lon="34.9914600">
<ele>389.020020</ele>
<time>2024-02-29T08:28:12.082Z</time>
</trkpt>
<trkpt lat="31.6529300" lon="34.9914400">
<ele>388.920013</ele>
<time>2024-02-29T08:28:12.082Z</time>
</trkpt>
<trkpt lat="31.6528600" lon="34.9914200">
<ele>388.959991</ele>
<time>2024-02-29T08:28:12.082Z</time>
</trkpt>
<trkpt lat="31.6527800" lon="34.9912700">
<ele>387.709991</ele>
<time>2024-02-29T08:28:12.082Z</time>
</trkpt>
<trkpt lat="31.6526100" lon="34.9910100">
<ele>386.620026</ele>
<time>2024-02-29T08:28:12.082Z</time>
</trkpt>
<trkpt lat="31.6525100" lon="34.9915300">
<ele>390.980011</ele>
<time>2024-02-29T08:28:12.082Z</time>
</trkpt>
<trkpt lat="31.6519800" lon="34.9916900">
<ele>397.240021</ele>
<time>2024-02-29T08:28:12.082Z</time>
</trkpt>
<trkpt lat="31.6518100" lon="34.9918800">
<ele>397.739990</ele>
<time>2024-02-29T08:28:12.082Z</time>
</trkpt>
<trkpt lat="31.6518300" lon="34.9924500">
<ele>401.369995</ele>
<time>2024-02-29T08:28:12.082Z</time>
</trkpt>
<trkpt lat="31.6520100" lon="34.9930400">
<ele>404.890015</ele>
<time>2024-02-29T08:28:12.082Z</time>
</trkpt>
<trkpt lat="31.6519800" lon="34.9931900">
<ele>407.489990</ele>
<time>2024-02-29T08:28:12.082Z</time>
</trkpt>
<trkpt lat="31.6521500" lon="34.9940200">
<ele>410.040009</ele>
<time>2024-02-29T08:28:12.082Z</time>
</trkpt>
<trkpt lat="31.6522000" lon="34.9942000">
<ele>409.429993</ele>
<time>2024-02-29T08:28:12.082Z</time>
</trkpt>
<trkpt lat="31.6521900" lon="34.9944800">
<ele>410.619995</ele>
<time>2024-02-29T08:28:12.082Z</time>
</trkpt>
<trkpt lat="31.6521900" lon="34.9945400">
<ele>411.079987</ele>
<time>2024-02-29T08:28:12.082Z</time>
</trkpt>
<trkpt lat="31.6522800" lon="34.9947600">
<ele>411.480011</ele>
<time>2024-02-29T08:28:12.082Z</time>
</trkpt>
<trkpt lat="31.6523100" lon="34.9951000">
<ele>414.940002</ele>
<time>2024-02-29T08:28:12.082Z</time>
</trkpt>
<trkpt lat="31.6522300" lon="34.9952600">
<ele>417.730011</ele>
<time>2024-02-29T08:28:12.082Z</time>
</trkpt>
<trkpt lat="31.6521900" lon="34.9956000">
<ele>417.839996</ele>
<time>2024-02-29T08:28:12.082Z</time>
</trkpt>
<trkpt lat="31.6522200" lon="34.9958100">
<ele>417.079987</ele>
<time>2024-02-29T08:28:12.082Z</time>
</trkpt>
<trkpt lat="31.6519600" lon="34.9961000">
<ele>412.999969</ele>
<time>2024-02-29T08:28:12.082Z</time>
</trkpt>
<trkpt lat="31.6519000" lon="34.9961900">
<ele>411.800018</ele>
<time>2024-02-29T08:28:12.082Z</time>
</trkpt>
<trkpt lat="31.6516800" lon="34.9962600">
<ele>413.729980</ele>
<time>2024-02-29T08:28:12.082Z</time>
</trkpt>
<trkpt lat="31.6514100" lon="34.9965100">
<ele>415.890015</ele>
<time>2024-02-29T08:28:12.082Z</time>
</trkpt>
<trkpt lat="31.6512500" lon="34.9965400">
<ele>417.010010</ele>
<time>2024-02-29T08:28:12.082Z</time>
</trkpt>
<trkpt lat="31.6511100" lon="34.9966600">
<ele>416.110016</ele>
<time>2024-02-29T08:28:12.082Z</time>
</trkpt>
<trkpt lat="31.6509900" lon="34.9966500">
<ele>414.989990</ele>
<time>2024-02-29T08:28:12.082Z</time>
</trkpt>
<trkpt lat="31.6508400" lon="34.9967700">
<ele>411.200012</ele>
<time>2024-02-29T08:28:12.082Z</time>
</trkpt>
<trkpt lat="31.6507300" lon="34.9967800">
<ele>410.810028</ele>
<time>2024-02-29T08:28:12.082Z</time>
</trkpt>
<trkpt lat="31.6505700" lon="34.9968800">
<ele>408.429993</ele>
<time>2024-02-29T08:28:12.082Z</time>
</trkpt>
<trkpt lat="31.6504200" lon="34.9968700">
<ele>408.609985</ele>
<time>2024-02-29T08:28:12.082Z</time>
</trkpt>
<trkpt lat="31.6502900" lon="34.9968900">
<ele>408.179993</ele>
<time>2024-02-29T08:28:12.082Z</time>
</trkpt>
<trkpt lat="31.6501600" lon="34.9968400">
<ele>407.139984</ele>
<time>2024-02-29T08:28:12.082Z</time>
</trkpt>
<trkpt lat="31.6499700" lon="34.9968100">
<ele>404.529999</ele>
<time>2024-02-29T08:28:12.082Z</time>
</trkpt>
<trkpt lat="31.6498400" lon="34.9967400">
<ele>404.260010</ele>
<time>2024-02-29T08:28:12.082Z</time>
</trkpt>
<trkpt lat="31.6498000" lon="34.9968000">
<ele>402.590027</ele>
<time>2024-02-29T08:28:12.082Z</time>
</trkpt>
<trkpt lat="31.6501600" lon="34.9971400">
<ele>398.630005</ele>
<time>2024-02-29T08:28:12.082Z</time>
</trkpt>
<trkpt lat="31.6501100" lon="34.9971800">
<ele>397.209991</ele>
<time>2024-02-29T08:28:12.082Z</time>
</trkpt>
<trkpt lat="31.6498600" lon="34.9970400">
<ele>398.769989</ele>
<time>2024-02-29T08:28:12.082Z</time>
</trkpt>
<trkpt lat="31.6498600" lon="34.9970400">
<ele>398.769989</ele>
<time>2024-02-29T08:28:12.082Z</time>
</trkpt>
<trkpt lat="31.6498000" lon="34.9970100">
<ele>398.760010</ele>
<time>2024-02-29T08:28:12.082Z</time>
</trkpt>
<trkpt lat="31.6497500" lon="34.9970100">
<ele>398.310028</ele>
<time>2024-02-29T08:28:12.082Z</time>
</trkpt>
<trkpt lat="31.6497700" lon="34.9971400">
<ele>396.459991</ele>
<time>2024-02-29T08:28:12.082Z</time>
</trkpt>
<trkpt lat="31.6497300" lon="34.9973100">
<ele>394.059998</ele>
<time>2024-02-29T08:28:12.082Z</time>
</trkpt>
<trkpt lat="31.6497500" lon="34.9974500">
<ele>392.480011</ele>
<time>2024-02-29T08:28:12.082Z</time>
</trkpt>
<trkpt lat="31.6497800" lon="34.9975600">
<ele>390.760010</ele>
<time>2024-02-29T08:28:12.082Z</time>
</trkpt>
<trkpt lat="31.6497300" lon="34.9979300">
<ele>384.820007</ele>
<time>2024-02-29T08:28:12.082Z</time>
</trkpt>
<trkpt lat="31.6497500" lon="34.9980800">
<ele>382.839996</ele>
<time>2024-02-29T08:28:12.082Z</time>
</trkpt>
<trkpt lat="31.6497000" lon="34.9985600">
<ele>378.989990</ele>
<time>2024-02-29T08:28:12.082Z</time>
</trkpt>
<trkpt lat="31.6497100" lon="34.9986200">
<ele>378.950012</ele>
<time>2024-02-29T08:28:12.082Z</time>
</trkpt>
<trkpt lat="31.6497800" lon="34.9987400">
<ele>379.560028</ele>
<time>2024-02-29T08:28:12.082Z</time>
</trkpt>
<trkpt lat="31.6498600" lon="34.9987900">
<ele>379.959991</ele>
<time>2024-02-29T08:28:12.082Z</time>
</trkpt>
<trkpt lat="31.6500100" lon="34.9988600">
<ele>380.720032</ele>
<time>2024-02-29T08:28:12.082Z</time>
</trkpt>
<trkpt lat="31.6503300" lon="34.9988700">
<ele>378.270020</ele>
<time>2024-02-29T08:28:12.082Z</time>
</trkpt>
<trkpt lat="31.6504700" lon="34.9988900">
<ele>376.959991</ele>
<time>2024-02-29T08:28:12.082Z</time>
</trkpt>
<trkpt lat="31.6506800" lon="34.9989700">
<ele>380.139984</ele>
<time>2024-02-29T08:28:12.082Z</time>
</trkpt>
<trkpt lat="31.6509000" lon="34.9991100">
<ele>380.259979</ele>
<time>2024-02-29T08:28:12.082Z</time>
</trkpt>
<trkpt lat="31.6511400" lon="34.9992100">
<ele>375.940002</ele>
<time>2024-02-29T08:28:12.082Z</time>
</trkpt>
<trkpt lat="31.6513100" lon="34.9992700">
<ele>377.489990</ele>
<time>2024-02-29T08:28:12.082Z</time>
</trkpt>
<trkpt lat="31.6517800" lon="34.9993400">
<ele>384.640015</ele>
<time>2024-02-29T08:28:12.082Z</time>
</trkpt>
<trkpt lat="31.6520600" lon="34.9994300">
<ele>387.260010</ele>
<time>2024-02-29T08:28:12.082Z</time>
</trkpt>
<trkpt lat="31.6521400" lon="34.9994900">
<ele>387.220001</ele>
<time>2024-02-29T08:28:12.082Z</time>
</trkpt>
<trkpt lat="31.6522400" lon="34.9995500">
<ele>387.440002</ele>
<time>2024-02-29T08:28:12.082Z</time>
</trkpt>
<trkpt lat="31.6528100" lon="35.0001400">
<ele>383.889984</ele>
<time>2024-02-29T08:28:12.082Z</time>
</trkpt>
<trkpt lat="31.6528600" lon="35.0002000">
<ele>381.940002</ele>
<time>2024-02-29T08:28:12.082Z</time>
</trkpt>
<trkpt lat="31.6529000" lon="35.0003200">
<ele>380.500000</ele>
<time>2024-02-29T08:28:12.082Z</time>
</trkpt>
<trkpt lat="31.6529800" lon="35.0006900">
<ele>377.980011</ele>
<time>2024-02-29T08:28:12.082Z</time>
</trkpt>
<trkpt lat="31.6529900" lon="35.0008200">
<ele>377.810028</ele>
<time>2024-02-29T08:28:12.082Z</time>
</trkpt>
<trkpt lat="31.6529200" lon="35.0015000">
<ele>382.200012</ele>
<time>2024-02-29T08:28:12.082Z</time>
</trkpt>
<trkpt lat="31.6529200" lon="35.0015000">
<ele>382.200012</ele>
<time>2024-02-29T08:28:12.082Z</time>
</trkpt>
<trkpt lat="31.6529000" lon="35.0016600">
<ele>382.489990</ele>
<time>2024-02-29T08:28:12.082Z</time>
</trkpt>
<trkpt lat="31.6528500" lon="35.0019100">
<ele>381.100006</ele>
<time>2024-02-29T08:28:12.082Z</time>
</trkpt>
<trkpt lat="31.6527900" lon="35.0020600">
<ele>380.570007</ele>
<time>2024-02-29T08:28:12.082Z</time>
</trkpt>
<trkpt lat="31.6526900" lon="35.0022400">
<ele>381.040009</ele>
<time>2024-02-29T08:28:12.082Z</time>
</trkpt>
<trkpt lat="31.6526400" lon="35.0023000">
<ele>381.629974</ele>
<time>2024-02-29T08:28:12.082Z</time>
</trkpt>
<trkpt lat="31.6525200" lon="35.0024600">
<ele>382.200012</ele>
<time>2024-02-29T08:28:12.082Z</time>
</trkpt>
<trkpt lat="31.6522700" lon="35.0027500">
<ele>384.279999</ele>
<time>2024-02-29T08:28:12.082Z</time>
</trkpt>
<trkpt lat="31.6520200" lon="35.0029900">
<ele>387.589996</ele>
<time>2024-02-29T08:28:12.082Z</time>
</trkpt>
<trkpt lat="31.6518200" lon="35.0031100">
<ele>391.290009</ele>
<time>2024-02-29T08:28:12.082Z</time>
</trkpt>
<trkpt lat="31.6516200" lon="35.0031900">
<ele>394.760010</ele>
<time>2024-02-29T08:28:12.082Z</time>
</trkpt>
<trkpt lat="31.6515100" lon="35.0031800">
<ele>396.510010</ele>
<time>2024-02-29T08:28:12.082Z</time>
</trkpt>
<trkpt lat="31.6514800" lon="35.0031600">
<ele>397.269989</ele>
<time>2024-02-29T08:28:12.082Z</time>
</trkpt>
<trkpt lat="31.6514100" lon="35.0030700">
<ele>399.559998</ele>
<time>2024-02-29T08:28:12.082Z</time>
</trkpt>
<trkpt lat="31.6514000" lon="35.0029800">
<ele>402.299988</ele>
<time>2024-02-29T08:28:12.082Z</time>
</trkpt>
<trkpt lat="31.6514500" lon="35.0028700">
<ele>404.909973</ele>
<time>2024-02-29T08:28:12.082Z</time>
</trkpt>
<trkpt lat="31.6517200" lon="35.0023600">
<ele>410.070007</ele>
<time>2024-02-29T08:28:12.082Z</time>
</trkpt>
<trkpt lat="31.6519400" lon="35.0019800">
<ele>409.709991</ele>
<time>2024-02-29T08:28:12.082Z</time>
</trkpt>
<trkpt lat="31.6519900" lon="35.0018600">
<ele>409.530029</ele>
<time>2024-02-29T08:28:12.082Z</time>
</trkpt>
<trkpt lat="31.6520100" lon="35.0017400">
<ele>410.410004</ele>
<time>2024-02-29T08:28:12.082Z</time>
</trkpt>
<trkpt lat="31.6519900" lon="35.0016100">
<ele>412.950012</ele>
<time>2024-02-29T08:28:12.082Z</time>
</trkpt>
<trkpt lat="31.6519300" lon="35.0014600">
<ele>417.409973</ele>
<time>2024-02-29T08:28:12.082Z</time>
</trkpt>
<trkpt lat="31.6518600" lon="35.0013200">
<ele>420.549988</ele>
<time>2024-02-29T08:28:12.082Z</time>
</trkpt>
<trkpt lat="31.6518000" lon="35.0012600">
<ele>421.880005</ele>
<time>2024-02-29T08:28:12.082Z</time>
</trkpt>
<trkpt lat="31.6514400" lon="35.0010700">
<ele>427.529999</ele>
<time>2024-02-29T08:28:12.082Z</time>
</trkpt>
<trkpt lat="31.6513400" lon="35.0010400">
<ele>427.829987</ele>
<time>2024-02-29T08:28:12.082Z</time>
</trkpt>
<trkpt lat="31.6512300" lon="35.0010400">
<ele>426.940002</ele>
<time>2024-02-29T08:28:12.082Z</time>
</trkpt>
<trkpt lat="31.6511300" lon="35.0010900">
<ele>426.839996</ele>
<time>2024-02-29T08:28:12.082Z</time>
</trkpt>
<trkpt lat="31.6510800" lon="35.0011400">
<ele>428.089996</ele>
<time>2024-02-29T08:28:12.082Z</time>
</trkpt>
<trkpt lat="31.6510400" lon="35.0012100">
<ele>430.149994</ele>
<time>2024-02-29T08:28:12.082Z</time>
</trkpt>
<trkpt lat="31.6509600" lon="35.0014500">
<ele>435.779999</ele>
<time>2024-02-29T08:28:12.082Z</time>
</trkpt>
<trkpt lat="31.6508900" lon="35.0016200">
<ele>438.120026</ele>
<time>2024-02-29T08:28:12.082Z</time>
</trkpt>
<trkpt lat="31.6508900" lon="35.0016200">
<ele>438.120026</ele>
<time>2024-02-29T08:28:12.082Z</time>
</trkpt>
<trkpt lat="31.6508800" lon="35.0016400">
<ele>438.349976</ele>
<time>2024-02-29T08:28:12.082Z</time>
</trkpt>
<trkpt lat="31.6508100" lon="35.0017400">
<ele>438.429993</ele>
<time>2024-02-29T08:28:12.082Z</time>
</trkpt>
<trkpt lat="31.6507200" lon="35.0018000">
<ele>438.019989</ele>
<time>2024-02-29T08:28:12.082Z</time>
</trkpt>
<trkpt lat="31.6506500" lon="35.0018100">
<ele>437.990021</ele>
<time>2024-02-29T08:28:12.082Z</time>
</trkpt>
<trkpt lat="31.6504000" lon="35.0017400">
<ele>437.879974</ele>
<time>2024-02-29T08:28:12.082Z</time>
</trkpt>
<trkpt lat="31.6503300" lon="35.0017400">
<ele>437.829987</ele>
<time>2024-02-29T08:28:12.082Z</time>
</trkpt>
<trkpt lat="31.6503000" lon="35.0017600">
<ele>438.009979</ele>
<time>2024-02-29T08:28:12.082Z</time>
</trkpt>
<trkpt lat="31.6502600" lon="35.0018300">
<ele>438.729980</ele>
<time>2024-02-29T08:28:12.082Z</time>
</trkpt>
<trkpt lat="31.6502000" lon="35.0020300">
<ele>439.859985</ele>
<time>2024-02-29T08:28:12.082Z</time>
</trkpt>
<trkpt lat="31.6502200" lon="35.0021700">
<ele>440.269989</ele>
<time>2024-02-29T08:28:12.082Z</time>
</trkpt>
<trkpt lat="31.6503700" lon="35.0023500">
<ele>438.009979</ele>
<time>2024-02-29T08:28:12.082Z</time>
</trkpt>
<trkpt lat="31.6502200" lon="35.0021700">
<ele>440.269989</ele>
<time>2024-02-29T08:28:12.082Z</time>
</trkpt>
<trkpt lat="31.6502000" lon="35.0020300">
<ele>439.859985</ele>
<time>2024-02-29T08:28:12.082Z</time>
</trkpt>
<trkpt lat="31.6501500" lon="35.0020400">
<ele>439.570007</ele>
<time>2024-02-29T08:28:12.082Z</time>
</trkpt>
<trkpt lat="31.6499600" lon="35.0020200">
<ele>438.259979</ele>
<time>2024-02-29T08:28:12.082Z</time>
</trkpt>
<trkpt lat="31.6496000" lon="35.0019900">
<ele>434.860016</ele>
<time>2024-02-29T08:28:12.082Z</time>
</trkpt>
<trkpt lat="31.6496000" lon="35.0019900">
<ele>434.860016</ele>
<time>2024-02-29T08:28:12.082Z</time>
</trkpt>
<trkpt lat="31.6496000" lon="35.0019900">
<ele>434.860016</ele>
<time>2024-02-29T08:28:12.082Z</time>
</trkpt>
<trkpt lat="31.6495800" lon="35.0019800">
<ele>434.789978</ele>
<time>2024-02-29T08:28:12.082Z</time>
</trkpt>
<trkpt lat="31.6494700" lon="35.0019500">
<ele>434.160004</ele>
<time>2024-02-29T08:28:12.082Z</time>
</trkpt>
<trkpt lat="31.6494100" lon="35.0019200">
<ele>433.429993</ele>
<time>2024-02-29T08:28:12.082Z</time>
</trkpt>
<trkpt lat="31.6493300" lon="35.0019100">
<ele>432.279999</ele>
<time>2024-02-29T08:28:12.082Z</time>
</trkpt>
<trkpt lat="31.6492500" lon="35.0019600">
<ele>431.179993</ele>
<time>2024-02-29T08:28:12.082Z</time>
</trkpt>
<trkpt lat="31.6491900" lon="35.0020000">
<ele>430.320007</ele>
<time>2024-02-29T08:28:12.082Z</time>
</trkpt>
<trkpt lat="31.6491400" lon="35.0020800">
<ele>429.470001</ele>
<time>2024-02-29T08:28:12.082Z</time>
</trkpt>
<trkpt lat="31.6490600" lon="35.0023400">
<ele>428.179993</ele>
<time>2024-02-29T08:28:12.082Z</time>
</trkpt>
<trkpt lat="31.6490400" lon="35.0024800">
<ele>428.529999</ele>
<time>2024-02-29T08:28:12.082Z</time>
</trkpt>
<trkpt lat="31.6490300" lon="35.0025400">
<ele>428.669983</ele>
<time>2024-02-29T08:28:12.082Z</time>
</trkpt>
<trkpt lat="31.6489600" lon="35.0025400">
<ele>427.980011</ele>
<time>2024-02-29T08:28:12.082Z</time>
</trkpt>
<trkpt lat="31.6489400" lon="35.0025200">
<ele>427.670013</ele>
<time>2024-02-29T08:28:12.082Z</time>
</trkpt>
<trkpt lat="31.6489400" lon="35.0025200">
<ele>427.670013</ele>
<time>2024-02-29T08:28:12.082Z</time>
</trkpt>
<trkpt lat="31.6489100" lon="35.0025000">
<ele>427.230011</ele>
<time>2024-02-29T08:28:12.082Z</time>
</trkpt>
<trkpt lat="31.6489300" lon="35.0024000">
<ele>426.520020</ele>
<time>2024-02-29T08:28:12.082Z</time>
</trkpt>
<trkpt lat="31.6489400" lon="35.0022800">
<ele>425.610016</ele>
<time>2024-02-29T08:28:12.082Z</time>
</trkpt>
<trkpt lat="31.6489400" lon="35.0021700">
<ele>425.260010</ele>
<time>2024-02-29T08:28:12.082Z</time>
</trkpt>
<trkpt lat="31.6489400" lon="35.0021700">
<ele>425.260010</ele>
<time>2024-02-29T08:28:12.082Z</time>
</trkpt>
<trkpt lat="31.6489500" lon="35.0020800">
<ele>425.720001</ele>
<time>2024-02-29T08:28:12.082Z</time>
</trkpt>
<trkpt lat="31.6489400" lon="35.0014700">
<ele>425.660004</ele>
<time>2024-02-29T08:28:12.082Z</time>
</trkpt>
<trkpt lat="31.6489200" lon="35.0013300">
<ele>424.489990</ele>
<time>2024-02-29T08:28:12.082Z</time>
</trkpt>
<trkpt lat="31.6488800" lon="35.0013200">
<ele>423.700012</ele>
<time>2024-02-29T08:28:12.082Z</time>
</trkpt>
<trkpt lat="31.6488200" lon="35.0013900">
<ele>422.519989</ele>
<time>2024-02-29T08:28:12.082Z</time>
</trkpt>
<trkpt lat="31.6488000" lon="35.0015800">
<ele>421.579987</ele>
<time>2024-02-29T08:28:12.082Z</time>
</trkpt>
<trkpt lat="31.6487500" lon="35.0016300">
<ele>419.570007</ele>
<time>2024-02-29T08:28:12.082Z</time>
</trkpt>
<trkpt lat="31.6486900" lon="35.0015900">
<ele>417.320007</ele>
<time>2024-02-29T08:28:12.082Z</time>
</trkpt>
<trkpt lat="31.6486700" lon="35.0015300">
<ele>416.720001</ele>
<time>2024-02-29T08:28:12.082Z</time>
</trkpt>
<trkpt lat="31.6486800" lon="35.0014100">
<ele>417.419983</ele>
<time>2024-02-29T08:28:12.082Z</time>
</trkpt>
<trkpt lat="31.6486800" lon="35.0013900">
<ele>417.480011</ele>
<time>2024-02-29T08:28:12.082Z</time>
</trkpt>
<trkpt lat="31.6486800" lon="35.0013900">
<ele>417.480011</ele>
<time>2024-02-29T08:28:12.082Z</time>
</trkpt>
<trkpt lat="31.6486100" lon="35.0010500">
<ele>412.100006</ele>
<time>2024-02-29T08:28:12.082Z</time>
</trkpt>
<trkpt lat="31.6486000" lon="35.0008700">
<ele>409.360016</ele>
<time>2024-02-29T08:28:12.082Z</time>
</trkpt>
<trkpt lat="31.6485500" lon="35.0007400">
<ele>406.029999</ele>
<time>2024-02-29T08:28:12.082Z</time>
</trkpt>
<trkpt lat="31.6486000" lon="35.0005900">
<ele>403.549988</ele>
<time>2024-02-29T08:28:12.082Z</time>
</trkpt>
<trkpt lat="31.6486100" lon="35.0004100">
<ele>400.360016</ele>
<time>2024-02-29T08:28:12.082Z</time>
</trkpt>
<trkpt lat="31.6491600" lon="34.9997900">
<ele>394.360016</ele>
<time>2024-02-29T08:28:12.082Z</time>
</trkpt>
<trkpt lat="31.6491500" lon="34.9997200">
<ele>391.819977</ele>
<time>2024-02-29T08:28:12.082Z</time>
</trkpt>
<trkpt lat="31.6490900" lon="34.9996900">
<ele>390.550018</ele>
<time>2024-02-29T08:28:12.082Z</time>
</trkpt>
<trkpt lat="31.6490300" lon="34.9996700">
<ele>389.600006</ele>
<time>2024-02-29T08:28:12.082Z</time>
</trkpt>
<trkpt lat="31.6488900" lon="34.9996900">
<ele>389.199982</ele>
<time>2024-02-29T08:28:12.082Z</time>
</trkpt>
<trkpt lat="31.6488200" lon="34.9997500">
<ele>389.059998</ele>
<time>2024-02-29T08:28:12.082Z</time>
</trkpt>
<trkpt lat="31.6487300" lon="34.9997600">
<ele>387.399994</ele>
<time>2024-02-29T08:28:12.082Z</time>
</trkpt>
<trkpt lat="31.6485800" lon="34.9997900">
<ele>385.619995</ele>
<time>2024-02-29T08:28:12.082Z</time>
</trkpt>
<trkpt lat="31.6484700" lon="34.9998300">
<ele>386.410004</ele>
<time>2024-02-29T08:28:12.082Z</time>
</trkpt>
<trkpt lat="31.6484100" lon="34.9999200">
<ele>388.779999</ele>
<time>2024-02-29T08:28:12.082Z</time>
</trkpt>
<trkpt lat="31.6483700" lon="34.9999100">
<ele>388.450012</ele>
<time>2024-02-29T08:28:12.082Z</time>
</trkpt>
<trkpt lat="31.6483600" lon="34.9998700">
<ele>387.300018</ele>
<time>2024-02-29T08:28:12.082Z</time>
</trkpt>
<trkpt lat="31.6484900" lon="34.9996400">
<ele>382.119995</ele>
<time>2024-02-29T08:28:12.082Z</time>
</trkpt>
<trkpt lat="31.6484900" lon="34.9996400">
<ele>382.119995</ele>
<time>2024-02-29T08:28:12.082Z</time>
</trkpt>
<trkpt lat="31.6485600" lon="34.9995200">
<ele>380.639984</ele>
<time>2024-02-29T08:28:12.082Z</time>
</trkpt>
<trkpt lat="31.6486300" lon="34.9993900">
<ele>379.589996</ele>
<time>2024-02-29T08:28:12.082Z</time>
</trkpt>
<trkpt lat="31.6487100" lon="34.9993100">
<ele>379.269989</ele>
<time>2024-02-29T08:28:12.082Z</time>
</trkpt>
<trkpt lat="31.6490400" lon="34.9990500">
<ele>377.619995</ele>
<time>2024-02-29T08:28:12.082Z</time>
</trkpt>
<trkpt lat="31.6494200" lon="34.9988400">
<ele>378.280029</ele>
<time>2024-02-29T08:28:12.082Z</time>
</trkpt>
<trkpt lat="31.6494700" lon="34.9987800">
<ele>378.339996</ele>
<time>2024-02-29T08:28:12.082Z</time>
</trkpt>
<trkpt lat="31.6494900" lon="34.9986800">
<ele>377.779999</ele>
<time>2024-02-29T08:28:12.082Z</time>
</trkpt>
<trkpt lat="31.6494200" lon="34.9986300">
<ele>376.699982</ele>
<time>2024-02-29T08:28:12.082Z</time>
</trkpt>
<trkpt lat="31.6493000" lon="34.9985000">
<ele>374.000031</ele>
<time>2024-02-29T08:28:12.082Z</time>
</trkpt>
<trkpt lat="31.6492300" lon="34.9983800">
<ele>372.309998</ele>
<time>2024-02-29T08:28:12.082Z</time>
</trkpt>
<trkpt lat="31.6492500" lon="34.9979500">
<ele>376.399994</ele>
<time>2024-02-29T08:28:12.082Z</time>
</trkpt>
<trkpt lat="31.6492300" lon="34.9977000">
<ele>380.540009</ele>
<time>2024-02-29T08:28:12.082Z</time>
</trkpt>
<trkpt lat="31.6490900" lon="34.9972200">
<ele>388.940002</ele>
<time>2024-02-29T08:28:12.082Z</time>
</trkpt>
<trkpt lat="31.6490800" lon="34.9971400">
<ele>389.589996</ele>
<time>2024-02-29T08:28:12.082Z</time>
</trkpt>
<trkpt lat="31.6490700" lon="34.9968800">
<ele>391.429993</ele>
<time>2024-02-29T08:28:12.082Z</time>
</trkpt>
<trkpt lat="31.6490300" lon="34.9967700">
<ele>393.050018</ele>
<time>2024-02-29T08:28:12.082Z</time>
</trkpt>
<trkpt lat="31.6490000" lon="34.9967600">
<ele>393.459991</ele>
<time>2024-02-29T08:28:12.082Z</time>
</trkpt>
<trkpt lat="31.6489400" lon="34.9967900">
<ele>393.940002</ele>
<time>2024-02-29T08:28:12.082Z</time>
</trkpt>
<trkpt lat="31.6488200" lon="34.9969100">
<ele>396.569977</ele>
<time>2024-02-29T08:28:12.082Z</time>
</trkpt>
<trkpt lat="31.6487700" lon="34.9969000">
<ele>398.369995</ele>
<time>2024-02-29T08:28:12.082Z</time>
</trkpt>
<trkpt lat="31.6488200" lon="34.9967400">
<ele>397.030029</ele>
<time>2024-02-29T08:28:12.082Z</time>
</trkpt>
<trkpt lat="31.6488200" lon="34.9967200">
<ele>397.089996</ele>
<time>2024-02-29T08:28:12.082Z</time>
</trkpt>
<trkpt lat="31.6488200" lon="34.9967200">
<ele>397.089996</ele>
<time>2024-02-29T08:28:12.082Z</time>
</trkpt>
<trkpt lat="31.6488300" lon="34.9965300">
<ele>398.069977</ele>
<time>2024-02-29T08:28:12.082Z</time>
</trkpt>
<trkpt lat="31.6488000" lon="34.9964100">
<ele>399.760010</ele>
<time>2024-02-29T08:28:12.082Z</time>
</trkpt>
<trkpt lat="31.6487000" lon="34.9961400">
<ele>403.260010</ele>
<time>2024-02-29T08:28:12.082Z</time>
</trkpt>
<trkpt lat="31.6486500" lon="34.9958900">
<ele>404.520020</ele>
<time>2024-02-29T08:28:12.082Z</time>
</trkpt>
<trkpt lat="31.6485700" lon="34.9957500">
<ele>405.739990</ele>
<time>2024-02-29T08:28:12.082Z</time>
</trkpt>
<trkpt lat="31.6484900" lon="34.9956600">
<ele>407.179993</ele>
<time>2024-02-29T08:28:12.082Z</time>
</trkpt>
<trkpt lat="31.6484000" lon="34.9955900">
<ele>408.800018</ele>
<time>2024-02-29T08:28:12.082Z</time>
</trkpt>
<trkpt lat="31.6482100" lon="34.9954000">
<ele>413.220001</ele>
<time>2024-02-29T08:28:12.082Z</time>
</trkpt>
<trkpt lat="31.6480000" lon="34.9953600">
<ele>417.280029</ele>
<time>2024-02-29T08:28:12.082Z</time>
</trkpt>
<trkpt lat="31.6477500" lon="34.9954100">
<ele>419.949982</ele>
<time>2024-02-29T08:28:12.082Z</time>
</trkpt>
<trkpt lat="31.6476500" lon="34.9954100">
<ele>419.930023</ele>
<time>2024-02-29T08:28:12.082Z</time>
</trkpt>
<trkpt lat="31.6475500" lon="34.9953600">
<ele>419.259979</ele>
<time>2024-02-29T08:28:12.082Z</time>
</trkpt>
<trkpt lat="31.6474100" lon="34.9953400">
<ele>418.569977</ele>
<time>2024-02-29T08:28:12.082Z</time>
</trkpt>
<trkpt lat="31.6471700" lon="34.9952400">
<ele>416.110016</ele>
<time>2024-02-29T08:28:12.082Z</time>
</trkpt>
<trkpt lat="31.6470800" lon="34.9951700">
<ele>414.620026</ele>
<time>2024-02-29T08:28:12.082Z</time>
</trkpt>
<trkpt lat="31.6469500" lon="34.9950300">
<ele>412.350006</ele>
<time>2024-02-29T08:28:12.082Z</time>
</trkpt>
<trkpt lat="31.6468800" lon="34.9948400">
<ele>412.809998</ele>
<time>2024-02-29T08:28:12.082Z</time>
</trkpt>
<trkpt lat="31.6468200" lon="34.9947300">
<ele>413.420013</ele>
<time>2024-02-29T08:28:12.082Z</time>
</trkpt>
<trkpt lat="31.6467400" lon="34.9946400">
<ele>414.759979</ele>
<time>2024-02-29T08:28:12.082Z</time>
</trkpt>
<trkpt lat="31.6466500" lon="34.9945800">
<ele>416.429993</ele>
<time>2024-02-29T08:28:12.082Z</time>
</trkpt>
<trkpt lat="31.6465100" lon="34.9945200">
<ele>419.939972</ele>
<time>2024-02-29T08:28:12.082Z</time>
</trkpt>
<trkpt lat="31.6462600" lon="34.9943500">
<ele>420.860016</ele>
<time>2024-02-29T08:28:12.082Z</time>
</trkpt>
<trkpt lat="31.6461600" lon="34.9943400">
<ele>420.419983</ele>
<time>2024-02-29T08:28:12.082Z</time>
</trkpt>
<trkpt lat="31.6458400" lon="34.9942600">
<ele>417.069977</ele>
<time>2024-02-29T08:28:12.082Z</time>
</trkpt>
<trkpt lat="31.6457300" lon="34.9942500">
<ele>418.130005</ele>
<time>2024-02-29T08:28:12.082Z</time>
</trkpt>
<trkpt lat="31.6456300" lon="34.9942700">
<ele>419.580017</ele>
<time>2024-02-29T08:28:12.082Z</time>
</trkpt>
<trkpt lat="31.6454100" lon="34.9942900">
<ele>419.670013</ele>
<time>2024-02-29T08:28:12.082Z</time>
</trkpt>
<trkpt lat="31.6452500" lon="34.9943500">
<ele>419.820007</ele>
<time>2024-02-29T08:28:12.082Z</time>
</trkpt>
<trkpt lat="31.6450600" lon="34.9944100">
<ele>420.870026</ele>
<time>2024-02-29T08:28:12.082Z</time>
</trkpt>
<trkpt lat="31.6450300" lon="34.9944100">
<ele>420.809998</ele>
<time>2024-02-29T08:28:12.082Z</time>
</trkpt>
<trkpt lat="31.6450000" lon="34.9943800">
<ele>419.679993</ele>
<time>2024-02-29T08:28:12.082Z</time>
</trkpt>
<trkpt lat="31.6449700" lon="34.9942100">
<ele>412.899994</ele>
<time>2024-02-29T08:28:12.082Z</time>
</trkpt>
<trkpt lat="31.6449900" lon="34.9940900">
<ele>409.879974</ele>
<time>2024-02-29T08:28:12.082Z</time>
</trkpt>
<trkpt lat="31.6450300" lon="34.9939300">
<ele>406.380005</ele>
<time>2024-02-29T08:28:12.082Z</time>
</trkpt>
<trkpt lat="31.6450600" lon="34.9939000">
<ele>405.939972</ele>
<time>2024-02-29T08:28:12.082Z</time>
</trkpt>
<trkpt lat="31.6452000" lon="34.9938600">
<ele>406.429993</ele>
<time>2024-02-29T08:28:12.082Z</time>
</trkpt>
<trkpt lat="31.6452700" lon="34.9937700">
<ele>404.149994</ele>
<time>2024-02-29T08:28:12.082Z</time>
</trkpt>
<trkpt lat="31.6453300" lon="34.9936600">
<ele>401.029999</ele>
<time>2024-02-29T08:28:12.082Z</time>
</trkpt>
<trkpt lat="31.6453900" lon="34.9936100">
<ele>399.819977</ele>
<time>2024-02-29T08:28:12.082Z</time>
</trkpt>
<trkpt lat="31.6455300" lon="34.9935700">
<ele>401.520020</ele>
<time>2024-02-29T08:28:12.082Z</time>
</trkpt>
<trkpt lat="31.6456300" lon="34.9935600">
<ele>401.789978</ele>
<time>2024-02-29T08:28:12.082Z</time>
</trkpt>
<trkpt lat="31.6457300" lon="34.9935000">
<ele>401.619995</ele>
<time>2024-02-29T08:28:12.082Z</time>
</trkpt>
<trkpt lat="31.6459800" lon="34.9934400">
<ele>399.910004</ele>
<time>2024-02-29T08:28:12.082Z</time>
</trkpt>
<trkpt lat="31.6460500" lon="34.9934400">
<ele>399.790009</ele>
<time>2024-02-29T08:28:12.082Z</time>
</trkpt>
<trkpt lat="31.6464000" lon="34.9935000">
<ele>407.229980</ele>
<time>2024-02-29T08:28:12.082Z</time>
</trkpt>
<trkpt lat="31.6465900" lon="34.9935100">
<ele>407.799988</ele>
<time>2024-02-29T08:28:12.082Z</time>
</trkpt>
<trkpt lat="31.6468400" lon="34.9935000">
<ele>406.130005</ele>
<time>2024-02-29T08:28:12.082Z</time>
</trkpt>
<trkpt lat="31.6469100" lon="34.9934800">
<ele>405.369995</ele>
<time>2024-02-29T08:28:12.082Z</time>
</trkpt>
<trkpt lat="31.6469600" lon="34.9934200">
<ele>404.869995</ele>
<time>2024-02-29T08:28:12.082Z</time>
</trkpt>
<trkpt lat="31.6469500" lon="34.9933400">
<ele>404.940002</ele>
<time>2024-02-29T08:28:12.082Z</time>
</trkpt>
<trkpt lat="31.6469300" lon="34.9933100">
<ele>405.299988</ele>
<time>2024-02-29T08:28:12.082Z</time>
</trkpt>
<trkpt lat="31.6468300" lon="34.9931900">
<ele>406.209991</ele>
<time>2024-02-29T08:28:12.082Z</time>
</trkpt>
<trkpt lat="31.6467700" lon="34.9931500">
<ele>406.130005</ele>
<time>2024-02-29T08:28:12.082Z</time>
</trkpt>
<trkpt lat="31.6466200" lon="34.9931300">
<ele>405.839996</ele>
<time>2024-02-29T08:28:12.082Z</time>
</trkpt>
<trkpt lat="31.6462800" lon="34.9931300">
<ele>404.190002</ele>
<time>2024-02-29T08:28:12.082Z</time>
</trkpt>
<trkpt lat="31.6457200" lon="34.9932200">
<ele>402.160004</ele>
<time>2024-02-29T08:28:12.082Z</time>
</trkpt>
<trkpt lat="31.6452000" lon="34.9934800">
<ele>401.720001</ele>
<time>2024-02-29T08:28:12.082Z</time>
</trkpt>
<trkpt lat="31.6452000" lon="34.9934800">
<ele>401.720001</ele>
<time>2024-02-29T08:28:12.082Z</time>
</trkpt>
<trkpt lat="31.6449900" lon="34.9935900">
<ele>403.500000</ele>
<time>2024-02-29T08:28:12.082Z</time>
</trkpt>
<trkpt lat="31.6442300" lon="34.9942500">
<ele>405.120026</ele>
<time>2024-02-29T08:28:12.082Z</time>
</trkpt>
<trkpt lat="31.6440900" lon="34.9941900">
<ele>404.449982</ele>
<time>2024-02-29T08:28:12.082Z</time>
</trkpt>
<trkpt lat="31.6439700" lon="34.9942000">
<ele>405.959991</ele>
<time>2024-02-29T08:28:12.082Z</time>
</trkpt>
<trkpt lat="31.6438200" lon="34.9941400">
<ele>408.769989</ele>
<time>2024-02-29T08:28:12.082Z</time>
</trkpt>
<trkpt lat="31.6435700" lon="34.9942000">
<ele>412.019989</ele>
<time>2024-02-29T08:28:12.082Z</time>
</trkpt>
<trkpt lat="31.6434800" lon="34.9942000">
<ele>413.110016</ele>
<time>2024-02-29T08:28:12.082Z</time>
</trkpt>
<trkpt lat="31.6432400" lon="34.9941400">
<ele>416.739990</ele>
<time>2024-02-29T08:28:12.082Z</time>
</trkpt>
<trkpt lat="31.6431300" lon="34.9940800">
<ele>419.089996</ele>
<time>2024-02-29T08:28:12.082Z</time>
</trkpt>
<trkpt lat="31.6429900" lon="34.9940500">
<ele>420.199982</ele>
<time>2024-02-29T08:28:12.082Z</time>
</trkpt>
<trkpt lat="31.6428200" lon="34.9940400">
<ele>420.669983</ele>
<time>2024-02-29T08:28:12.082Z</time>
</trkpt>
<trkpt lat="31.6427300" lon="34.9940200">
<ele>421.680023</ele>
<time>2024-02-29T08:28:12.082Z</time>
</trkpt>
<trkpt lat="31.6426000" lon="34.9939400">
<ele>424.819977</ele>
<time>2024-02-29T08:28:12.082Z</time>
</trkpt>
<trkpt lat="31.6424600" lon="34.9939000">
<ele>427.080017</ele>
<time>2024-02-29T08:28:12.082Z</time>
</trkpt>
<trkpt lat="31.6424000" lon="34.9938700">
<ele>428.260010</ele>
<time>2024-02-29T08:28:12.082Z</time>
</trkpt>
<trkpt lat="31.6422800" lon="34.9937400">
<ele>432.130005</ele>
<time>2024-02-29T08:28:12.082Z</time>
</trkpt>
<trkpt lat="31.6422600" lon="34.9936900">
<ele>433.320007</ele>
<time>2024-02-29T08:28:12.082Z</time>
</trkpt>
<trkpt lat="31.6423000" lon="34.9936200">
<ele>435.059998</ele>
<time>2024-02-29T08:28:12.082Z</time>
</trkpt>
<trkpt lat="31.6425000" lon="34.9935400">
<ele>438.299988</ele>
<time>2024-02-29T08:28:12.082Z</time>
</trkpt>
<trkpt lat="31.6427400" lon="34.9934200">
<ele>438.139984</ele>
<time>2024-02-29T08:28:12.082Z</time>
</trkpt>
<trkpt lat="31.6427800" lon="34.9933800">
<ele>438.630005</ele>
<time>2024-02-29T08:28:12.082Z</time>
</trkpt>
<trkpt lat="31.6428900" lon="34.9933000">
<ele>439.459991</ele>
<time>2024-02-29T08:28:12.082Z</time>
</trkpt>
<trkpt lat="31.6430000" lon="34.9932300">
<ele>440.279999</ele>
<time>2024-02-29T08:28:12.082Z</time>
</trkpt>
<trkpt lat="31.6430300" lon="34.9931900">
<ele>441.210022</ele>
<time>2024-02-29T08:28:12.082Z</time>
</trkpt>
<trkpt lat="31.6431300" lon="34.9928800">
<ele>445.630005</ele>
<time>2024-02-29T08:28:12.082Z</time>
</trkpt>
<trkpt lat="31.6431200" lon="34.9927900">
<ele>446.919983</ele>
<time>2024-02-29T08:28:12.082Z</time>
</trkpt>
<trkpt lat="31.6430700" lon="34.9926500">
<ele>446.900024</ele>
<time>2024-02-29T08:28:12.082Z</time>
</trkpt>
<trkpt lat="31.6429400" lon="34.9924600">
<ele>445.630005</ele>
<time>2024-02-29T08:28:12.082Z</time>
</trkpt>
<trkpt lat="31.6428900" lon="34.9924000">
<ele>445.130005</ele>
<time>2024-02-29T08:28:12.082Z</time>
</trkpt>
<trkpt lat="31.6428100" lon="34.9923700">
<ele>445.010010</ele>
<time>2024-02-29T08:28:12.082Z</time>
</trkpt>
<trkpt lat="31.6426000" lon="34.9923500">
<ele>442.010010</ele>
<time>2024-02-29T08:28:12.082Z</time>
</trkpt>
<trkpt lat="31.6424800" lon="34.9923000">
<ele>439.750000</ele>
<time>2024-02-29T08:28:12.082Z</time>
</trkpt>
<trkpt lat="31.6423900" lon="34.9922700">
<ele>439.049988</ele>
<time>2024-02-29T08:28:12.082Z</time>
</trkpt>
<trkpt lat="31.6422700" lon="34.9922800">
<ele>438.619995</ele>
<time>2024-02-29T08:28:12.082Z</time>
</trkpt>
<trkpt lat="31.6421500" lon="34.9922400">
<ele>438.129974</ele>
<time>2024-02-29T08:28:12.082Z</time>
</trkpt>
<trkpt lat="31.6420300" lon="34.9921400">
<ele>436.519989</ele>
<time>2024-02-29T08:28:12.082Z</time>
</trkpt>
<trkpt lat="31.6419600" lon="34.9920100">
<ele>434.180023</ele>
<time>2024-02-29T08:28:12.082Z</time>
</trkpt>
<trkpt lat="31.6419200" lon="34.9919500">
<ele>433.100006</ele>
<time>2024-02-29T08:28:12.082Z</time>
</trkpt>
<trkpt lat="31.6419200" lon="34.9919500">
<ele>433.100006</ele>
<time>2024-02-29T08:28:12.082Z</time>
</trkpt>
<trkpt lat="31.6418300" lon="34.9918300">
<ele>431.040009</ele>
<time>2024-02-29T08:28:12.082Z</time>
</trkpt>
<trkpt lat="31.6417700" lon="34.9917900">
<ele>430.710022</ele>
<time>2024-02-29T08:28:12.082Z</time>
</trkpt>
<trkpt lat="31.6416600" lon="34.9917800">
<ele>431.109985</ele>
<time>2024-02-29T08:28:12.082Z</time>
</trkpt>
<trkpt lat="31.6414300" lon="34.9918300">
<ele>428.000000</ele>
<time>2024-02-29T08:28:12.082Z</time>
</trkpt>
<trkpt lat="31.6412000" lon="34.9918300">
<ele>424.110016</ele>
<time>2024-02-29T08:28:12.082Z</time>
</trkpt>
<trkpt lat="31.6416100" lon="34.9914200">
<ele>421.510010</ele>
<time>2024-02-29T08:28:12.082Z</time>
</trkpt>
<trkpt lat="31.6419900" lon="34.9908500">
<ele>405.930023</ele>
<time>2024-02-29T08:28:12.082Z</time>
</trkpt>
<trkpt lat="31.6425600" lon="34.9902700">
<ele>411.110016</ele>
<time>2024-02-29T08:28:12.082Z</time>
</trkpt>
<trkpt lat="31.6427400" lon="34.9901300">
<ele>408.429993</ele>
<time>2024-02-29T08:28:12.082Z</time>
</trkpt>
<trkpt lat="31.6428600" lon="34.9899600">
<ele>405.639984</ele>
<time>2024-02-29T08:28:12.082Z</time>
</trkpt>
<trkpt lat="31.6433200" lon="34.9895100">
<ele>398.250000</ele>
<time>2024-02-29T08:28:12.082Z</time>
</trkpt>
<trkpt lat="31.6434300" lon="34.9894400">
<ele>397.630005</ele>
<time>2024-02-29T08:28:12.082Z</time>
</trkpt>
<trkpt lat="31.6437200" lon="34.9893600">
<ele>399.300018</ele>
<time>2024-02-29T08:28:12.082Z</time>
</trkpt>
<trkpt lat="31.6439100" lon="34.9892200">
<ele>399.869995</ele>
<time>2024-02-29T08:28:12.082Z</time>
</trkpt>
<trkpt lat="31.6440400" lon="34.9891600">
<ele>397.289978</ele>
<time>2024-02-29T08:28:12.082Z</time>
</trkpt>
<trkpt lat="31.6441900" lon="34.9891300">
<ele>395.319977</ele>
<time>2024-02-29T08:28:12.082Z</time>
</trkpt>
<trkpt lat="31.6445100" lon="34.9890100">
<ele>394.970001</ele>
<time>2024-02-29T08:28:12.082Z</time>
</trkpt>
<trkpt lat="31.6447000" lon="34.9888800">
<ele>392.910004</ele>
<time>2024-02-29T08:28:12.082Z</time>
</trkpt>
<trkpt lat="31.6448400" lon="34.9888500">
<ele>394.399994</ele>
<time>2024-02-29T08:28:12.082Z</time>
</trkpt>
<trkpt lat="31.6449900" lon="34.9887900">
<ele>395.040009</ele>
<time>2024-02-29T08:28:12.082Z</time>
</trkpt>
<trkpt lat="31.6451400" lon="34.9886700">
<ele>392.490021</ele>
<time>2024-02-29T08:28:12.082Z</time>
</trkpt>
<trkpt lat="31.6451400" lon="34.9886700">
<ele>392.490021</ele>
<time>2024-02-29T08:28:12.082Z</time>
</trkpt>
<trkpt lat="31.6452300" lon="34.9886000">
<ele>391.469971</ele>
<time>2024-02-29T08:28:12.082Z</time>
</trkpt>
<trkpt lat="31.6453900" lon="34.9885500">
<ele>392.830017</ele>
<time>2024-02-29T08:28:12.082Z</time>
</trkpt>
<trkpt lat="31.6458600" lon="34.9884800">
<ele>398.879974</ele>
<time>2024-02-29T08:28:12.082Z</time>
</trkpt>
<trkpt lat="31.6459200" lon="34.9884500">
<ele>398.860016</ele>
<time>2024-02-29T08:28:12.082Z</time>
</trkpt>
<trkpt lat="31.6459600" lon="34.9883900">
<ele>398.029999</ele>
<time>2024-02-29T08:28:12.082Z</time>
</trkpt>
<trkpt lat="31.6460100" lon="34.9882500">
<ele>395.690002</ele>
<time>2024-02-29T08:28:12.082Z</time>
</trkpt>
<trkpt lat="31.6461300" lon="34.9880500">
<ele>392.230011</ele>
<time>2024-02-29T08:28:12.082Z</time>
</trkpt>
<trkpt lat="31.6462000" lon="34.9878800">
<ele>391.809967</ele>
<time>2024-02-29T08:28:12.082Z</time>
</trkpt>
<trkpt lat="31.6463200" lon="34.9877500">
<ele>391.829987</ele>
<time>2024-02-29T08:28:12.082Z</time>
</trkpt>
<trkpt lat="31.6463400" lon="34.9876900">
<ele>391.149994</ele>
<time>2024-02-29T08:28:12.082Z</time>
</trkpt>
<trkpt lat="31.6463300" lon="34.9876500">
<ele>390.430023</ele>
<time>2024-02-29T08:28:12.082Z</time>
</trkpt>
<trkpt lat="31.6462500" lon="34.9875100">
<ele>387.160004</ele>
<time>2024-02-29T08:28:12.082Z</time>
</trkpt>
<trkpt lat="31.6461200" lon="34.9872800">
<ele>385.080017</ele>
<time>2024-02-29T08:28:12.082Z</time>
</trkpt>
<trkpt lat="31.6460600" lon="34.9872200">
<ele>385.210022</ele>
<time>2024-02-29T08:28:12.082Z</time>
</trkpt>
<trkpt lat="31.6459900" lon="34.9872400">
<ele>385.349976</ele>
<time>2024-02-29T08:28:12.082Z</time>
</trkpt>
<trkpt lat="31.6457300" lon="34.9875900">
<ele>387.500000</ele>
<time>2024-02-29T08:28:12.082Z</time>
</trkpt>
<trkpt lat="31.6455300" lon="34.9879000">
<ele>389.880005</ele>
<time>2024-02-29T08:28:12.082Z</time>
</trkpt>
<trkpt lat="31.6454600" lon="34.9879500">
<ele>388.479980</ele>
<time>2024-02-29T08:28:12.082Z</time>
</trkpt>
<trkpt lat="31.6448700" lon="34.9882300">
<ele>389.119995</ele>
<time>2024-02-29T08:28:12.082Z</time>
</trkpt>
<trkpt lat="31.6447500" lon="34.9883200">
<ele>389.830017</ele>
<time>2024-02-29T08:28:12.082Z</time>
</trkpt>
<trkpt lat="31.6446100" lon="34.9884500">
<ele>390.569977</ele>
<time>2024-02-29T08:28:12.082Z</time>
</trkpt>
<trkpt lat="31.6445200" lon="34.9885100">
<ele>391.190002</ele>
<time>2024-02-29T08:28:12.082Z</time>
</trkpt>
<trkpt lat="31.6444400" lon="34.9885300">
<ele>391.779999</ele>
<time>2024-02-29T08:28:12.082Z</time>
</trkpt>
<trkpt lat="31.6444000" lon="34.9885200">
<ele>392.419983</ele>
<time>2024-02-29T08:28:12.082Z</time>
</trkpt>
<trkpt lat="31.6444000" lon="34.9885200">
<ele>392.419983</ele>
<time>2024-02-29T08:28:12.082Z</time>
</trkpt>
<trkpt lat="31.6441500" lon="34.9885100">
<ele>396.540009</ele>
<time>2024-02-29T08:28:12.082Z</time>
</trkpt>
<trkpt lat="31.6440600" lon="34.9885200">
<ele>397.480011</ele>
<time>2024-02-29T08:28:12.082Z</time>
</trkpt>
<trkpt lat="31.6438800" lon="34.9886300">
<ele>399.119995</ele>
<time>2024-02-29T08:28:12.082Z</time>
</trkpt>
<trkpt lat="31.6432600" lon="34.9888700">
<ele>395.799988</ele>
<time>2024-02-29T08:28:12.082Z</time>
</trkpt>
<trkpt lat="31.6431500" lon="34.9889600">
<ele>396.619995</ele>
<time>2024-02-29T08:28:12.082Z</time>
</trkpt>
<trkpt lat="31.6427800" lon="34.9894200">
<ele>396.239990</ele>
<time>2024-02-29T08:28:12.082Z</time>
</trkpt>
<trkpt lat="31.6426500" lon="34.9895100">
<ele>401.600006</ele>
<time>2024-02-29T08:28:12.082Z</time>
</trkpt>
<trkpt lat="31.6422700" lon="34.9897300">
<ele>406.289978</ele>
<time>2024-02-29T08:28:12.082Z</time>
</trkpt>
<trkpt lat="31.6417800" lon="34.9902800">
<ele>408.750000</ele>
<time>2024-02-29T08:28:12.082Z</time>
</trkpt>
<trkpt lat="31.6415700" lon="34.9904800">
<ele>408.760010</ele>
<time>2024-02-29T08:28:12.082Z</time>
</trkpt>
<trkpt lat="31.6414500" lon="34.9905700">
<ele>409.000000</ele>
<time>2024-02-29T08:28:12.082Z</time>
</trkpt>
<trkpt lat="31.6409700" lon="34.9907300">
<ele>408.169983</ele>
<time>2024-02-29T08:28:12.082Z</time>
</trkpt>
<trkpt lat="31.6407800" lon="34.9908400">
<ele>405.890015</ele>
<time>2024-02-29T08:28:12.082Z</time>
</trkpt>
<trkpt lat="31.6406200" lon="34.9910100">
<ele>406.929993</ele>
<time>2024-02-29T08:28:12.082Z</time>
</trkpt>
<trkpt lat="31.6405600" lon="34.9910300">
<ele>407.799988</ele>
<time>2024-02-29T08:28:12.082Z</time>
</trkpt>
<trkpt lat="31.6404100" lon="34.9910500">
<ele>411.209991</ele>
<time>2024-02-29T08:28:12.082Z</time>
</trkpt>
<trkpt lat="31.6403400" lon="34.9910700">
<ele>412.760010</ele>
<time>2024-02-29T08:28:12.082Z</time>
</trkpt>
<trkpt lat="31.6401900" lon="34.9911700">
<ele>414.910004</ele>
<time>2024-02-29T08:28:12.082Z</time>
</trkpt>
<trkpt lat="31.6400300" lon="34.9912400">
<ele>416.670013</ele>
<time>2024-02-29T08:28:12.082Z</time>
</trkpt>
<trkpt lat="31.6399600" lon="34.9911100">
<ele>421.029999</ele>
<time>2024-02-29T08:28:12.082Z</time>
</trkpt>
<trkpt lat="31.6400400" lon="34.9910000">
<ele>421.309998</ele>
<time>2024-02-29T08:28:12.082Z</time>
</trkpt>
<trkpt lat="31.6401000" lon="34.9909000">
<ele>421.309998</ele>
<time>2024-02-29T08:28:12.082Z</time>
</trkpt>
<trkpt lat="31.6403900" lon="34.9905700">
<ele>419.460022</ele>
<time>2024-02-29T08:28:12.082Z</time>
</trkpt>
<trkpt lat="31.6404400" lon="34.9904800">
<ele>422.470001</ele>
<time>2024-02-29T08:28:12.082Z</time>
</trkpt>
<trkpt lat="31.6405500" lon="34.9900800">
<ele>434.769989</ele>
<time>2024-02-29T08:28:12.082Z</time>
</trkpt>
<trkpt lat="31.6406100" lon="34.9899500">
<ele>437.199982</ele>
<time>2024-02-29T08:28:12.082Z</time>
</trkpt>
<trkpt lat="31.6406100" lon="34.9899500">
<ele>437.199982</ele>
<time>2024-02-29T08:28:12.082Z</time>
</trkpt>
<trkpt lat="31.6407800" lon="34.9896600">
<ele>440.459991</ele>
<time>2024-02-29T08:28:12.082Z</time>
</trkpt>
<trkpt lat="31.6409300" lon="34.9893400">
<ele>441.029999</ele>
<time>2024-02-29T08:28:12.082Z</time>
</trkpt>
<trkpt lat="31.6409600" lon="34.9892600">
<ele>441.210022</ele>
<time>2024-02-29T08:28:12.082Z</time>
</trkpt>
<trkpt lat="31.6410000" lon="34.9890500">
<ele>442.239990</ele>
<time>2024-02-29T08:28:12.082Z</time>
</trkpt>
<trkpt lat="31.6410100" lon="34.9888300">
<ele>443.149994</ele>
<time>2024-02-29T08:28:12.082Z</time>
</trkpt>
<trkpt lat="31.6409800" lon="34.9887000">
<ele>442.790009</ele>
<time>2024-02-29T08:28:12.082Z</time>
</trkpt>
<trkpt lat="31.6409200" lon="34.9885500">
<ele>441.949982</ele>
<time>2024-02-29T08:28:12.082Z</time>
</trkpt>
<trkpt lat="31.6408700" lon="34.9885000">
<ele>441.369995</ele>
<time>2024-02-29T08:28:12.082Z</time>
</trkpt>
<trkpt lat="31.6406800" lon="34.9883800">
<ele>438.930023</ele>
<time>2024-02-29T08:28:12.082Z</time>
</trkpt>
<trkpt lat="31.6403100" lon="34.9883000">
<ele>437.789978</ele>
<time>2024-02-29T08:28:12.082Z</time>
</trkpt>
<trkpt lat="31.6399700" lon="34.9883100">
<ele>435.080017</ele>
<time>2024-02-29T08:28:12.082Z</time>
</trkpt>
<trkpt lat="31.6398800" lon="34.9884400">
<ele>436.259979</ele>
<time>2024-02-29T08:28:12.082Z</time>
</trkpt>
<trkpt lat="31.6398000" lon="34.9885200">
<ele>438.139984</ele>
<time>2024-02-29T08:28:12.082Z</time>
</trkpt>
<trkpt lat="31.6397300" lon="34.9885300">
<ele>439.410004</ele>
<time>2024-02-29T08:28:12.082Z</time>
</trkpt>
<trkpt lat="31.6395200" lon="34.9886100">
<ele>443.170013</ele>
<time>2024-02-29T08:28:12.082Z</time>
</trkpt>
<trkpt lat="31.6394200" lon="34.9886000">
<ele>443.660004</ele>
<time>2024-02-29T08:28:12.082Z</time>
</trkpt>
<trkpt lat="31.6393500" lon="34.9885700">
<ele>442.730011</ele>
<time>2024-02-29T08:28:12.082Z</time>
</trkpt>
<trkpt lat="31.6392500" lon="34.9885600">
<ele>441.859985</ele>
<time>2024-02-29T08:28:12.082Z</time>
</trkpt>
<trkpt lat="31.6391400" lon="34.9885700">
<ele>441.420013</ele>
<time>2024-02-29T08:28:12.082Z</time>
</trkpt>
<trkpt lat="31.6390700" lon="34.9886000">
<ele>441.850006</ele>
<time>2024-02-29T08:28:12.082Z</time>
</trkpt>
<trkpt lat="31.6388600" lon="34.9886200">
<ele>442.759979</ele>
<time>2024-02-29T08:28:12.082Z</time>
</trkpt>
<trkpt lat="31.6388000" lon="34.9886500">
<ele>444.500000</ele>
<time>2024-02-29T08:28:12.082Z</time>
</trkpt>
<trkpt lat="31.6387900" lon="34.9887600">
<ele>447.110016</ele>
<time>2024-02-29T08:28:12.082Z</time>
</trkpt>
<trkpt lat="31.6387300" lon="34.9887900">
<ele>448.170013</ele>
<time>2024-02-29T08:28:12.082Z</time>
</trkpt>
<trkpt lat="31.6386100" lon="34.9887400">
<ele>448.390015</ele>
<time>2024-02-29T08:28:12.082Z</time>
</trkpt>
<trkpt lat="31.6384000" lon="34.9887500">
<ele>447.739990</ele>
<time>2024-02-29T08:28:12.082Z</time>
</trkpt>
<trkpt lat="31.6382100" lon="34.9888600">
<ele>447.399994</ele>
<time>2024-02-29T08:28:12.082Z</time>
</trkpt>
<trkpt lat="31.6380600" lon="34.9887500">
<ele>445.040009</ele>
<time>2024-02-29T08:28:12.082Z</time>
</trkpt>
<trkpt lat="31.6380200" lon="34.9887500">
<ele>445.060028</ele>
<time>2024-02-29T08:28:12.082Z</time>
</trkpt>
<trkpt lat="31.6379000" lon="34.9888200">
<ele>446.210022</ele>
<time>2024-02-29T08:28:12.082Z</time>
</trkpt>
<trkpt lat="31.6378300" lon="34.9887900">
<ele>446.040009</ele>
<time>2024-02-29T08:28:12.082Z</time>
</trkpt>
<trkpt lat="31.6377200" lon="34.9886200">
<ele>443.770020</ele>
<time>2024-02-29T08:28:12.082Z</time>
</trkpt>
<trkpt lat="31.6376400" lon="34.9883500">
<ele>440.260010</ele>
<time>2024-02-29T08:28:12.082Z</time>
</trkpt>
<trkpt lat="31.6374700" lon="34.9881900">
<ele>438.880005</ele>
<time>2024-02-29T08:28:12.082Z</time>
</trkpt>
<trkpt lat="31.6374600" lon="34.9881500">
<ele>438.309998</ele>
<time>2024-02-29T08:28:12.082Z</time>
</trkpt>
<trkpt lat="31.6374800" lon="34.9881100">
<ele>437.770020</ele>
<time>2024-02-29T08:28:12.082Z</time>
</trkpt>
<trkpt lat="31.6376000" lon="34.9880100">
<ele>436.549988</ele>
<time>2024-02-29T08:28:12.082Z</time>
</trkpt>
<trkpt lat="31.6376700" lon="34.9878700">
<ele>434.830017</ele>
<time>2024-02-29T08:28:12.082Z</time>
</trkpt>
<trkpt lat="31.6377100" lon="34.9877500">
<ele>433.700012</ele>
<time>2024-02-29T08:28:12.082Z</time>
</trkpt>
<trkpt lat="31.6377100" lon="34.9876700">
<ele>432.770020</ele>
<time>2024-02-29T08:28:12.082Z</time>
</trkpt>
<trkpt lat="31.6376900" lon="34.9875400">
<ele>430.899994</ele>
<time>2024-02-29T08:28:12.082Z</time>
</trkpt>
<trkpt lat="31.6376400" lon="34.9874900">
<ele>429.520020</ele>
<time>2024-02-29T08:28:12.082Z</time>
</trkpt>
<trkpt lat="31.6375600" lon="34.9874900">
<ele>428.100006</ele>
<time>2024-02-29T08:28:12.082Z</time>
</trkpt>
<trkpt lat="31.6375000" lon="34.9874500">
<ele>427.179993</ele>
<time>2024-02-29T08:28:12.082Z</time>
</trkpt>
<trkpt lat="31.6374700" lon="34.9873800">
<ele>426.940002</ele>
<time>2024-02-29T08:28:12.082Z</time>
</trkpt>
<trkpt lat="31.6374600" lon="34.9872900">
<ele>426.809998</ele>
<time>2024-02-29T08:28:12.082Z</time>
</trkpt>
<trkpt lat="31.6374500" lon="34.9869100">
<ele>428.589996</ele>
<time>2024-02-29T08:28:12.082Z</time>
</trkpt>
<trkpt lat="31.6375000" lon="34.9867500">
<ele>430.399994</ele>
<time>2024-02-29T08:28:12.082Z</time>
</trkpt>
<trkpt lat="31.6375700" lon="34.9866000">
<ele>432.279999</ele>
<time>2024-02-29T08:28:12.082Z</time>
</trkpt>
<trkpt lat="31.6375900" lon="34.9865200">
<ele>433.249969</ele>
<time>2024-02-29T08:28:12.082Z</time>
</trkpt>
<trkpt lat="31.6375600" lon="34.9861900">
<ele>435.500000</ele>
<time>2024-02-29T08:28:12.082Z</time>
</trkpt>
<trkpt lat="31.6376000" lon="34.9859900">
<ele>435.330017</ele>
<time>2024-02-29T08:28:12.082Z</time>
</trkpt>
<trkpt lat="31.6376100" lon="34.9857700">
<ele>434.720001</ele>
<time>2024-02-29T08:28:12.082Z</time>
</trkpt>
<trkpt lat="31.6375900" lon="34.9856500">
<ele>434.809998</ele>
<time>2024-02-29T08:28:12.082Z</time>
</trkpt>
<trkpt lat="31.6375100" lon="34.9854100">
<ele>435.839996</ele>
<time>2024-02-29T08:28:12.082Z</time>
</trkpt>
<trkpt lat="31.6375200" lon="34.9852400">
<ele>435.670013</ele>
<time>2024-02-29T08:28:12.082Z</time>
</trkpt>
<trkpt lat="31.6375100" lon="34.9851600">
<ele>435.869995</ele>
<time>2024-02-29T08:28:12.082Z</time>
</trkpt>
<trkpt lat="31.6373800" lon="34.9849700">
<ele>438.110016</ele>
<time>2024-02-29T08:28:12.082Z</time>
</trkpt>
<trkpt lat="31.6373000" lon="34.9847300">
<ele>438.899994</ele>
<time>2024-02-29T08:28:12.082Z</time>
</trkpt>
<trkpt lat="31.6372800" lon="34.9846100">
<ele>438.120026</ele>
<time>2024-02-29T08:28:12.082Z</time>
</trkpt>
<trkpt lat="31.6372800" lon="34.9844800">
<ele>436.910004</ele>
<time>2024-02-29T08:28:12.082Z</time>
</trkpt>
<trkpt lat="31.6372600" lon="34.9843100">
<ele>435.760010</ele>
<time>2024-02-29T08:28:12.082Z</time>
</trkpt>
<trkpt lat="31.6372600" lon="34.9842700">
<ele>435.470001</ele>
<time>2024-02-29T08:28:12.082Z</time>
</trkpt>
<trkpt lat="31.6373300" lon="34.9841200">
<ele>434.329987</ele>
<time>2024-02-29T08:28:12.082Z</time>
</trkpt>
<trkpt lat="31.6373400" lon="34.9840400">
<ele>434.409973</ele>
<time>2024-02-29T08:28:12.082Z</time>
</trkpt>
<trkpt lat="31.6373000" lon="34.9838800">
<ele>435.260010</ele>
<time>2024-02-29T08:28:12.082Z</time>
</trkpt>
<trkpt lat="31.6372800" lon="34.9836700">
<ele>437.740021</ele>
<time>2024-02-29T08:28:12.082Z</time>
</trkpt>
<trkpt lat="31.6371400" lon="34.9834200">
<ele>439.529999</ele>
<time>2024-02-29T08:28:12.082Z</time>
</trkpt>
<trkpt lat="31.6370600" lon="34.9833300">
<ele>441.670013</ele>
<time>2024-02-29T08:28:12.082Z</time>
</trkpt>
<trkpt lat="31.6370500" lon="34.9832500">
<ele>441.739990</ele>
<time>2024-02-29T08:28:12.082Z</time>
</trkpt>
<trkpt lat="31.6370600" lon="34.9830400">
<ele>440.869995</ele>
<time>2024-02-29T08:28:12.082Z</time>
</trkpt>
<trkpt lat="31.6370000" lon="34.9828500">
<ele>438.200012</ele>
<time>2024-02-29T08:28:12.082Z</time>
</trkpt>
<trkpt lat="31.6369300" lon="34.9827500">
<ele>437.539978</ele>
<time>2024-02-29T08:28:12.082Z</time>
</trkpt>
<trkpt lat="31.6367900" lon="34.9826200">
<ele>435.080017</ele>
<time>2024-02-29T08:28:12.082Z</time>
</trkpt>
<trkpt lat="31.6367500" lon="34.9825400">
<ele>433.220001</ele>
<time>2024-02-29T08:28:12.082Z</time>
</trkpt>
<trkpt lat="31.6367500" lon="34.9825400">
<ele>433.220001</ele>
<time>2024-02-29T08:28:12.082Z</time>
</trkpt>
<trkpt lat="31.6366800" lon="34.9822200">
<ele>426.170013</ele>
<time>2024-02-29T08:28:12.082Z</time>
</trkpt>
<trkpt lat="31.6365100" lon="34.9820100">
<ele>424.410004</ele>
<time>2024-02-29T08:28:12.082Z</time>
</trkpt>
<trkpt lat="31.6364800" lon="34.9820000">
<ele>424.410004</ele>
<time>2024-02-29T08:28:12.082Z</time>
</trkpt>
<trkpt lat="31.6363600" lon="34.9820900">
<ele>426.099976</ele>
<time>2024-02-29T08:28:12.082Z</time>
</trkpt>
<trkpt lat="31.6362300" lon="34.9822900">
<ele>429.720001</ele>
<time>2024-02-29T08:28:12.082Z</time>
</trkpt>
<trkpt lat="31.6360900" lon="34.9824000">
<ele>432.479980</ele>
<time>2024-02-29T08:28:12.082Z</time>
</trkpt>
<trkpt lat="31.6360500" lon="34.9824700">
<ele>433.419983</ele>
<time>2024-02-29T08:28:12.082Z</time>
</trkpt>
<trkpt lat="31.6360200" lon="34.9826400">
<ele>434.180023</ele>
<time>2024-02-29T08:28:12.082Z</time>
</trkpt>
<trkpt lat="31.6359700" lon="34.9827000">
<ele>434.069977</ele>
<time>2024-02-29T08:28:12.082Z</time>
</trkpt>
<trkpt lat="31.6359400" lon="34.9827200">
<ele>434.000000</ele>
<time>2024-02-29T08:28:12.082Z</time>
</trkpt>
<trkpt lat="31.6358000" lon="34.9827400">
<ele>432.739990</ele>
<time>2024-02-29T08:28:12.082Z</time>
</trkpt>
<trkpt lat="31.6356900" lon="34.9828500">
<ele>429.880005</ele>
<time>2024-02-29T08:28:12.082Z</time>
</trkpt>
<trkpt lat="31.6355900" lon="34.9828800">
<ele>427.690002</ele>
<time>2024-02-29T08:28:12.082Z</time>
</trkpt>
<trkpt lat="31.6355300" lon="34.9828500">
<ele>426.430023</ele>
<time>2024-02-29T08:28:12.082Z</time>
</trkpt>
<trkpt lat="31.6354800" lon="34.9828000">
<ele>425.159973</ele>
<time>2024-02-29T08:28:12.082Z</time>
</trkpt>
<trkpt lat="31.6354600" lon="34.9827600">
<ele>424.359985</ele>
<time>2024-02-29T08:28:12.082Z</time>
</trkpt>
<trkpt lat="31.6354600" lon="34.9826700">
<ele>423.170013</ele>
<time>2024-02-29T08:28:12.082Z</time>
</trkpt>
<trkpt lat="31.6355700" lon="34.9822300">
<ele>418.399994</ele>
<time>2024-02-29T08:28:12.082Z</time>
</trkpt>
<trkpt lat="31.6355500" lon="34.9820200">
<ele>415.770020</ele>
<time>2024-02-29T08:28:12.082Z</time>
</trkpt>
<trkpt lat="31.6355600" lon="34.9818900">
<ele>414.649994</ele>
<time>2024-02-29T08:28:12.082Z</time>
</trkpt>
<trkpt lat="31.6356100" lon="34.9816900">
<ele>413.580017</ele>
<time>2024-02-29T08:28:12.082Z</time>
</trkpt>
<trkpt lat="31.6355800" lon="34.9813500">
<ele>411.989990</ele>
<time>2024-02-29T08:28:12.082Z</time>
</trkpt>
<trkpt lat="31.6355400" lon="34.9812300">
<ele>412.000000</ele>
<time>2024-02-29T08:28:12.082Z</time>
</trkpt>
<trkpt lat="31.6354700" lon="34.9811400">
<ele>412.000000</ele>
<time>2024-02-29T08:28:12.082Z</time>
</trkpt>
<trkpt lat="31.6353200" lon="34.9811400">
<ele>412.000000</ele>
<time>2024-02-29T08:28:12.082Z</time>
</trkpt>
<trkpt lat="31.6352600" lon="34.9811100">
<ele>411.679993</ele>
<time>2024-02-29T08:28:12.082Z</time>
</trkpt>
<trkpt lat="31.6352100" lon="34.9810000">
<ele>410.579987</ele>
<time>2024-02-29T08:28:12.082Z</time>
</trkpt>
<trkpt lat="31.6352000" lon="34.9809100">
<ele>410.190002</ele>
<time>2024-02-29T08:28:12.082Z</time>
</trkpt>
<trkpt lat="31.6352300" lon="34.9808000">
<ele>410.600006</ele>
<time>2024-02-29T08:28:12.082Z</time>
</trkpt>
<trkpt lat="31.6352900" lon="34.9805500">
<ele>410.279999</ele>
<time>2024-02-29T08:28:12.082Z</time>
</trkpt>
<trkpt lat="31.6354200" lon="34.9803400">
<ele>414.490021</ele>
<time>2024-02-29T08:28:12.082Z</time>
</trkpt>
<trkpt lat="31.6354500" lon="34.9802700">
<ele>415.489990</ele>
<time>2024-02-29T08:28:12.082Z</time>
</trkpt>
<trkpt lat="31.6354600" lon="34.9801400">
<ele>415.789978</ele>
<time>2024-02-29T08:28:12.082Z</time>
</trkpt>
<trkpt lat="31.6354300" lon="34.9799800">
<ele>415.720001</ele>
<time>2024-02-29T08:28:12.082Z</time>
</trkpt>
<trkpt lat="31.6355100" lon="34.9797600">
<ele>417.369995</ele>
<time>2024-02-29T08:28:12.082Z</time>
</trkpt>
<trkpt lat="31.6354900" lon="34.9795800">
<ele>416.779999</ele>
<time>2024-02-29T08:28:12.082Z</time>
</trkpt>
<trkpt lat="31.6355500" lon="34.9794500">
<ele>416.959991</ele>
<time>2024-02-29T08:28:12.082Z</time>
</trkpt>
<trkpt lat="31.6354400" lon="34.9792400">
<ele>416.179993</ele>
<time>2024-02-29T08:28:12.082Z</time>
</trkpt>
<trkpt lat="31.6353800" lon="34.9791900">
<ele>415.439972</ele>
<time>2024-02-29T08:28:12.082Z</time>
</trkpt>
<trkpt lat="31.6353500" lon="34.9792000">
<ele>415.010010</ele>
<time>2024-02-29T08:28:12.082Z</time>
</trkpt>
<trkpt lat="31.6353000" lon="34.9793100">
<ele>414.280029</ele>
<time>2024-02-29T08:28:12.082Z</time>
</trkpt>
<trkpt lat="31.6352600" lon="34.9795200">
<ele>413.930023</ele>
<time>2024-02-29T08:28:12.082Z</time>
</trkpt>
<trkpt lat="31.6351700" lon="34.9796400">
<ele>412.489990</ele>
<time>2024-02-29T08:28:12.082Z</time>
</trkpt>
<trkpt lat="31.6350700" lon="34.9798200">
<ele>410.420013</ele>
<time>2024-02-29T08:28:12.082Z</time>
</trkpt>
<trkpt lat="31.6350400" lon="34.9798400">
<ele>409.799988</ele>
<time>2024-02-29T08:28:12.082Z</time>
</trkpt>
<trkpt lat="31.6350000" lon="34.9798400">
<ele>409.000000</ele>
<time>2024-02-29T08:28:12.082Z</time>
</trkpt>
<trkpt lat="31.6349800" lon="34.9798100">
<ele>408.639984</ele>
<time>2024-02-29T08:28:12.082Z</time>
</trkpt>
<trkpt lat="31.6348500" lon="34.9794200">
<ele>405.080017</ele>
<time>2024-02-29T08:28:12.082Z</time>
</trkpt>
<trkpt lat="31.6347400" lon="34.9793200">
<ele>401.579987</ele>
<time>2024-02-29T08:28:12.082Z</time>
</trkpt>
<trkpt lat="31.6345700" lon="34.9789500">
<ele>397.110016</ele>
<time>2024-02-29T08:28:12.082Z</time>
</trkpt>
<trkpt lat="31.6345900" lon="34.9786100">
<ele>395.709991</ele>
<time>2024-02-29T08:28:12.082Z</time>
</trkpt>
<trkpt lat="31.6346300" lon="34.9784700">
<ele>395.990021</ele>
<time>2024-02-29T08:28:12.082Z</time>
</trkpt>
<trkpt lat="31.6346600" lon="34.9783700">
<ele>395.960022</ele>
<time>2024-02-29T08:28:12.082Z</time>
</trkpt>
<trkpt lat="31.6346300" lon="34.9782100">
<ele>393.820007</ele>
<time>2024-02-29T08:28:12.082Z</time>
</trkpt>
<trkpt lat="31.6346400" lon="34.9781200">
<ele>393.059998</ele>
<time>2024-02-29T08:28:12.082Z</time>
</trkpt>
<trkpt lat="31.6346800" lon="34.9780500">
<ele>392.639984</ele>
<time>2024-02-29T08:28:12.082Z</time>
</trkpt>
<trkpt lat="31.6347600" lon="34.9779700">
<ele>393.390015</ele>
<time>2024-02-29T08:28:12.082Z</time>
</trkpt>
<trkpt lat="31.6348300" lon="34.9778700">
<ele>394.619995</ele>
<time>2024-02-29T08:28:12.082Z</time>
</trkpt>
<trkpt lat="31.6350200" lon="34.9775100">
<ele>393.579987</ele>
<time>2024-02-29T08:28:12.082Z</time>
</trkpt>
<trkpt lat="31.6350700" lon="34.9773100">
<ele>389.639984</ele>
<time>2024-02-29T08:28:12.082Z</time>
</trkpt>
<trkpt lat="31.6352200" lon="34.9770200">
<ele>386.410004</ele>
<time>2024-02-29T08:28:12.082Z</time>
</trkpt>
<trkpt lat="31.6354500" lon="34.9768200">
<ele>384.959991</ele>
<time>2024-02-29T08:28:12.082Z</time>
</trkpt>
<trkpt lat="31.6356000" lon="34.9767100">
<ele>384.470001</ele>
<time>2024-02-29T08:28:12.082Z</time>
</trkpt>
<trkpt lat="31.6357300" lon="34.9766500">
<ele>385.290009</ele>
<time>2024-02-29T08:28:12.082Z</time>
</trkpt>
<trkpt lat="31.6358800" lon="34.9765200">
<ele>384.589996</ele>
<time>2024-02-29T08:28:12.082Z</time>
</trkpt>
<trkpt lat="31.6359800" lon="34.9764900">
<ele>385.630005</ele>
<time>2024-02-29T08:28:12.082Z</time>
</trkpt>
<trkpt lat="31.6360400" lon="34.9764400">
<ele>385.689972</ele>
<time>2024-02-29T08:28:12.082Z</time>
</trkpt>
<trkpt lat="31.6360600" lon="34.9763800">
<ele>385.089996</ele>
<time>2024-02-29T08:28:12.082Z</time>
</trkpt>
<trkpt lat="31.6361200" lon="34.9761900">
<ele>386.020020</ele>
<time>2024-02-29T08:28:12.082Z</time>
</trkpt>
<trkpt lat="31.6361100" lon="34.9759700">
<ele>383.970001</ele>
<time>2024-02-29T08:28:12.082Z</time>
</trkpt>
<trkpt lat="31.6361700" lon="34.9758400">
<ele>382.300018</ele>
<time>2024-02-29T08:28:12.082Z</time>
</trkpt>
<trkpt lat="31.6363100" lon="34.9757400">
<ele>383.769989</ele>
<time>2024-02-29T08:28:12.082Z</time>
</trkpt>
<trkpt lat="31.6364800" lon="34.9756700">
<ele>386.470001</ele>
<time>2024-02-29T08:28:12.082Z</time>
</trkpt>
<trkpt lat="31.6367500" lon="34.9754700">
<ele>391.760010</ele>
<time>2024-02-29T08:28:12.082Z</time>
</trkpt>
<trkpt lat="31.6368400" lon="34.9753300">
<ele>394.549988</ele>
<time>2024-02-29T08:28:12.082Z</time>
</trkpt>
<trkpt lat="31.6369600" lon="34.9752800">
<ele>394.729980</ele>
<time>2024-02-29T08:28:12.082Z</time>
</trkpt>
<trkpt lat="31.6370500" lon="34.9750900">
<ele>398.730011</ele>
<time>2024-02-29T08:28:12.082Z</time>
</trkpt>
<trkpt lat="31.6371800" lon="34.9750900">
<ele>397.490021</ele>
<time>2024-02-29T08:28:12.082Z</time>
</trkpt>
<trkpt lat="31.6372500" lon="34.9750300">
<ele>398.769989</ele>
<time>2024-02-29T08:28:12.082Z</time>
</trkpt>
<trkpt lat="31.6373000" lon="34.9748500">
<ele>401.559998</ele>
<time>2024-02-29T08:28:12.082Z</time>
</trkpt>
<trkpt lat="31.6373500" lon="34.9747900">
<ele>401.699982</ele>
<time>2024-02-29T08:28:12.082Z</time>
</trkpt>
<trkpt lat="31.6375500" lon="34.9746600">
<ele>399.720001</ele>
<time>2024-02-29T08:28:12.082Z</time>
</trkpt>
<trkpt lat="31.6377100" lon="34.9746400">
<ele>398.250000</ele>
<time>2024-02-29T08:28:12.082Z</time>
</trkpt>
<trkpt lat="31.6377900" lon="34.9745600">
<ele>397.950012</ele>
<time>2024-02-29T08:28:12.082Z</time>
</trkpt>
<trkpt lat="31.6378600" lon="34.9745400">
<ele>396.829987</ele>
<time>2024-02-29T08:28:12.082Z</time>
</trkpt>
<trkpt lat="31.6378600" lon="34.9745400">
<ele>396.829987</ele>
<time>2024-02-29T08:28:12.082Z</time>
</trkpt>
<trkpt lat="31.6378600" lon="34.9745400">
<ele>396.829987</ele>
<time>2024-02-29T08:28:12.082Z</time>
</trkpt>
<trkpt lat="31.6379300" lon="34.9745200">
<ele>395.720001</ele>
<time>2024-02-29T08:28:12.082Z</time>
</trkpt>
<trkpt lat="31.6381900" lon="34.9743800">
<ele>392.620026</ele>
<time>2024-02-29T08:28:12.082Z</time>
</trkpt>
<trkpt lat="31.6384300" lon="34.9741900">
<ele>392.589996</ele>
<time>2024-02-29T08:28:12.082Z</time>
</trkpt>
<trkpt lat="31.6384800" lon="34.9741400">
<ele>392.899994</ele>
<time>2024-02-29T08:28:12.082Z</time>
</trkpt>
<trkpt lat="31.6385500" lon="34.9741300">
<ele>392.320007</ele>
<time>2024-02-29T08:28:12.082Z</time>
</trkpt>
<trkpt lat="31.6386200" lon="34.9740900">
<ele>392.339996</ele>
<time>2024-02-29T08:28:12.082Z</time>
</trkpt>
<trkpt lat="31.6387600" lon="34.9739600">
<ele>392.730011</ele>
<time>2024-02-29T08:28:12.082Z</time>
</trkpt>
<trkpt lat="31.6387900" lon="34.9738800">
<ele>392.830017</ele>
<time>2024-02-29T08:28:12.082Z</time>
</trkpt>
<trkpt lat="31.6388100" lon="34.9737600">
<ele>393.220032</ele>
<time>2024-02-29T08:28:12.082Z</time>
</trkpt>
<trkpt lat="31.6387800" lon="34.9734200">
<ele>396.070007</ele>
<time>2024-02-29T08:28:12.082Z</time>
</trkpt>
<trkpt lat="31.6387600" lon="34.9731700">
<ele>399.330017</ele>
<time>2024-02-29T08:28:12.082Z</time>
</trkpt>
<trkpt lat="31.6388300" lon="34.9727500">
<ele>403.209991</ele>
<time>2024-02-29T08:28:12.082Z</time>
</trkpt>
<trkpt lat="31.6388200" lon="34.9727000">
<ele>403.969971</ele>
<time>2024-02-29T08:28:12.082Z</time>
</trkpt>
<trkpt lat="31.6387600" lon="34.9725900">
<ele>405.930023</ele>
<time>2024-02-29T08:28:12.082Z</time>
</trkpt>
<trkpt lat="31.6387600" lon="34.9724800">
<ele>407.029999</ele>
<time>2024-02-29T08:28:12.082Z</time>
</trkpt>
<trkpt lat="31.6387600" lon="34.9724800">
<ele>407.029999</ele>
<time>2024-02-29T08:28:12.082Z</time>
</trkpt>
<trkpt lat="31.6387500" lon="34.9724400">
<ele>407.320007</ele>
<time>2024-02-29T08:28:12.082Z</time>
</trkpt>
<trkpt lat="31.6387300" lon="34.9723700">
<ele>407.880005</ele>
<time>2024-02-29T08:28:12.082Z</time>
</trkpt>
<trkpt lat="31.6387500" lon="34.9723000">
<ele>408.079987</ele>
<time>2024-02-29T08:28:12.082Z</time>
</trkpt>
<trkpt lat="31.6388500" lon="34.9721800">
<ele>407.009979</ele>
<time>2024-02-29T08:28:12.082Z</time>
</trkpt>
<trkpt lat="31.6389400" lon="34.9721100">
<ele>405.599976</ele>
<time>2024-02-29T08:28:12.082Z</time>
</trkpt>
<trkpt lat="31.6390000" lon="34.9720600">
<ele>404.850006</ele>
<time>2024-02-29T08:28:12.082Z</time>
</trkpt>
<trkpt lat="31.6390700" lon="34.9720400">
<ele>404.380005</ele>
<time>2024-02-29T08:28:12.082Z</time>
</trkpt>
<trkpt lat="31.6392500" lon="34.9720300">
<ele>403.620026</ele>
<time>2024-02-29T08:28:12.082Z</time>
</trkpt>
<trkpt lat="31.6392900" lon="34.9720100">
<ele>403.260010</ele>
<time>2024-02-29T08:28:12.082Z</time>
</trkpt>
<trkpt lat="31.6392900" lon="34.9720100">
<ele>403.260010</ele>
<time>2024-02-29T08:28:12.082Z</time>
</trkpt>
<trkpt lat="31.6394800" lon="34.9719600">
<ele>401.899994</ele>
<time>2024-02-29T08:28:12.082Z</time>
</trkpt>
<trkpt lat="31.6396600" lon="34.9719800">
<ele>400.729980</ele>
<time>2024-02-29T08:28:12.082Z</time>
</trkpt>
<trkpt lat="31.6399000" lon="34.9721800">
<ele>403.519989</ele>
<time>2024-02-29T08:28:12.082Z</time>
</trkpt>
<trkpt lat="31.6400400" lon="34.9724000">
<ele>407.459991</ele>
<time>2024-02-29T08:28:12.082Z</time>
</trkpt>
<trkpt lat="31.6401100" lon="34.9725900">
<ele>408.739990</ele>
<time>2024-02-29T08:28:12.082Z</time>
</trkpt>
<trkpt lat="31.6401300" lon="34.9726300">
<ele>408.719971</ele>
<time>2024-02-29T08:28:12.082Z</time>
</trkpt>
<trkpt lat="31.6402200" lon="34.9726900">
<ele>409.149994</ele>
<time>2024-02-29T08:28:12.082Z</time>
</trkpt>
<trkpt lat="31.6402700" lon="34.9727600">
<ele>409.069977</ele>
<time>2024-02-29T08:28:12.082Z</time>
</trkpt>
<trkpt lat="31.6403200" lon="34.9729100">
<ele>408.030029</ele>
<time>2024-02-29T08:28:12.082Z</time>
</trkpt>
<trkpt lat="31.6405200" lon="34.9732100">
<ele>405.420013</ele>
<time>2024-02-29T08:28:12.082Z</time>
</trkpt>
<trkpt lat="31.6406000" lon="34.9734000">
<ele>402.760010</ele>
<time>2024-02-29T08:28:12.082Z</time>
</trkpt>
<trkpt lat="31.6406500" lon="34.9734600">
<ele>402.570007</ele>
<time>2024-02-29T08:28:12.082Z</time>
</trkpt>
<trkpt lat="31.6408100" lon="34.9735500">
<ele>403.029999</ele>
<time>2024-02-29T08:28:12.082Z</time>
</trkpt>
<trkpt lat="31.6408900" lon="34.9736300">
<ele>402.230011</ele>
<time>2024-02-29T08:28:12.082Z</time>
</trkpt>
<trkpt lat="31.6410200" lon="34.9736800">
<ele>402.859985</ele>
<time>2024-02-29T08:28:12.082Z</time>
</trkpt>
<trkpt lat="31.6411500" lon="34.9736500">
<ele>404.560028</ele>
<time>2024-02-29T08:28:12.082Z</time>
</trkpt>
<trkpt lat="31.6412300" lon="34.9737000">
<ele>404.009979</ele>
<time>2024-02-29T08:28:12.082Z</time>
</trkpt>
<trkpt lat="31.6413800" lon="34.9736800">
<ele>404.739990</ele>
<time>2024-02-29T08:28:12.082Z</time>
</trkpt>
<trkpt lat="31.6415200" lon="34.9737000">
<ele>403.639984</ele>
<time>2024-02-29T08:28:12.082Z</time>
</trkpt>
<trkpt lat="31.6416800" lon="34.9736200">
<ele>405.489990</ele>
<time>2024-02-29T08:28:12.082Z</time>
</trkpt>
<trkpt lat="31.6419200" lon="34.9737000">
<ele>399.739990</ele>
<time>2024-02-29T08:28:12.082Z</time>
</trkpt>
<trkpt lat="31.6421000" lon="34.9737100">
<ele>397.470001</ele>
<time>2024-02-29T08:28:12.082Z</time>
</trkpt>
<trkpt lat="31.6421700" lon="34.9737000">
<ele>397.000000</ele>
<time>2024-02-29T08:28:12.082Z</time>
</trkpt>
<trkpt lat="31.6422300" lon="34.9736600">
<ele>397.350006</ele>
<time>2024-02-29T08:28:12.082Z</time>
</trkpt>
<trkpt lat="31.6423100" lon="34.9735700">
<ele>396.940002</ele>
<time>2024-02-29T08:28:12.082Z</time>
</trkpt>
<trkpt lat="31.6424600" lon="34.9733500">
<ele>398.270020</ele>
<time>2024-02-29T08:28:12.082Z</time>
</trkpt>
<trkpt lat="31.6425300" lon="34.9733100">
<ele>396.880005</ele>
<time>2024-02-29T08:28:12.082Z</time>
</trkpt>
<trkpt lat="31.6426400" lon="34.9733400">
<ele>391.299988</ele>
<time>2024-02-29T08:28:12.082Z</time>
</trkpt>
<trkpt lat="31.6427700" lon="34.9733200">
<ele>385.649994</ele>
<time>2024-02-29T08:28:12.082Z</time>
</trkpt>
<trkpt lat="31.6427900" lon="34.9732600">
<ele>386.379974</ele>
<time>2024-02-29T08:28:12.082Z</time>
</trkpt>
<trkpt lat="31.6429100" lon="34.9730500">
<ele>388.139984</ele>
<time>2024-02-29T08:28:12.082Z</time>
</trkpt>
<trkpt lat="31.6430600" lon="34.9729600">
<ele>384.899994</ele>
<time>2024-02-29T08:28:12.082Z</time>
</trkpt>
<trkpt lat="31.6431300" lon="34.9728400">
<ele>383.899994</ele>
<time>2024-02-29T08:28:12.082Z</time>
</trkpt>
<trkpt lat="31.6430800" lon="34.9727100">
<ele>384.759979</ele>
<time>2024-02-29T08:28:12.082Z</time>
</trkpt>
<trkpt lat="31.6431000" lon="34.9725700">
<ele>384.640015</ele>
<time>2024-02-29T08:28:12.082Z</time>
</trkpt>
<trkpt lat="31.6430400" lon="34.9724000">
<ele>385.940002</ele>
<time>2024-02-29T08:28:12.082Z</time>
</trkpt>
<trkpt lat="31.6431000" lon="34.9722500">
<ele>386.480011</ele>
<time>2024-02-29T08:28:12.082Z</time>
</trkpt>
<trkpt lat="31.6430400" lon="34.9721300">
<ele>386.960022</ele>
<time>2024-02-29T08:28:12.082Z</time>
</trkpt>
<trkpt lat="31.6430900" lon="34.9720000">
<ele>386.950012</ele>
<time>2024-02-29T08:28:12.082Z</time>
</trkpt>
<trkpt lat="31.6430800" lon="34.9719100">
<ele>387.470001</ele>
<time>2024-02-29T08:28:12.082Z</time>
</trkpt>
<trkpt lat="31.6429400" lon="34.9716500">
<ele>389.840027</ele>
<time>2024-02-29T08:28:12.082Z</time>
</trkpt>
<trkpt lat="31.6429500" lon="34.9715700">
<ele>390.310028</ele>
<time>2024-02-29T08:28:12.082Z</time>
</trkpt>
<trkpt lat="31.6429900" lon="34.9715000">
<ele>390.540009</ele>
<time>2024-02-29T08:28:12.082Z</time>
</trkpt>
<trkpt lat="31.6431800" lon="34.9714900">
<ele>389.179993</ele>
<time>2024-02-29T08:28:12.082Z</time>
</trkpt>
<trkpt lat="31.6432300" lon="34.9714900">
<ele>388.709991</ele>
<time>2024-02-29T08:28:12.082Z</time>
</trkpt>
<trkpt lat="31.6432300" lon="34.9714900">
<ele>388.709991</ele>
<time>2024-02-29T08:28:12.082Z</time>
</trkpt>
<trkpt lat="31.6432900" lon="34.9715000">
<ele>388.210022</ele>
<time>2024-02-29T08:28:12.082Z</time>
</trkpt>
<trkpt lat="31.6433100" lon="34.9715000">
<ele>388.019989</ele>
<time>2024-02-29T08:28:12.082Z</time>
</trkpt>
<trkpt lat="31.6435300" lon="34.9716600">
<ele>384.010010</ele>
<time>2024-02-29T08:28:12.082Z</time>
</trkpt>
<trkpt lat="31.6436700" lon="34.9717100">
<ele>380.169983</ele>
<time>2024-02-29T08:28:12.082Z</time>
</trkpt>
<trkpt lat="31.6437400" lon="34.9718000">
<ele>377.570007</ele>
<time>2024-02-29T08:28:12.082Z</time>
</trkpt>
<trkpt lat="31.6438200" lon="34.9718700">
<ele>374.720001</ele>
<time>2024-02-29T08:28:12.082Z</time>
</trkpt>
<trkpt lat="31.6440400" lon="34.9719300">
<ele>367.750031</ele>
<time>2024-02-29T08:28:12.082Z</time>
</trkpt>
<trkpt lat="31.6441100" lon="34.9719300">
<ele>365.709991</ele>
<time>2024-02-29T08:28:12.082Z</time>
</trkpt>
<trkpt lat="31.6444100" lon="34.9718200">
<ele>361.250000</ele>
<time>2024-02-29T08:28:12.082Z</time>
</trkpt>
<trkpt lat="31.6444900" lon="34.9717500">
<ele>361.240021</ele>
<time>2024-02-29T08:28:12.082Z</time>
</trkpt>
<trkpt lat="31.6446800" lon="34.9716200">
<ele>360.450012</ele>
<time>2024-02-29T08:28:12.082Z</time>
</trkpt>
<trkpt lat="31.6447900" lon="34.9715500">
<ele>360.019989</ele>
<time>2024-02-29T08:28:12.082Z</time>
</trkpt>
<trkpt lat="31.6449800" lon="34.9714500">
<ele>358.460022</ele>
<time>2024-02-29T08:28:12.082Z</time>
</trkpt>
<trkpt lat="31.6450500" lon="34.9714200">
<ele>357.670013</ele>
<time>2024-02-29T08:28:12.082Z</time>
</trkpt>
<trkpt lat="31.6451500" lon="34.9713800">
<ele>356.480011</ele>
<time>2024-02-29T08:28:12.082Z</time>
</trkpt>
<trkpt lat="31.6453600" lon="34.9712100">
<ele>357.099976</ele>
<time>2024-02-29T08:28:12.082Z</time>
</trkpt>
<trkpt lat="31.6454400" lon="34.9711300">
<ele>357.410004</ele>
<time>2024-02-29T08:28:12.082Z</time>
</trkpt>
<trkpt lat="31.6455100" lon="34.9711200">
<ele>356.570007</ele>
<time>2024-02-29T08:28:12.082Z</time>
</trkpt>
<trkpt lat="31.6456100" lon="34.9710600">
<ele>356.889984</ele>
<time>2024-02-29T08:28:12.082Z</time>
</trkpt>
<trkpt lat="31.6457400" lon="34.9709200">
<ele>357.919983</ele>
<time>2024-02-29T08:28:12.082Z</time>
</trkpt>
<trkpt lat="31.6458800" lon="34.9708600">
<ele>355.500000</ele>
<time>2024-02-29T08:28:12.082Z</time>
</trkpt>
<trkpt lat="31.6460800" lon="34.9706800">
<ele>351.090027</ele>
<time>2024-02-29T08:28:12.082Z</time>
</trkpt>
<trkpt lat="31.6462400" lon="34.9704600">
<ele>349.850006</ele>
<time>2024-02-29T08:28:12.082Z</time>
</trkpt>
<trkpt lat="31.6463500" lon="34.9702400">
<ele>350.440002</ele>
<time>2024-02-29T08:28:12.082Z</time>
</trkpt>
<trkpt lat="31.6465200" lon="34.9700900">
<ele>349.800018</ele>
<time>2024-02-29T08:28:12.082Z</time>
</trkpt>
<trkpt lat="31.6466500" lon="34.9699400">
<ele>348.760010</ele>
<time>2024-02-29T08:28:12.082Z</time>
</trkpt>
<trkpt lat="31.6468000" lon="34.9698300">
<ele>348.529968</ele>
<time>2024-02-29T08:28:12.082Z</time>
</trkpt>
<trkpt lat="31.6468500" lon="34.9697300">
<ele>348.040009</ele>
<time>2024-02-29T08:28:12.082Z</time>
</trkpt>
<trkpt lat="31.6469000" lon="34.9694800">
<ele>347.759979</ele>
<time>2024-02-29T08:28:12.082Z</time>
</trkpt>
<trkpt lat="31.6470400" lon="34.9693000">
<ele>347.509979</ele>
<time>2024-02-29T08:28:12.082Z</time>
</trkpt>
<trkpt lat="31.6471000" lon="34.9691900">
<ele>347.610016</ele>
<time>2024-02-29T08:28:12.082Z</time>
</trkpt>
<trkpt lat="31.6472000" lon="34.9691800">
<ele>347.960022</ele>
<time>2024-02-29T08:28:12.082Z</time>
</trkpt>
<trkpt lat="31.6473000" lon="34.9691600">
<ele>348.829987</ele>
<time>2024-02-29T08:28:12.082Z</time>
</trkpt>
<trkpt lat="31.6473800" lon="34.9691500">
<ele>349.670013</ele>
<time>2024-02-29T08:28:12.082Z</time>
</trkpt>
<trkpt lat="31.6473800" lon="34.9691500">
<ele>349.670013</ele>
<time>2024-02-29T08:28:12.082Z</time>
</trkpt>
<trkpt lat="31.6475300" lon="34.9691300">
<ele>351.040009</ele>
<time>2024-02-29T08:28:12.082Z</time>
</trkpt>
<trkpt lat="31.6476400" lon="34.9690800">
<ele>351.220001</ele>
<time>2024-02-29T08:28:12.082Z</time>
</trkpt>
<trkpt lat="31.6477200" lon="34.9689700">
<ele>350.190002</ele>
<time>2024-02-29T08:28:12.082Z</time>
</trkpt>
<trkpt lat="31.6477600" lon="34.9689500">
<ele>349.899994</ele>
<time>2024-02-29T08:28:12.082Z</time>
</trkpt>
<trkpt lat="31.6478100" lon="34.9689400">
<ele>350.549988</ele>
<time>2024-02-29T08:28:12.082Z</time>
</trkpt>
<trkpt lat="31.6478400" lon="34.9689800">
<ele>351.880005</ele>
<time>2024-02-29T08:28:12.082Z</time>
</trkpt>
<trkpt lat="31.6477900" lon="34.9692300">
<ele>353.759979</ele>
<time>2024-02-29T08:28:12.082Z</time>
</trkpt>
<trkpt lat="31.6479000" lon="34.9697500">
<ele>362.050018</ele>
<time>2024-02-29T08:28:12.082Z</time>
</trkpt>
<trkpt lat="31.6479000" lon="34.9697800">
<ele>362.500000</ele>
<time>2024-02-29T08:28:12.082Z</time>
</trkpt>
<trkpt lat="31.6479100" lon="34.9699100">
<ele>364.589996</ele>
<time>2024-02-29T08:28:12.082Z</time>
</trkpt>
<trkpt lat="31.6478300" lon="34.9705400">
<ele>367.820007</ele>
<time>2024-02-29T08:28:12.082Z</time>
</trkpt>
<trkpt lat="31.6477900" lon="34.9706700">
<ele>367.529999</ele>
<time>2024-02-29T08:28:12.082Z</time>
</trkpt>
<trkpt lat="31.6475500" lon="34.9711400">
<ele>370.570007</ele>
<time>2024-02-29T08:28:12.082Z</time>
</trkpt>
<trkpt lat="31.6474500" lon="34.9713900">
<ele>372.299988</ele>
<time>2024-02-29T08:28:12.082Z</time>
</trkpt>
<trkpt lat="31.6474300" lon="34.9714500">
<ele>372.820007</ele>
<time>2024-02-29T08:28:12.082Z</time>
</trkpt>
<trkpt lat="31.6474200" lon="34.9715500">
<ele>374.000031</ele>
<time>2024-02-29T08:28:12.082Z</time>
</trkpt>
<trkpt lat="31.6474800" lon="34.9718000">
<ele>377.599976</ele>
<time>2024-02-29T08:28:12.082Z</time>
</trkpt>
<trkpt lat="31.6474700" lon="34.9718400">
<ele>377.709991</ele>
<time>2024-02-29T08:28:12.082Z</time>
</trkpt>
<trkpt lat="31.6474100" lon="34.9719000">
<ele>377.059998</ele>
<time>2024-02-29T08:28:12.082Z</time>
</trkpt>
<trkpt lat="31.6474100" lon="34.9719500">
<ele>377.369995</ele>
<time>2024-02-29T08:28:12.082Z</time>
</trkpt>
<trkpt lat="31.6474400" lon="34.9719800">
<ele>377.819977</ele>
<time>2024-02-29T08:28:12.082Z</time>
</trkpt>
<trkpt lat="31.6475100" lon="34.9720000">
<ele>379.059998</ele>
<time>2024-02-29T08:28:12.082Z</time>
</trkpt>
<trkpt lat="31.6476900" lon="34.9721300">
<ele>383.580017</ele>
<time>2024-02-29T08:28:12.082Z</time>
</trkpt>
<trkpt lat="31.6477400" lon="34.9721300">
<ele>384.959991</ele>
<time>2024-02-29T08:28:12.082Z</time>
</trkpt>
<trkpt lat="31.6477800" lon="34.9721000">
<ele>386.030029</ele>
<time>2024-02-29T08:28:12.082Z</time>
</trkpt>
<trkpt lat="31.6479300" lon="34.9719100">
<ele>386.739990</ele>
<time>2024-02-29T08:28:12.082Z</time>
</trkpt>
<trkpt lat="31.6479900" lon="34.9718700">
<ele>386.869995</ele>
<time>2024-02-29T08:28:12.082Z</time>
</trkpt>
<trkpt lat="31.6482600" lon="34.9717900">
<ele>388.359985</ele>
<time>2024-02-29T08:28:12.082Z</time>
</trkpt>
<trkpt lat="31.6483900" lon="34.9717700">
<ele>389.329987</ele>
<time>2024-02-29T08:28:12.082Z</time>
</trkpt>
<trkpt lat="31.6484900" lon="34.9717900">
<ele>390.390015</ele>
<time>2024-02-29T08:28:12.082Z</time>
</trkpt>
<trkpt lat="31.6485300" lon="34.9718400">
<ele>390.750000</ele>
<time>2024-02-29T08:28:12.082Z</time>
</trkpt>
<trkpt lat="31.6485500" lon="34.9720000">
<ele>391.110016</ele>
<time>2024-02-29T08:28:12.082Z</time>
</trkpt>
<trkpt lat="31.6486400" lon="34.9722500">
<ele>392.500000</ele>
<time>2024-02-29T08:28:12.082Z</time>
</trkpt>
<trkpt lat="31.6486800" lon="34.9724300">
<ele>394.049988</ele>
<time>2024-02-29T08:28:12.082Z</time>
</trkpt>
<trkpt lat="31.6487000" lon="34.9724800">
<ele>394.519989</ele>
<time>2024-02-29T08:28:12.082Z</time>
</trkpt>
<trkpt lat="31.6487400" lon="34.9725700">
<ele>395.060028</ele>
<time>2024-02-29T08:28:12.082Z</time>
</trkpt>
<trkpt lat="31.6488000" lon="34.9726000">
<ele>395.480011</ele>
<time>2024-02-29T08:28:12.082Z</time>
</trkpt>
<trkpt lat="31.6489600" lon="34.9726400">
<ele>395.870026</ele>
<time>2024-02-29T08:28:12.082Z</time>
</trkpt>
<trkpt lat="31.6489600" lon="34.9726400">
<ele>395.870026</ele>
<time>2024-02-29T08:28:12.082Z</time>
</trkpt>
<trkpt lat="31.6489600" lon="34.9726400">
<ele>395.870026</ele>
<time>2024-02-29T08:28:12.082Z</time>
</trkpt>
<trkpt lat="31.6491700" lon="34.9725300">
<ele>395.870026</ele>
<time>2024-02-29T08:28:12.082Z</time>
</trkpt>
<trkpt lat="31.6492000" lon="34.9724800">
<ele>395.980011</ele>
<time>2024-02-29T08:28:12.082Z</time>
</trkpt>
<trkpt lat="31.6491900" lon="34.9724200">
<ele>396.699982</ele>
<time>2024-02-29T08:28:12.082Z</time>
</trkpt>
<trkpt lat="31.6491400" lon="34.9722900">
<ele>397.979980</ele>
<time>2024-02-29T08:28:12.082Z</time>
</trkpt>
<trkpt lat="31.6492100" lon="34.9722100">
<ele>398.619995</ele>
<time>2024-02-29T08:28:12.082Z</time>
</trkpt>
<trkpt lat="31.6492400" lon="34.9721700">
<ele>398.239990</ele>
<time>2024-02-29T08:28:12.082Z</time>
</trkpt>
<trkpt lat="31.6493600" lon="34.9720100">
<ele>397.679993</ele>
<time>2024-02-29T08:28:12.082Z</time>
</trkpt>
<trkpt lat="31.6493700" lon="34.9719900">
<ele>397.700012</ele>
<time>2024-02-29T08:28:12.082Z</time>
</trkpt>
<trkpt lat="31.6493800" lon="34.9719800">
<ele>397.729980</ele>
<time>2024-02-29T08:28:12.082Z</time>
</trkpt>
<trkpt lat="31.6494600" lon="34.9718900">
<ele>397.729980</ele>
<time>2024-02-29T08:28:12.082Z</time>
</trkpt>
<trkpt lat="31.6495200" lon="34.9718900">
<ele>396.689972</ele>
<time>2024-02-29T08:28:12.082Z</time>
</trkpt>
<trkpt lat="31.6496000" lon="34.9719300">
<ele>395.230011</ele>
<time>2024-02-29T08:28:12.082Z</time>
</trkpt>
<trkpt lat="31.6496000" lon="34.9719400">
<ele>395.209991</ele>
<time>2024-02-29T08:28:12.082Z</time>
</trkpt>
<trkpt lat="31.6496000" lon="34.9719300">
<ele>395.230011</ele>
<time>2024-02-29T08:28:12.082Z</time>
</trkpt>
<trkpt lat="31.6496900" lon="34.9719500">
<ele>393.510010</ele>
<time>2024-02-29T08:28:12.082Z</time>
</trkpt>
<trkpt lat="31.6497800" lon="34.9718900">
<ele>391.120026</ele>
<time>2024-02-29T08:28:12.082Z</time>
</trkpt>
<trkpt lat="31.6498600" lon="34.9717700">
<ele>388.670013</ele>
<time>2024-02-29T08:28:12.082Z</time>
</trkpt>
<trkpt lat="31.6498700" lon="34.9715800">
<ele>388.720001</ele>
<time>2024-02-29T08:28:12.082Z</time>
</trkpt>
<trkpt lat="31.6499000" lon="34.9715200">
<ele>387.899994</ele>
<time>2024-02-29T08:28:12.082Z</time>
</trkpt>
<trkpt lat="31.6499100" lon="34.9714700">
<ele>387.740021</ele>
<time>2024-02-29T08:28:12.082Z</time>
</trkpt>
<trkpt lat="31.6499100" lon="34.9714200">
<ele>387.870026</ele>
<time>2024-02-29T08:28:12.082Z</time>
</trkpt>
<trkpt lat="31.6499000" lon="34.9713200">
<ele>387.549988</ele>
<time>2024-02-29T08:28:12.082Z</time>
</trkpt>
<trkpt lat="31.6498700" lon="34.9712600">
<ele>387.480011</ele>
<time>2024-02-29T08:28:12.082Z</time>
</trkpt>
<trkpt lat="31.6498700" lon="34.9712200">
<ele>387.059998</ele>
<time>2024-02-29T08:28:12.082Z</time>
</trkpt>
<trkpt lat="31.6499300" lon="34.9711400">
<ele>385.709991</ele>
<time>2024-02-29T08:28:12.082Z</time>
</trkpt>
<trkpt lat="31.6499400" lon="34.9711000">
<ele>385.330017</ele>
<time>2024-02-29T08:28:12.082Z</time>
</trkpt>
<trkpt lat="31.6499400" lon="34.9710200">
<ele>384.559998</ele>
<time>2024-02-29T08:28:12.082Z</time>
</trkpt>
<trkpt lat="31.6499600" lon="34.9709800">
<ele>384.140015</ele>
<time>2024-02-29T08:28:12.082Z</time>
</trkpt>
<trkpt lat="31.6500400" lon="34.9709400">
<ele>383.570007</ele>
<time>2024-02-29T08:28:12.082Z</time>
</trkpt>
<trkpt lat="31.6500800" lon="34.9709200">
<ele>383.249969</ele>
<time>2024-02-29T08:28:12.082Z</time>
</trkpt>
<trkpt lat="31.6500900" lon="34.9708800">
<ele>382.959991</ele>
<time>2024-02-29T08:28:12.082Z</time>
</trkpt>
<trkpt lat="31.6501000" lon="34.9707900">
<ele>381.970001</ele>
<time>2024-02-29T08:28:12.082Z</time>
</trkpt>
<trkpt lat="31.6501300" lon="34.9707400">
<ele>381.170013</ele>
<time>2024-02-29T08:28:12.082Z</time>
</trkpt>
<trkpt lat="31.6502200" lon="34.9707000">
<ele>380.570007</ele>
<time>2024-02-29T08:28:12.082Z</time>
</trkpt>
<trkpt lat="31.6502400" lon="34.9706700">
<ele>380.209991</ele>
<time>2024-02-29T08:28:12.082Z</time>
</trkpt>
<trkpt lat="31.6502400" lon="34.9706300">
<ele>379.739990</ele>
<time>2024-02-29T08:28:12.082Z</time>
</trkpt>
<trkpt lat="31.6502000" lon="34.9705500">
<ele>378.600006</ele>
<time>2024-02-29T08:28:12.082Z</time>
</trkpt>
<trkpt lat="31.6502000" lon="34.9704800">
<ele>377.089996</ele>
<time>2024-02-29T08:28:12.082Z</time>
</trkpt>
<trkpt lat="31.6502300" lon="34.9703800">
<ele>375.039978</ele>
<time>2024-02-29T08:28:12.082Z</time>
</trkpt>
<trkpt lat="31.6503300" lon="34.9702600">
<ele>372.759979</ele>
<time>2024-02-29T08:28:12.082Z</time>
</trkpt>
<trkpt lat="31.6503600" lon="34.9701500">
<ele>371.300018</ele>
<time>2024-02-29T08:28:12.082Z</time>
</trkpt>
<trkpt lat="31.6504300" lon="34.9701500">
<ele>371.410004</ele>
<time>2024-02-29T08:28:12.082Z</time>
</trkpt>
<trkpt lat="31.6505000" lon="34.9701100">
<ele>371.070007</ele>
<time>2024-02-29T08:28:12.082Z</time>
</trkpt>
<trkpt lat="31.6505100" lon="34.9700400">
<ele>370.289978</ele>
<time>2024-02-29T08:28:12.082Z</time>
</trkpt>
<trkpt lat="31.6505500" lon="34.9700100">
<ele>370.089996</ele>
<time>2024-02-29T08:28:12.082Z</time>
</trkpt>
<trkpt lat="31.6506100" lon="34.9699000">
<ele>369.110016</ele>
<time>2024-02-29T08:28:12.082Z</time>
</trkpt>
<trkpt lat="31.6506600" lon="34.9697400">
<ele>367.610016</ele>
<time>2024-02-29T08:28:12.082Z</time>
</trkpt>
<trkpt lat="31.6508900" lon="34.9695000">
<ele>361.620026</ele>
<time>2024-02-29T08:28:12.082Z</time>
</trkpt>
<trkpt lat="31.6510900" lon="34.9694400">
<ele>357.320007</ele>
<time>2024-02-29T08:28:12.082Z</time>
</trkpt>
<trkpt lat="31.6512400" lon="34.9691800">
<ele>351.290009</ele>
<time>2024-02-29T08:28:12.082Z</time>
</trkpt>
<trkpt lat="31.6517500" lon="34.9680400">
<ele>350.589996</ele>
<time>2024-02-29T08:28:12.082Z</time>
</trkpt>
<trkpt lat="31.6521400" lon="34.9681700">
<ele>343.190002</ele>
<time>2024-02-29T08:28:12.082Z</time>
</trkpt>
<trkpt lat="31.6530800" lon="34.9683600">
<ele>333.470001</ele>
<time>2024-02-29T08:28:12.082Z</time>
</trkpt>
<trkpt lat="31.6533700" lon="34.9683800">
<ele>329.850006</ele>
<time>2024-02-29T08:28:12.082Z</time>
</trkpt>
<trkpt lat="31.6538000" lon="34.9683800">
<ele>326.789978</ele>
<time>2024-02-29T08:28:12.082Z</time>
</trkpt>
<trkpt lat="31.6543300" lon="34.9682700">
<ele>325.450012</ele>
<time>2024-02-29T08:28:12.082Z</time>
</trkpt>
<trkpt lat="31.6544400" lon="34.9682800">
<ele>325.799988</ele>
<time>2024-02-29T08:28:12.082Z</time>
</trkpt>
<trkpt lat="31.6544900" lon="34.9683000">
<ele>326.679993</ele>
<time>2024-02-29T08:28:12.082Z</time>
</trkpt>
<trkpt lat="31.6545700" lon="34.9683500">
<ele>328.409973</ele>
<time>2024-02-29T08:28:12.082Z</time>
</trkpt>
<trkpt lat="31.6546100" lon="34.9684000">
<ele>329.600006</ele>
<time>2024-02-29T08:28:12.082Z</time>
</trkpt>
<trkpt lat="31.6546000" lon="34.9686500">
<ele>331.639984</ele>
<time>2024-02-29T08:28:12.082Z</time>
</trkpt>
<trkpt lat="31.6546200" lon="34.9689600">
<ele>333.889984</ele>
<time>2024-02-29T08:28:12.082Z</time>
</trkpt>
<trkpt lat="31.6546500" lon="34.9692700">
<ele>335.349976</ele>
<time>2024-02-29T08:28:12.082Z</time>
</trkpt>
<trkpt lat="31.6546500" lon="34.9695100">
<ele>336.500031</ele>
<time>2024-02-29T08:28:12.082Z</time>
</trkpt>
<trkpt lat="31.6546800" lon="34.9697600">
<ele>337.079987</ele>
<time>2024-02-29T08:28:12.082Z</time>
</trkpt>
<trkpt lat="31.6547100" lon="34.9698700">
<ele>337.220001</ele>
<time>2024-02-29T08:28:12.082Z</time>
</trkpt>
<trkpt lat="31.6547500" lon="34.9699500">
<ele>337.480011</ele>
<time>2024-02-29T08:28:12.082Z</time>
</trkpt>
<trkpt lat="31.6548200" lon="34.9700000">
<ele>338.059998</ele>
<time>2024-02-29T08:28:12.082Z</time>
</trkpt>
<trkpt lat="31.6549200" lon="34.9700000">
<ele>339.140015</ele>
<time>2024-02-29T08:28:12.082Z</time>
</trkpt>
<trkpt lat="31.6550900" lon="34.9699000">
<ele>340.890015</ele>
<time>2024-02-29T08:28:12.082Z</time>
</trkpt>
<trkpt lat="31.6551600" lon="34.9698800">
<ele>341.339996</ele>
<time>2024-02-29T08:28:12.082Z</time>
</trkpt>
<trkpt lat="31.6552600" lon="34.9698900">
<ele>341.899994</ele>
<time>2024-02-29T08:28:12.082Z</time>
</trkpt>
<trkpt lat="31.6553700" lon="34.9699600">
<ele>342.709991</ele>
<time>2024-02-29T08:28:12.082Z</time>
</trkpt>
<trkpt lat="31.6554200" lon="34.9700200">
<ele>343.200012</ele>
<time>2024-02-29T08:28:12.082Z</time>
</trkpt>
<trkpt lat="31.6554600" lon="34.9701100">
<ele>344.240021</ele>
<time>2024-02-29T08:28:12.082Z</time>
</trkpt>
<trkpt lat="31.6555800" lon="34.9704800">
<ele>347.459991</ele>
<time>2024-02-29T08:28:12.082Z</time>
</trkpt>
<trkpt lat="31.6554900" lon="34.9706800">
<ele>349.729980</ele>
<time>2024-02-29T08:28:12.082Z</time>
</trkpt>
<trkpt lat="31.6554300" lon="34.9707500">
<ele>350.509979</ele>
<time>2024-02-29T08:28:12.082Z</time>
</trkpt>
<trkpt lat="31.6552900" lon="34.9708600">
<ele>351.380005</ele>
<time>2024-02-29T08:28:12.082Z</time>
</trkpt>
<trkpt lat="31.6552100" lon="34.9709900">
<ele>351.760010</ele>
<time>2024-02-29T08:28:12.082Z</time>
</trkpt>
<trkpt lat="31.6550900" lon="34.9712600">
<ele>349.200012</ele>
<time>2024-02-29T08:28:12.082Z</time>
</trkpt>
<trkpt lat="31.6547500" lon="34.9716000">
<ele>343.839996</ele>
<time>2024-02-29T08:28:12.082Z</time>
</trkpt>
<trkpt lat="31.6546400" lon="34.9717800">
<ele>345.329987</ele>
<time>2024-02-29T08:28:12.082Z</time>
</trkpt>
<trkpt lat="31.6544600" lon="34.9721800">
<ele>348.709991</ele>
<time>2024-02-29T08:28:12.082Z</time>
</trkpt>
<trkpt lat="31.6543800" lon="34.9724900">
<ele>355.519989</ele>
<time>2024-02-29T08:28:12.082Z</time>
</trkpt>
<trkpt lat="31.6543700" lon="34.9725900">
<ele>356.790009</ele>
<time>2024-02-29T08:28:12.082Z</time>
</trkpt>
<trkpt lat="31.6543700" lon="34.9732700">
<ele>364.410004</ele>
<time>2024-02-29T08:28:12.082Z</time>
</trkpt>
<trkpt lat="31.6543700" lon="34.9732700">
<ele>364.410004</ele>
<time>2024-02-29T08:28:12.082Z</time>
</trkpt>
<trkpt lat="31.6543700" lon="34.9732700">
<ele>364.410004</ele>
<time>2024-02-29T08:28:12.082Z</time>
</trkpt>
<trkpt lat="31.6543700" lon="34.9725900">
<ele>356.790009</ele>
<time>2024-02-29T08:28:12.082Z</time>
</trkpt>
<trkpt lat="31.6544200" lon="34.9730200">
<ele>361.540009</ele>
<time>2024-02-29T08:28:12.082Z</time>
</trkpt>
<trkpt lat="31.6545000" lon="34.9733600">
<ele>366.290009</ele>
<time>2024-02-29T08:28:12.082Z</time>
</trkpt>
<trkpt lat="31.6546500" lon="34.9735700">
<ele>368.560028</ele>
<time>2024-02-29T08:28:12.082Z</time>
</trkpt>
<trkpt lat="31.6548200" lon="34.9738500">
<ele>368.339996</ele>
<time>2024-02-29T08:28:12.082Z</time>
</trkpt>
<trkpt lat="31.6548600" lon="34.9738900">
<ele>368.479980</ele>
<time>2024-02-29T08:28:12.082Z</time>
</trkpt>
<trkpt lat="31.6550400" lon="34.9739800">
<ele>369.450012</ele>
<time>2024-02-29T08:28:12.082Z</time>
</trkpt>
<trkpt lat="31.6551000" lon="34.9740400">
<ele>369.450012</ele>
<time>2024-02-29T08:28:12.082Z</time>
</trkpt>
<trkpt lat="31.6553800" lon="34.9746000">
<ele>364.629974</ele>
<time>2024-02-29T08:28:12.082Z</time>
</trkpt>
<trkpt lat="31.6554600" lon="34.9746900">
<ele>364.499969</ele>
<time>2024-02-29T08:28:12.082Z</time>
</trkpt>
<trkpt lat="31.6559100" lon="34.9749000">
<ele>366.800018</ele>
<time>2024-02-29T08:28:12.082Z</time>
</trkpt>
<trkpt lat="31.6561000" lon="34.9750600">
<ele>370.220001</ele>
<time>2024-02-29T08:28:12.082Z</time>
</trkpt>
<trkpt lat="31.6562800" lon="34.9752800">
<ele>373.250000</ele>
<time>2024-02-29T08:28:12.082Z</time>
</trkpt>
<trkpt lat="31.6564500" lon="34.9753600">
<ele>376.189972</ele>
<time>2024-02-29T08:28:12.082Z</time>
</trkpt>
<trkpt lat="31.6565600" lon="34.9753600">
<ele>377.469971</ele>
<time>2024-02-29T08:28:12.082Z</time>
</trkpt>
<trkpt lat="31.6567700" lon="34.9752600">
<ele>378.280029</ele>
<time>2024-02-29T08:28:12.082Z</time>
</trkpt>
<trkpt lat="31.6568500" lon="34.9752700">
<ele>377.699982</ele>
<time>2024-02-29T08:28:12.082Z</time>
</trkpt>
<trkpt lat="31.6571000" lon="34.9754100">
<ele>375.140015</ele>
<time>2024-02-29T08:28:12.082Z</time>
</trkpt>
<trkpt lat="31.6573100" lon="34.9754500">
<ele>374.200012</ele>
<time>2024-02-29T08:28:12.082Z</time>
</trkpt>
<trkpt lat="31.6574000" lon="34.9755000">
<ele>374.170013</ele>
<time>2024-02-29T08:28:12.082Z</time>
</trkpt>
<trkpt lat="31.6576700" lon="34.9757600">
<ele>376.080017</ele>
<time>2024-02-29T08:28:12.082Z</time>
</trkpt>
<trkpt lat="31.6576700" lon="34.9757600">
<ele>376.080017</ele>
<time>2024-02-29T08:28:12.082Z</time>
</trkpt>
<trkpt lat="31.6579500" lon="34.9759700">
<ele>379.410004</ele>
<time>2024-02-29T08:28:12.082Z</time>
</trkpt>
<trkpt lat="31.6580400" lon="34.9760700">
<ele>381.520020</ele>
<time>2024-02-29T08:28:12.082Z</time>
</trkpt>
<trkpt lat="31.6581200" lon="34.9763400">
<ele>380.110016</ele>
<time>2024-02-29T08:28:12.082Z</time>
</trkpt>
<trkpt lat="31.6581700" lon="34.9763900">
<ele>379.839996</ele>
<time>2024-02-29T08:28:12.082Z</time>
</trkpt>
<trkpt lat="31.6582700" lon="34.9763700">
<ele>380.910004</ele>
<time>2024-02-29T08:28:12.082Z</time>
</trkpt>
<trkpt lat="31.6584700" lon="34.9762300">
<ele>384.429993</ele>
<time>2024-02-29T08:28:12.082Z</time>
</trkpt>
<trkpt lat="31.6585200" lon="34.9762200">
<ele>384.480011</ele>
<time>2024-02-29T08:28:12.082Z</time>
</trkpt>
<trkpt lat="31.6587800" lon="34.9763500">
<ele>381.989990</ele>
<time>2024-02-29T08:28:12.082Z</time>
</trkpt>
<trkpt lat="31.6588500" lon="34.9764100">
<ele>380.910004</ele>
<time>2024-02-29T08:28:12.082Z</time>
</trkpt>
<trkpt lat="31.6589600" lon="34.9766000">
<ele>382.279999</ele>
<time>2024-02-29T08:28:12.082Z</time>
</trkpt>
<trkpt lat="31.6589900" lon="34.9766800">
<ele>383.049988</ele>
<time>2024-02-29T08:28:12.082Z</time>
</trkpt>
<trkpt lat="31.6590000" lon="34.9767900">
<ele>383.440002</ele>
<time>2024-02-29T08:28:12.082Z</time>
</trkpt>
<trkpt lat="31.6589800" lon="34.9772700">
<ele>386.190002</ele>
<time>2024-02-29T08:28:12.082Z</time>
</trkpt>
<trkpt lat="31.6590000" lon="34.9773200">
<ele>386.660004</ele>
<time>2024-02-29T08:28:12.082Z</time>
</trkpt>
<trkpt lat="31.6590600" lon="34.9773600">
<ele>386.869995</ele>
<time>2024-02-29T08:28:12.082Z</time>
</trkpt>
<trkpt lat="31.6591300" lon="34.9773400">
<ele>386.399994</ele>
<time>2024-02-29T08:28:12.082Z</time>
</trkpt>
<trkpt lat="31.6592000" lon="34.9772600">
<ele>385.750000</ele>
<time>2024-02-29T08:28:12.082Z</time>
</trkpt>
<trkpt lat="31.6593300" lon="34.9770100">
<ele>386.000000</ele>
<time>2024-02-29T08:28:12.082Z</time>
</trkpt>
<trkpt lat="31.6593900" lon="34.9769400">
<ele>386.379974</ele>
<time>2024-02-29T08:28:12.082Z</time>
</trkpt>
<trkpt lat="31.6594600" lon="34.9769400">
<ele>387.300018</ele>
<time>2024-02-29T08:28:12.082Z</time>
</trkpt>
<trkpt lat="31.6595100" lon="34.9770100">
<ele>388.599976</ele>
<time>2024-02-29T08:28:12.082Z</time>
</trkpt>
<trkpt lat="31.6595400" lon="34.9771800">
<ele>389.620026</ele>
<time>2024-02-29T08:28:12.082Z</time>
</trkpt>
<trkpt lat="31.6595700" lon="34.9772600">
<ele>390.470001</ele>
<time>2024-02-29T08:28:12.082Z</time>
</trkpt>
<trkpt lat="31.6596200" lon="34.9774200">
<ele>392.130005</ele>
<time>2024-02-29T08:28:12.082Z</time>
</trkpt>
<trkpt lat="31.6596200" lon="34.9777300">
<ele>394.710022</ele>
<time>2024-02-29T08:28:12.082Z</time>
</trkpt>
<trkpt lat="31.6596000" lon="34.9779100">
<ele>395.490021</ele>
<time>2024-02-29T08:28:12.082Z</time>
</trkpt>
<trkpt lat="31.6596100" lon="34.9780900">
<ele>396.529999</ele>
<time>2024-02-29T08:28:12.082Z</time>
</trkpt>
<trkpt lat="31.6596800" lon="34.9783800">
<ele>398.380005</ele>
<time>2024-02-29T08:28:12.082Z</time>
</trkpt>
<trkpt lat="31.6597000" lon="34.9785500">
<ele>400.320007</ele>
<time>2024-02-29T08:28:12.082Z</time>
</trkpt>
<trkpt lat="31.6597000" lon="34.9790300">
<ele>405.100006</ele>
<time>2024-02-29T08:28:12.082Z</time>
</trkpt>
<trkpt lat="31.6596900" lon="34.9791200">
<ele>405.859985</ele>
<time>2024-02-29T08:28:12.082Z</time>
</trkpt>
<trkpt lat="31.6596500" lon="34.9792000">
<ele>406.879974</ele>
<time>2024-02-29T08:28:12.082Z</time>
</trkpt>
<trkpt lat="31.6595900" lon="34.9792600">
<ele>407.959991</ele>
<time>2024-02-29T08:28:12.082Z</time>
</trkpt>
<trkpt lat="31.6595100" lon="34.9792900">
<ele>408.859985</ele>
<time>2024-02-29T08:28:12.082Z</time>
</trkpt>
<trkpt lat="31.6594600" lon="34.9793000">
<ele>409.329987</ele>
<time>2024-02-29T08:28:12.082Z</time>
</trkpt>
<trkpt lat="31.6594000" lon="34.9792800">
<ele>409.060028</ele>
<time>2024-02-29T08:28:12.082Z</time>
</trkpt>
<trkpt lat="31.6592200" lon="34.9792100">
<ele>407.660004</ele>
<time>2024-02-29T08:28:12.082Z</time>
</trkpt>
<trkpt lat="31.6589900" lon="34.9793000">
<ele>408.769989</ele>
<time>2024-02-29T08:28:12.082Z</time>
</trkpt>
<trkpt lat="31.6589500" lon="34.9793400">
<ele>409.170013</ele>
<time>2024-02-29T08:28:12.082Z</time>
</trkpt>
<trkpt lat="31.6589500" lon="34.9793400">
<ele>409.170013</ele>
<time>2024-02-29T08:28:12.082Z</time>
</trkpt>
<trkpt lat="31.6589500" lon="34.9793400">
<ele>409.170013</ele>
<time>2024-02-29T08:28:12.082Z</time>
</trkpt>
<trkpt lat="31.6589300" lon="34.9794200">
<ele>409.809998</ele>
<time>2024-02-29T08:28:12.082Z</time>
</trkpt>
<trkpt lat="31.6589000" lon="34.9795500">
<ele>410.380005</ele>
<time>2024-02-29T08:28:12.082Z</time>
</trkpt>
<trkpt lat="31.6589300" lon="34.9796300">
<ele>410.670013</ele>
<time>2024-02-29T08:28:12.082Z</time>
</trkpt>
<trkpt lat="31.6589700" lon="34.9796600">
<ele>410.779999</ele>
<time>2024-02-29T08:28:12.082Z</time>
</trkpt>
<trkpt lat="31.6592900" lon="34.9797700">
<ele>410.190002</ele>
<time>2024-02-29T08:28:12.082Z</time>
</trkpt>
<trkpt lat="31.6594900" lon="34.9797800">
<ele>409.339996</ele>
<time>2024-02-29T08:28:12.082Z</time>
</trkpt>
<trkpt lat="31.6596600" lon="34.9797400">
<ele>409.789978</ele>
<time>2024-02-29T08:28:12.082Z</time>
</trkpt>
<trkpt lat="31.6597400" lon="34.9797000">
<ele>409.980011</ele>
<time>2024-02-29T08:28:12.082Z</time>
</trkpt>
<trkpt lat="31.6597900" lon="34.9796700">
<ele>410.059998</ele>
<time>2024-02-29T08:28:12.082Z</time>
</trkpt>
<trkpt lat="31.6598900" lon="34.9796300">
<ele>410.269989</ele>
<time>2024-02-29T08:28:12.082Z</time>
</trkpt>
<trkpt lat="31.6599600" lon="34.9795500">
<ele>410.239990</ele>
<time>2024-02-29T08:28:12.082Z</time>
</trkpt>
<trkpt lat="31.6599700" lon="34.9795100">
<ele>410.130005</ele>
<time>2024-02-29T08:28:12.082Z</time>
</trkpt>
<trkpt lat="31.6600000" lon="34.9795200">
<ele>410.269989</ele>
<time>2024-02-29T08:28:12.082Z</time>
</trkpt>
<trkpt lat="31.6599700" lon="34.9795100">
<ele>410.130005</ele>
<time>2024-02-29T08:28:12.082Z</time>
</trkpt>
<trkpt lat="31.6600400" lon="34.9793100">
<ele>409.749969</ele>
<time>2024-02-29T08:28:12.082Z</time>
</trkpt>
<trkpt lat="31.6600900" lon="34.9791800">
<ele>409.720001</ele>
<time>2024-02-29T08:28:12.082Z</time>
</trkpt>
<trkpt lat="31.6600900" lon="34.9790300">
<ele>408.649994</ele>
<time>2024-02-29T08:28:12.082Z</time>
</trkpt>
<trkpt lat="31.6601100" lon="34.9789700">
<ele>408.429993</ele>
<time>2024-02-29T08:28:12.082Z</time>
</trkpt>
<trkpt lat="31.6601300" lon="34.9788400">
<ele>407.130005</ele>
<time>2024-02-29T08:28:12.082Z</time>
</trkpt>
<trkpt lat="31.6601300" lon="34.9787100">
<ele>404.980011</ele>
<time>2024-02-29T08:28:12.082Z</time>
</trkpt>
<trkpt lat="31.6601700" lon="34.9782600">
<ele>402.709991</ele>
<time>2024-02-29T08:28:12.082Z</time>
</trkpt>
<trkpt lat="31.6601900" lon="34.9775700">
<ele>401.820007</ele>
<time>2024-02-29T08:28:12.082Z</time>
</trkpt>
<trkpt lat="31.6602100" lon="34.9765700">
<ele>400.910004</ele>
<time>2024-02-29T08:28:12.082Z</time>
</trkpt>
<trkpt lat="31.6602400" lon="34.9764900">
<ele>400.880005</ele>
<time>2024-02-29T08:28:12.082Z</time>
</trkpt>
<trkpt lat="31.6602300" lon="34.9764900">
<ele>400.649994</ele>
<time>2024-02-29T08:28:12.082Z</time>
</trkpt>
<trkpt lat="31.6602400" lon="34.9764900">
<ele>400.880005</ele>
<time>2024-02-29T08:28:12.082Z</time>
</trkpt>
<trkpt lat="31.6603900" lon="34.9760400">
<ele>401.250000</ele>
<time>2024-02-29T08:28:12.082Z</time>
</trkpt>
<trkpt lat="31.6603300" lon="34.9757800">
<ele>398.720001</ele>
<time>2024-02-29T08:28:12.082Z</time>
</trkpt>
<trkpt lat="31.6603600" lon="34.9755300">
<ele>398.959991</ele>
<time>2024-02-29T08:28:12.082Z</time>
</trkpt>
<trkpt lat="31.6603700" lon="34.9754300">
<ele>399.300018</ele>
<time>2024-02-29T08:28:12.082Z</time>
</trkpt>
<trkpt lat="31.6603200" lon="34.9752200">
<ele>399.750000</ele>
<time>2024-02-29T08:28:12.082Z</time>
</trkpt>
<trkpt lat="31.6602000" lon="34.9751200">
<ele>399.359985</ele>
<time>2024-02-29T08:28:12.082Z</time>
</trkpt>
<trkpt lat="31.6601500" lon="34.9750000">
<ele>399.540009</ele>
<time>2024-02-29T08:28:12.082Z</time>
</trkpt>
<trkpt lat="31.6600700" lon="34.9748700">
<ele>398.079987</ele>
<time>2024-02-29T08:28:12.082Z</time>
</trkpt>
<trkpt lat="31.6600000" lon="34.9746900">
<ele>396.070007</ele>
<time>2024-02-29T08:28:12.082Z</time>
</trkpt>
<trkpt lat="31.6599200" lon="34.9745400">
<ele>391.450012</ele>
<time>2024-02-29T08:28:12.082Z</time>
</trkpt>
<trkpt lat="31.6599300" lon="34.9745400">
<ele>391.489990</ele>
<time>2024-02-29T08:28:12.082Z</time>
</trkpt>
<trkpt lat="31.6598700" lon="34.9744100">
<ele>388.369995</ele>
<time>2024-02-29T08:28:12.082Z</time>
</trkpt>
<trkpt lat="31.6598700" lon="34.9744100">
<ele>388.369995</ele>
<time>2024-02-29T08:28:12.082Z</time>
</trkpt>
<trkpt lat="31.6598600" lon="34.9743800">
<ele>387.839996</ele>
<time>2024-02-29T08:28:12.082Z</time>
</trkpt>
<trkpt lat="31.6598600" lon="34.9742000">
<ele>384.610016</ele>
<time>2024-02-29T08:28:12.082Z</time>
</trkpt>
<trkpt lat="31.6597700" lon="34.9738000">
<ele>386.859985</ele>
<time>2024-02-29T08:28:12.082Z</time>
</trkpt>
<trkpt lat="31.6597700" lon="34.9738000">
<ele>386.859985</ele>
<time>2024-02-29T08:28:12.082Z</time>
</trkpt>
<trkpt lat="31.6597300" lon="34.9736600">
<ele>389.979980</ele>
<time>2024-02-29T08:28:12.082Z</time>
</trkpt>
<trkpt lat="31.6594800" lon="34.9735900">
<ele>394.720032</ele>
<time>2024-02-29T08:28:12.082Z</time>
</trkpt>
<trkpt lat="31.6593800" lon="34.9735100">
<ele>396.070007</ele>
<time>2024-02-29T08:28:12.082Z</time>
</trkpt>
<trkpt lat="31.6594800" lon="34.9735900">
<ele>394.720032</ele>
<time>2024-02-29T08:28:12.082Z</time>
</trkpt>
<trkpt lat="31.6597300" lon="34.9736600">
<ele>389.979980</ele>
<time>2024-02-29T08:28:12.082Z</time>
</trkpt>
<trkpt lat="31.6597100" lon="34.9734800">
<ele>392.589996</ele>
<time>2024-02-29T08:28:12.082Z</time>
</trkpt>
<trkpt lat="31.6597200" lon="34.9731700">
<ele>394.039978</ele>
<time>2024-02-29T08:28:12.082Z</time>
</trkpt>
<trkpt lat="31.6597200" lon="34.9731700">
<ele>394.039978</ele>
<time>2024-02-29T08:28:12.082Z</time>
</trkpt>
<trkpt lat="31.6597200" lon="34.9731700">
<ele>394.039978</ele>
<time>2024-02-29T08:28:12.082Z</time>
</trkpt>
<trkpt lat="31.6597300" lon="34.9730700">
<ele>393.890015</ele>
<time>2024-02-29T08:28:12.082Z</time>
</trkpt>
<trkpt lat="31.6598100" lon="34.9725400">
<ele>391.469971</ele>
<time>2024-02-29T08:28:12.082Z</time>
</trkpt>
<trkpt lat="31.6598100" lon="34.9722500">
<ele>388.049988</ele>
<time>2024-02-29T08:28:12.082Z</time>
</trkpt>
<trkpt lat="31.6598500" lon="34.9721200">
<ele>386.769989</ele>
<time>2024-02-29T08:28:12.082Z</time>
</trkpt>
<trkpt lat="31.6599900" lon="34.9719200">
<ele>385.959991</ele>
<time>2024-02-29T08:28:12.082Z</time>
</trkpt>
<trkpt lat="31.6603200" lon="34.9716100">
<ele>388.559998</ele>
<time>2024-02-29T08:28:12.082Z</time>
</trkpt>
<trkpt lat="31.6604400" lon="34.9715200">
<ele>389.639984</ele>
<time>2024-02-29T08:28:12.082Z</time>
</trkpt>
<trkpt lat="31.6606900" lon="34.9713700">
<ele>390.760010</ele>
<time>2024-02-29T08:28:12.082Z</time>
</trkpt>
<trkpt lat="31.6608400" lon="34.9712500">
<ele>390.059998</ele>
<time>2024-02-29T08:28:12.082Z</time>
</trkpt>
<trkpt lat="31.6610000" lon="34.9710700">
<ele>390.420013</ele>
<time>2024-02-29T08:28:12.082Z</time>
</trkpt>
<trkpt lat="31.6611300" lon="34.9708700">
<ele>391.290009</ele>
<time>2024-02-29T08:28:12.082Z</time>
</trkpt>
<trkpt lat="31.6611700" lon="34.9702600">
<ele>390.439972</ele>
<time>2024-02-29T08:28:12.082Z</time>
</trkpt>
<trkpt lat="31.6612300" lon="34.9699700">
<ele>388.859985</ele>
<time>2024-02-29T08:28:12.082Z</time>
</trkpt>
<trkpt lat="31.6613000" lon="34.9697200">
<ele>389.350006</ele>
<time>2024-02-29T08:28:12.082Z</time>
</trkpt>
<trkpt lat="31.6614500" lon="34.9689200">
<ele>387.160004</ele>
<time>2024-02-29T08:28:12.082Z</time>
</trkpt>
<trkpt lat="31.6614000" lon="34.9687400">
<ele>386.490021</ele>
<time>2024-02-29T08:28:12.082Z</time>
</trkpt>
<trkpt lat="31.6614100" lon="34.9687000">
<ele>386.370026</ele>
<time>2024-02-29T08:28:12.082Z</time>
</trkpt>
<trkpt lat="31.6615600" lon="34.9685100">
<ele>386.030029</ele>
<time>2024-02-29T08:28:12.082Z</time>
</trkpt>
<trkpt lat="31.6616700" lon="34.9683200">
<ele>384.860016</ele>
<time>2024-02-29T08:28:12.082Z</time>
</trkpt>
<trkpt lat="31.6617700" lon="34.9682100">
<ele>382.459991</ele>
<time>2024-02-29T08:28:12.082Z</time>
</trkpt>
<trkpt lat="31.6619100" lon="34.9680300">
<ele>378.859985</ele>
<time>2024-02-29T08:28:12.082Z</time>
</trkpt>
<trkpt lat="31.6620300" lon="34.9678400">
<ele>378.169983</ele>
<time>2024-02-29T08:28:12.082Z</time>
</trkpt>
<trkpt lat="31.6621400" lon="34.9677100">
<ele>377.049988</ele>
<time>2024-02-29T08:28:12.082Z</time>
</trkpt>
<trkpt lat="31.6621400" lon="34.9677100">
<ele>377.049988</ele>
<time>2024-02-29T08:28:12.082Z</time>
</trkpt>
<trkpt lat="31.6622000" lon="34.9675600">
<ele>377.699982</ele>
<time>2024-02-29T08:28:12.082Z</time>
</trkpt>
<trkpt lat="31.6622800" lon="34.9674700">
<ele>376.899994</ele>
<time>2024-02-29T08:28:12.082Z</time>
</trkpt>
<trkpt lat="31.6624200" lon="34.9673600">
<ele>374.949982</ele>
<time>2024-02-29T08:28:12.082Z</time>
</trkpt>
<trkpt lat="31.6625000" lon="34.9672700">
<ele>374.479980</ele>
<time>2024-02-29T08:28:12.082Z</time>
</trkpt>
<trkpt lat="31.6625700" lon="34.9670900">
<ele>374.739990</ele>
<time>2024-02-29T08:28:12.082Z</time>
</trkpt>
<trkpt lat="31.6626400" lon="34.9669900">
<ele>374.829987</ele>
<time>2024-02-29T08:28:12.082Z</time>
</trkpt>
<trkpt lat="31.6629300" lon="34.9667400">
<ele>373.290009</ele>
<time>2024-02-29T08:28:12.082Z</time>
</trkpt>
<trkpt lat="31.6630600" lon="34.9665900">
<ele>370.940002</ele>
<time>2024-02-29T08:28:12.082Z</time>
</trkpt>
<trkpt lat="31.6631100" lon="34.9665200">
<ele>370.220001</ele>
<time>2024-02-29T08:28:12.082Z</time>
</trkpt>
<trkpt lat="31.6631700" lon="34.9663200">
<ele>369.700012</ele>
<time>2024-02-29T08:28:12.082Z</time>
</trkpt>
<trkpt lat="31.6632400" lon="34.9661900">
<ele>369.540009</ele>
<time>2024-02-29T08:28:12.082Z</time>
</trkpt>
<trkpt lat="31.6633400" lon="34.9661000">
<ele>369.089996</ele>
<time>2024-02-29T08:28:12.082Z</time>
</trkpt>
<trkpt lat="31.6636100" lon="34.9659100">
<ele>370.270020</ele>
<time>2024-02-29T08:28:12.082Z</time>
</trkpt>
<trkpt lat="31.6636600" lon="34.9658500">
<ele>370.589996</ele>
<time>2024-02-29T08:28:12.082Z</time>
</trkpt>
<trkpt lat="31.6637500" lon="34.9655800">
<ele>368.309998</ele>
<time>2024-02-29T08:28:12.082Z</time>
</trkpt>
<trkpt lat="31.6640400" lon="34.9649600">
<ele>368.009979</ele>
<time>2024-02-29T08:28:12.082Z</time>
</trkpt>
<trkpt lat="31.6642600" lon="34.9644300">
<ele>366.750000</ele>
<time>2024-02-29T08:28:12.082Z</time>
</trkpt>
<trkpt lat="31.6643400" lon="34.9641900">
<ele>364.089996</ele>
<time>2024-02-29T08:28:12.082Z</time>
</trkpt>
<trkpt lat="31.6643800" lon="34.9641200">
<ele>363.559998</ele>
<time>2024-02-29T08:28:12.082Z</time>
</trkpt>
<trkpt lat="31.6644800" lon="34.9640000">
<ele>363.070007</ele>
<time>2024-02-29T08:28:12.082Z</time>
</trkpt>
<trkpt lat="31.6651500" lon="34.9633800">
<ele>373.029999</ele>
<time>2024-02-29T08:28:12.082Z</time>
</trkpt>
<trkpt lat="31.6652200" lon="34.9632900">
<ele>372.660004</ele>
<time>2024-02-29T08:28:12.082Z</time>
</trkpt>
<trkpt lat="31.6652700" lon="34.9632100">
<ele>371.720001</ele>
<time>2024-02-29T08:28:12.082Z</time>
</trkpt>
<trkpt lat="31.6656300" lon="34.9624300">
<ele>373.400024</ele>
<time>2024-02-29T08:28:12.082Z</time>
</trkpt>
<trkpt lat="31.6656800" lon="34.9623600">
<ele>372.880005</ele>
<time>2024-02-29T08:28:12.082Z</time>
</trkpt>
<trkpt lat="31.6660200" lon="34.9621400">
<ele>370.600006</ele>
<time>2024-02-29T08:28:12.082Z</time>
</trkpt>
<trkpt lat="31.6661800" lon="34.9621400">
<ele>369.420013</ele>
<time>2024-02-29T08:28:12.082Z</time>
</trkpt>
<trkpt lat="31.6663900" lon="34.9620800">
<ele>365.959991</ele>
<time>2024-02-29T08:28:12.082Z</time>
</trkpt>
<trkpt lat="31.6664600" lon="34.9620800">
<ele>365.080017</ele>
<time>2024-02-29T08:28:12.082Z</time>
</trkpt>
<trkpt lat="31.6665900" lon="34.9621300">
<ele>363.920013</ele>
<time>2024-02-29T08:28:12.082Z</time>
</trkpt>
<trkpt lat="31.6666200" lon="34.9621100">
<ele>363.359985</ele>
<time>2024-02-29T08:28:12.082Z</time>
</trkpt>
<trkpt lat="31.6666000" lon="34.9620300">
<ele>362.809998</ele>
<time>2024-02-29T08:28:12.082Z</time>
</trkpt>
<trkpt lat="31.6665700" lon="34.9619600">
<ele>362.539978</ele>
<time>2024-02-29T08:28:12.082Z</time>
</trkpt>
<trkpt lat="31.6665500" lon="34.9617900">
<ele>361.570007</ele>
<time>2024-02-29T08:28:12.082Z</time>
</trkpt>
<trkpt lat="31.6665100" lon="34.9616300">
<ele>360.579987</ele>
<time>2024-02-29T08:28:12.082Z</time>
</trkpt>
<trkpt lat="31.6665300" lon="34.9615000">
<ele>357.980011</ele>
<time>2024-02-29T08:28:12.082Z</time>
</trkpt>
<trkpt lat="31.6665900" lon="34.9613500">
<ele>354.770020</ele>
<time>2024-02-29T08:28:12.082Z</time>
</trkpt>
<trkpt lat="31.6666200" lon="34.9613200">
<ele>353.809998</ele>
<time>2024-02-29T08:28:12.082Z</time>
</trkpt>
<trkpt lat="31.6666500" lon="34.9613300">
<ele>353.700012</ele>
<time>2024-02-29T08:28:12.082Z</time>
</trkpt>
<trkpt lat="31.6667800" lon="34.9614100">
<ele>353.669983</ele>
<time>2024-02-29T08:28:12.082Z</time>
</trkpt>
<trkpt lat="31.6669900" lon="34.9614700">
<ele>351.559998</ele>
<time>2024-02-29T08:28:12.082Z</time>
</trkpt>
<trkpt lat="31.6671000" lon="34.9614700">
<ele>350.089996</ele>
<time>2024-02-29T08:28:12.082Z</time>
</trkpt>
<trkpt lat="31.6671600" lon="34.9614400">
<ele>348.770020</ele>
<time>2024-02-29T08:28:12.082Z</time>
</trkpt>
<trkpt lat="31.6672100" lon="34.9613800">
<ele>346.890015</ele>
<time>2024-02-29T08:28:12.082Z</time>
</trkpt>
<trkpt lat="31.6672300" lon="34.9611700">
<ele>339.849976</ele>
<time>2024-02-29T08:28:12.082Z</time>
</trkpt>
<trkpt lat="31.6672700" lon="34.9610500">
<ele>336.299988</ele>
<time>2024-02-29T08:28:12.082Z</time>
</trkpt>
<trkpt lat="31.6674400" lon="34.9607800">
<ele>328.960022</ele>
<time>2024-02-29T08:28:12.082Z</time>
</trkpt>
<trkpt lat="31.6677300" lon="34.9606100">
<ele>326.269989</ele>
<time>2024-02-29T08:28:12.082Z</time>
</trkpt>
<trkpt lat="31.6677500" lon="34.9605800">
<ele>325.589996</ele>
<time>2024-02-29T08:28:12.082Z</time>
</trkpt>
<trkpt lat="31.6678200" lon="34.9603400">
<ele>322.269989</ele>
<time>2024-02-29T08:28:12.082Z</time>
</trkpt>
<trkpt lat="31.6679000" lon="34.9602600">
<ele>320.029999</ele>
<time>2024-02-29T08:28:12.082Z</time>
</trkpt>
<trkpt lat="31.6680300" lon="34.9601800">
<ele>316.710022</ele>
<time>2024-02-29T08:28:12.082Z</time>
</trkpt>
<trkpt lat="31.6681700" lon="34.9601500">
<ele>315.730011</ele>
<time>2024-02-29T08:28:12.082Z</time>
</trkpt>
<trkpt lat="31.6682800" lon="34.9600400">
<ele>313.139984</ele>
<time>2024-02-29T08:28:12.082Z</time>
</trkpt>
<trkpt lat="31.6683900" lon="34.9599400">
<ele>312.380005</ele>
<time>2024-02-29T08:28:12.082Z</time>
</trkpt>
<trkpt lat="31.6685100" lon="34.9597800">
<ele>312.919983</ele>
<time>2024-02-29T08:28:12.082Z</time>
</trkpt>
<trkpt lat="31.6685600" lon="34.9597200">
<ele>313.029999</ele>
<time>2024-02-29T08:28:12.082Z</time>
</trkpt>
<trkpt lat="31.6686700" lon="34.9596100">
<ele>315.000000</ele>
<time>2024-02-29T08:28:12.082Z</time>
</trkpt>
<trkpt lat="31.6688200" lon="34.9593200">
<ele>317.220001</ele>
<time>2024-02-29T08:28:12.082Z</time>
</trkpt>
<trkpt lat="31.6688700" lon="34.9592600">
<ele>317.089996</ele>
<time>2024-02-29T08:28:12.082Z</time>
</trkpt>
<trkpt lat="31.6689900" lon="34.9591800">
<ele>317.679993</ele>
<time>2024-02-29T08:28:12.082Z</time>
</trkpt>
<trkpt lat="31.6691400" lon="34.9591900">
<ele>318.579987</ele>
<time>2024-02-29T08:28:12.082Z</time>
</trkpt>
<trkpt lat="31.6692400" lon="34.9591600">
<ele>318.019989</ele>
<time>2024-02-29T08:28:12.082Z</time>
</trkpt>
<trkpt lat="31.6694100" lon="34.9590000">
<ele>318.799988</ele>
<time>2024-02-29T08:28:12.082Z</time>
</trkpt>
<trkpt lat="31.6695800" lon="34.9589300">
<ele>318.160004</ele>
<time>2024-02-29T08:28:12.082Z</time>
</trkpt>
<trkpt lat="31.6696800" lon="34.9588200">
<ele>317.400024</ele>
<time>2024-02-29T08:28:12.082Z</time>
</trkpt>
<trkpt lat="31.6697400" lon="34.9587700">
<ele>316.420013</ele>
<time>2024-02-29T08:28:12.082Z</time>
</trkpt>
<trkpt lat="31.6698800" lon="34.9587700">
<ele>315.190002</ele>
<time>2024-02-29T08:28:12.082Z</time>
</trkpt>
<trkpt lat="31.6700200" lon="34.9587800">
<ele>313.559998</ele>
<time>2024-02-29T08:28:12.082Z</time>
</trkpt>
<trkpt lat="31.6700900" lon="34.9587600">
<ele>312.529999</ele>
<time>2024-02-29T08:28:12.082Z</time>
</trkpt>
<trkpt lat="31.6701800" lon="34.9586900">
<ele>312.160004</ele>
<time>2024-02-29T08:28:12.082Z</time>
</trkpt>
<trkpt lat="31.6702900" lon="34.9585700">
<ele>312.929993</ele>
<time>2024-02-29T08:28:12.082Z</time>
</trkpt>
<trkpt lat="31.6704400" lon="34.9584700">
<ele>312.860016</ele>
<time>2024-02-29T08:28:12.082Z</time>
</trkpt>
<trkpt lat="31.6705600" lon="34.9583100">
<ele>315.059998</ele>
<time>2024-02-29T08:28:12.082Z</time>
</trkpt>
<trkpt lat="31.6707100" lon="34.9582200">
<ele>312.829987</ele>
<time>2024-02-29T08:28:12.082Z</time>
</trkpt>
<trkpt lat="31.6708100" lon="34.9580400">
<ele>314.519989</ele>
<time>2024-02-29T08:28:12.082Z</time>
</trkpt>
<trkpt lat="31.6708900" lon="34.9579500">
<ele>314.549988</ele>
<time>2024-02-29T08:28:12.082Z</time>
</trkpt>
<trkpt lat="31.6709900" lon="34.9577700">
<ele>315.669983</ele>
<time>2024-02-29T08:28:12.082Z</time>
</trkpt>
<trkpt lat="31.6712200" lon="34.9575000">
<ele>311.859985</ele>
<time>2024-02-29T08:28:12.082Z</time>
</trkpt>
<trkpt lat="31.6713900" lon="34.9573600">
<ele>308.980011</ele>
<time>2024-02-29T08:28:12.082Z</time>
</trkpt>
<trkpt lat="31.6715700" lon="34.9571400">
<ele>307.950012</ele>
<time>2024-02-29T08:28:12.082Z</time>
</trkpt>
<trkpt lat="31.6716400" lon="34.9570000">
<ele>310.010010</ele>
<time>2024-02-29T08:28:12.082Z</time>
</trkpt>
<trkpt lat="31.6716600" lon="34.9568700">
<ele>311.940002</ele>
<time>2024-02-29T08:28:12.082Z</time>
</trkpt>
<trkpt lat="31.6716400" lon="34.9566700">
<ele>314.450012</ele>
<time>2024-02-29T08:28:12.082Z</time>
</trkpt>
<trkpt lat="31.6714700" lon="34.9564500">
<ele>315.980011</ele>
<time>2024-02-29T08:28:12.082Z</time>
</trkpt>
<trkpt lat="31.6714500" lon="34.9563700">
<ele>315.730011</ele>
<time>2024-02-29T08:28:12.082Z</time>
</trkpt>
<trkpt lat="31.6714500" lon="34.9562800">
<ele>314.899994</ele>
<time>2024-02-29T08:28:12.082Z</time>
</trkpt>
<trkpt lat="31.6714700" lon="34.9561600">
<ele>313.550018</ele>
<time>2024-02-29T08:28:12.082Z</time>
</trkpt>
<trkpt lat="31.6715300" lon="34.9559600">
<ele>312.220001</ele>
<time>2024-02-29T08:28:12.082Z</time>
</trkpt>
<trkpt lat="31.6714800" lon="34.9558100">
<ele>311.859985</ele>
<time>2024-02-29T08:28:12.082Z</time>
</trkpt>
<trkpt lat="31.6714700" lon="34.9557200">
<ele>311.299988</ele>
<time>2024-02-29T08:28:12.082Z</time>
</trkpt>
<trkpt lat="31.6714900" lon="34.9553900">
<ele>309.769989</ele>
<time>2024-02-29T08:28:12.082Z</time>
</trkpt>
<trkpt lat="31.6713800" lon="34.9550300">
<ele>308.820007</ele>
<time>2024-02-29T08:28:12.082Z</time>
</trkpt>
<trkpt lat="31.6713800" lon="34.9547700">
<ele>307.979980</ele>
<time>2024-02-29T08:28:12.082Z</time>
</trkpt>
<trkpt lat="31.6714200" lon="34.9545700">
<ele>306.549988</ele>
<time>2024-02-29T08:28:12.082Z</time>
</trkpt>
<trkpt lat="31.6714200" lon="34.9544000">
<ele>304.720001</ele>
<time>2024-02-29T08:28:12.082Z</time>
</trkpt>
<trkpt lat="31.6715400" lon="34.9541300">
<ele>306.750000</ele>
<time>2024-02-29T08:28:12.082Z</time>
</trkpt>
<trkpt lat="31.6716700" lon="34.9539900">
<ele>310.070007</ele>
<time>2024-02-29T08:28:12.082Z</time>
</trkpt>
<trkpt lat="31.6718700" lon="34.9537500">
<ele>309.929993</ele>
<time>2024-02-29T08:28:12.082Z</time>
</trkpt>
<trkpt lat="31.6720100" lon="34.9535500">
<ele>307.959991</ele>
<time>2024-02-29T08:28:12.082Z</time>
</trkpt>
<trkpt lat="31.6721800" lon="34.9534000">
<ele>307.059998</ele>
<time>2024-02-29T08:28:12.082Z</time>
</trkpt>
<trkpt lat="31.6722700" lon="34.9532700">
<ele>304.880005</ele>
<time>2024-02-29T08:28:12.082Z</time>
</trkpt>
<trkpt lat="31.6724000" lon="34.9531900">
<ele>303.979980</ele>
<time>2024-02-29T08:28:12.082Z</time>
</trkpt>
<trkpt lat="31.6725100" lon="34.9531700">
<ele>304.399994</ele>
<time>2024-02-29T08:28:12.082Z</time>
</trkpt>
<trkpt lat="31.6727200" lon="34.9531700">
<ele>306.489990</ele>
<time>2024-02-29T08:28:12.082Z</time>
</trkpt>
<trkpt lat="31.6727200" lon="34.9531700">
<ele>306.489990</ele>
<time>2024-02-29T08:28:12.082Z</time>
</trkpt>
<trkpt lat="31.6727600" lon="34.9531700">
<ele>306.880005</ele>
<time>2024-02-29T08:28:12.082Z</time>
</trkpt>
<trkpt lat="31.6729700" lon="34.9532300">
<ele>304.839996</ele>
<time>2024-02-29T08:28:12.082Z</time>
</trkpt>
<trkpt lat="31.6730600" lon="34.9532900">
<ele>303.160004</ele>
<time>2024-02-29T08:28:12.082Z</time>
</trkpt>
<trkpt lat="31.6732000" lon="34.9534200">
<ele>303.940002</ele>
<time>2024-02-29T08:28:12.082Z</time>
</trkpt>
<trkpt lat="31.6733700" lon="34.9535100">
<ele>305.739990</ele>
<time>2024-02-29T08:28:12.082Z</time>
</trkpt>
<trkpt lat="31.6735800" lon="34.9536700">
<ele>313.720001</ele>
<time>2024-02-29T08:28:12.082Z</time>
</trkpt>
<trkpt lat="31.6737300" lon="34.9538500">
<ele>320.180023</ele>
<time>2024-02-29T08:28:12.082Z</time>
</trkpt>
<trkpt lat="31.6742700" lon="34.9538000">
<ele>316.550018</ele>
<time>2024-02-29T08:28:12.082Z</time>
</trkpt>
<trkpt lat="31.6744800" lon="34.9537300">
<ele>314.889984</ele>
<time>2024-02-29T08:28:12.082Z</time>
</trkpt>
<trkpt lat="31.6745800" lon="34.9536500">
<ele>313.340027</ele>
<time>2024-02-29T08:28:12.082Z</time>
</trkpt>
<trkpt lat="31.6747200" lon="34.9535500">
<ele>309.739990</ele>
<time>2024-02-29T08:28:12.082Z</time>
</trkpt>
<trkpt lat="31.6747800" lon="34.9534500">
<ele>310.239990</ele>
<time>2024-02-29T08:28:12.082Z</time>
</trkpt>
<trkpt lat="31.6747900" lon="34.9531900">
<ele>311.779999</ele>
<time>2024-02-29T08:28:12.082Z</time>
</trkpt>
<trkpt lat="31.6748000" lon="34.9531500">
<ele>311.729980</ele>
<time>2024-02-29T08:28:12.082Z</time>
</trkpt>
<trkpt lat="31.6748200" lon="34.9531300">
<ele>311.510010</ele>
<time>2024-02-29T08:28:12.082Z</time>
</trkpt>
<trkpt lat="31.6751000" lon="34.9530300">
<ele>309.390015</ele>
<time>2024-02-29T08:28:12.082Z</time>
</trkpt>
<trkpt lat="31.6753300" lon="34.9528400">
<ele>310.820007</ele>
<time>2024-02-29T08:28:12.082Z</time>
</trkpt>
<trkpt lat="31.6753700" lon="34.9527600">
<ele>311.260010</ele>
<time>2024-02-29T08:28:12.082Z</time>
</trkpt>
<trkpt lat="31.6753700" lon="34.9526800">
<ele>312.410004</ele>
<time>2024-02-29T08:28:12.082Z</time>
</trkpt>
<trkpt lat="31.6752800" lon="34.9524900">
<ele>314.820007</ele>
<time>2024-02-29T08:28:12.082Z</time>
</trkpt>
<trkpt lat="31.6752600" lon="34.9523700">
<ele>312.679993</ele>
<time>2024-02-29T08:28:12.082Z</time>
</trkpt>
<trkpt lat="31.6753300" lon="34.9521700">
<ele>310.559998</ele>
<time>2024-02-29T08:28:12.082Z</time>
</trkpt>
<trkpt lat="31.6753800" lon="34.9520600">
<ele>310.670013</ele>
<time>2024-02-29T08:28:12.082Z</time>
</trkpt>
<trkpt lat="31.6753800" lon="34.9520200">
<ele>310.380005</ele>
<time>2024-02-29T08:28:12.082Z</time>
</trkpt>
<trkpt lat="31.6753000" lon="34.9519300">
<ele>308.290009</ele>
<time>2024-02-29T08:28:12.082Z</time>
</trkpt>
<trkpt lat="31.6753000" lon="34.9518500">
<ele>307.690002</ele>
<time>2024-02-29T08:28:12.082Z</time>
</trkpt>
<trkpt lat="31.6754700" lon="34.9517000">
<ele>309.089996</ele>
<time>2024-02-29T08:28:12.082Z</time>
</trkpt>
<trkpt lat="31.6755200" lon="34.9516300">
<ele>308.369995</ele>
<time>2024-02-29T08:28:12.082Z</time>
</trkpt>
<trkpt lat="31.6755600" lon="34.9514700">
<ele>302.949982</ele>
<time>2024-02-29T08:28:12.082Z</time>
</trkpt>
<trkpt lat="31.6755800" lon="34.9513500">
<ele>300.200012</ele>
<time>2024-02-29T08:28:12.082Z</time>
</trkpt>
<trkpt lat="31.6756100" lon="34.9512800">
<ele>300.320007</ele>
<time>2024-02-29T08:28:12.082Z</time>
</trkpt>
<trkpt lat="31.6756700" lon="34.9512300">
<ele>300.839996</ele>
<time>2024-02-29T08:28:12.082Z</time>
</trkpt>
<trkpt lat="31.6758500" lon="34.9512200">
<ele>302.889984</ele>
<time>2024-02-29T08:28:12.082Z</time>
</trkpt>
<trkpt lat="31.6759100" lon="34.9511700">
<ele>303.079987</ele>
<time>2024-02-29T08:28:12.082Z</time>
</trkpt>
<trkpt lat="31.6760100" lon="34.9511300">
<ele>303.910004</ele>
<time>2024-02-29T08:28:12.082Z</time>
</trkpt>
<trkpt lat="31.6762400" lon="34.9510000">
<ele>307.350006</ele>
<time>2024-02-29T08:28:12.082Z</time>
</trkpt>
<trkpt lat="31.6762800" lon="34.9509400">
<ele>307.910004</ele>
<time>2024-02-29T08:28:12.082Z</time>
</trkpt>
<trkpt lat="31.6763200" lon="34.9507700">
<ele>307.570007</ele>
<time>2024-02-29T08:28:12.082Z</time>
</trkpt>
<trkpt lat="31.6763200" lon="34.9506900">
<ele>306.709991</ele>
<time>2024-02-29T08:28:12.082Z</time>
</trkpt>
<trkpt lat="31.6762800" lon="34.9506300">
<ele>305.630005</ele>
<time>2024-02-29T08:28:12.082Z</time>
</trkpt>
<trkpt lat="31.6761400" lon="34.9505900">
<ele>303.679993</ele>
<time>2024-02-29T08:28:12.082Z</time>
</trkpt>
<trkpt lat="31.6760800" lon="34.9505500">
<ele>301.890015</ele>
<time>2024-02-29T08:28:12.082Z</time>
</trkpt>
<trkpt lat="31.6760300" lon="34.9503500">
<ele>292.959991</ele>
<time>2024-02-29T08:28:12.082Z</time>
</trkpt>
<trkpt lat="31.6760000" lon="34.9503300">
<ele>291.519989</ele>
<time>2024-02-29T08:28:12.082Z</time>
</trkpt>
<trkpt lat="31.6759000" lon="34.9503500">
<ele>289.899994</ele>
<time>2024-02-29T08:28:12.082Z</time>
</trkpt>
<trkpt lat="31.6758400" lon="34.9504000">
<ele>290.130005</ele>
<time>2024-02-29T08:28:12.082Z</time>
</trkpt>
<trkpt lat="31.6757700" lon="34.9504900">
<ele>293.089996</ele>
<time>2024-02-29T08:28:12.082Z</time>
</trkpt>
<trkpt lat="31.6757000" lon="34.9503500">
<ele>289.760010</ele>
<time>2024-02-29T08:28:12.082Z</time>
</trkpt>
<trkpt lat="31.6756100" lon="34.9502800">
<ele>289.260010</ele>
<time>2024-02-29T08:28:12.082Z</time>
</trkpt>
<trkpt lat="31.6755700" lon="34.9502800">
<ele>289.829987</ele>
<time>2024-02-29T08:28:12.082Z</time>
</trkpt>
<trkpt lat="31.6755400" lon="34.9503100">
<ele>290.980011</ele>
<time>2024-02-29T08:28:12.082Z</time>
</trkpt>
<trkpt lat="31.6754700" lon="34.9504000">
<ele>294.490021</ele>
<time>2024-02-29T08:28:12.082Z</time>
</trkpt>
<trkpt lat="31.6754100" lon="34.9504500">
<ele>297.089996</ele>
<time>2024-02-29T08:28:12.082Z</time>
</trkpt>
<trkpt lat="31.6753200" lon="34.9503900">
<ele>298.300018</ele>
<time>2024-02-29T08:28:12.082Z</time>
</trkpt>
<trkpt lat="31.6752800" lon="34.9502800">
<ele>296.989990</ele>
<time>2024-02-29T08:28:12.082Z</time>
</trkpt>
<trkpt lat="31.6753000" lon="34.9502000">
<ele>294.779999</ele>
<time>2024-02-29T08:28:12.082Z</time>
</trkpt>
<trkpt lat="31.6754100" lon="34.9501800">
<ele>291.720001</ele>
<time>2024-02-29T08:28:12.082Z</time>
</trkpt>
<trkpt lat="31.6754600" lon="34.9501300">
<ele>289.559998</ele>
<time>2024-02-29T08:28:12.082Z</time>
</trkpt>
<trkpt lat="31.6754800" lon="34.9500900">
<ele>288.339996</ele>
<time>2024-02-29T08:28:12.082Z</time>
</trkpt>
<trkpt lat="31.6754000" lon="34.9498600">
<ele>284.990021</ele>
<time>2024-02-29T08:28:12.082Z</time>
</trkpt>
<trkpt lat="31.6754000" lon="34.9497700">
<ele>282.829987</ele>
<time>2024-02-29T08:28:12.082Z</time>
</trkpt>
<trkpt lat="31.6754400" lon="34.9497000">
<ele>281.170013</ele>
<time>2024-02-29T08:28:12.082Z</time>
</trkpt>
<trkpt lat="31.6754700" lon="34.9496800">
<ele>280.770020</ele>
<time>2024-02-29T08:28:12.082Z</time>
</trkpt>
<trkpt lat="31.6756500" lon="34.9496800">
<ele>279.739990</ele>
<time>2024-02-29T08:28:12.082Z</time>
</trkpt>
<trkpt lat="31.6757900" lon="34.9497400">
<ele>280.320007</ele>
<time>2024-02-29T08:28:12.082Z</time>
</trkpt>
<trkpt lat="31.6759000" lon="34.9497500">
<ele>280.519989</ele>
<time>2024-02-29T08:28:12.082Z</time>
</trkpt>
<trkpt lat="31.6761100" lon="34.9496800">
<ele>279.850006</ele>
<time>2024-02-29T08:28:12.082Z</time>
</trkpt>
<trkpt lat="31.6762500" lon="34.9496700">
<ele>282.619995</ele>
<time>2024-02-29T08:28:12.082Z</time>
</trkpt>
<trkpt lat="31.6763300" lon="34.9496600">
<ele>284.149994</ele>
<time>2024-02-29T08:28:12.082Z</time>
</trkpt>
<trkpt lat="31.6762300" lon="34.9495700">
<ele>281.549988</ele>
<time>2024-02-29T08:28:12.082Z</time>
</trkpt>
<trkpt lat="31.6761300" lon="34.9494500">
<ele>279.290009</ele>
<time>2024-02-29T08:28:12.082Z</time>
</trkpt>
<trkpt lat="31.6759200" lon="34.9492900">
<ele>276.720001</ele>
<time>2024-02-29T08:28:12.082Z</time>
</trkpt>
<trkpt lat="31.6758200" lon="34.9491700">
<ele>276.199982</ele>
<time>2024-02-29T08:28:12.082Z</time>
</trkpt>
<trkpt lat="31.6757000" lon="34.9490100">
<ele>276.429993</ele>
<time>2024-02-29T08:28:12.082Z</time>
</trkpt>
<trkpt lat="31.6756700" lon="34.9489300">
<ele>276.750000</ele>
<time>2024-02-29T08:28:12.082Z</time>
</trkpt>
<trkpt lat="31.6756900" lon="34.9489100">
<ele>275.859985</ele>
<time>2024-02-29T08:28:12.082Z</time>
</trkpt>
<trkpt lat="31.6759300" lon="34.9489900">
<ele>272.850006</ele>
<time>2024-02-29T08:28:12.082Z</time>
</trkpt>
<trkpt lat="31.6759600" lon="34.9489800">
<ele>272.890015</ele>
<time>2024-02-29T08:28:12.082Z</time>
</trkpt>
<trkpt lat="31.6759500" lon="34.9489000">
<ele>271.450012</ele>
<time>2024-02-29T08:28:12.082Z</time>
</trkpt>
<trkpt lat="31.6759100" lon="34.9487800">
<ele>269.899994</ele>
<time>2024-02-29T08:28:12.082Z</time>
</trkpt>
<trkpt lat="31.6758600" lon="34.9486700">
<ele>269.119995</ele>
<time>2024-02-29T08:28:12.082Z</time>
</trkpt>
<trkpt lat="31.6758800" lon="34.9486200">
<ele>268.720001</ele>
<time>2024-02-29T08:28:12.082Z</time>
</trkpt>
<trkpt lat="31.6759400" lon="34.9486700">
<ele>268.850006</ele>
<time>2024-02-29T08:28:12.082Z</time>
</trkpt>
<trkpt lat="31.6760100" lon="34.9486900">
<ele>268.919983</ele>
<time>2024-02-29T08:28:12.082Z</time>
</trkpt>
<trkpt lat="31.6761500" lon="34.9487300">
<ele>269.429993</ele>
<time>2024-02-29T08:28:12.082Z</time>
</trkpt>
<trkpt lat="31.6762600" lon="34.9487400">
<ele>269.250000</ele>
<time>2024-02-29T08:28:12.082Z</time>
</trkpt>
<trkpt lat="31.6762400" lon="34.9486600">
<ele>267.589996</ele>
<time>2024-02-29T08:28:12.082Z</time>
</trkpt>
<trkpt lat="31.6761900" lon="34.9486000">
<ele>266.459991</ele>
<time>2024-02-29T08:28:12.082Z</time>
</trkpt>
<trkpt lat="31.6761300" lon="34.9484900">
<ele>263.940002</ele>
<time>2024-02-29T08:28:12.082Z</time>
</trkpt>
<trkpt lat="31.6760900" lon="34.9483300">
<ele>260.260010</ele>
<time>2024-02-29T08:28:12.082Z</time>
</trkpt>
<trkpt lat="31.6760000" lon="34.9475800">
<ele>258.570007</ele>
<time>2024-02-29T08:28:12.082Z</time>
</trkpt>
<trkpt lat="31.6759300" lon="34.9474100">
<ele>260.510010</ele>
<time>2024-02-29T08:28:12.082Z</time>
</trkpt>
<trkpt lat="31.6759800" lon="34.9473500">
<ele>260.529999</ele>
<time>2024-02-29T08:28:12.082Z</time>
</trkpt>
<trkpt lat="31.6760800" lon="34.9472600">
<ele>260.730011</ele>
<time>2024-02-29T08:28:12.082Z</time>
</trkpt>
<trkpt lat="31.6760300" lon="34.9472100">
<ele>261.179993</ele>
<time>2024-02-29T08:28:12.082Z</time>
</trkpt>
<trkpt lat="31.6756900" lon="34.9467600">
<ele>257.509979</ele>
<time>2024-02-29T08:28:12.082Z</time>
</trkpt>
<trkpt lat="31.6755400" lon="34.9465700">
<ele>254.740005</ele>
<time>2024-02-29T08:28:12.082Z</time>
</trkpt>
<trkpt lat="31.6757600" lon="34.9463700">
<ele>248.940002</ele>
<time>2024-02-29T08:28:12.082Z</time>
</trkpt>
<trkpt lat="31.6760500" lon="34.9461300">
<ele>246.919998</ele>
<time>2024-02-29T08:28:12.082Z</time>
</trkpt>
<trkpt lat="31.6761000" lon="34.9460700">
<ele>246.820007</ele>
<time>2024-02-29T08:28:12.082Z</time>
</trkpt>
<trkpt lat="31.6761300" lon="34.9460300">
<ele>247.039993</ele>
<time>2024-02-29T08:28:12.082Z</time>
</trkpt>
<trkpt lat="31.6762200" lon="34.9458800">
<ele>248.709991</ele>
<time>2024-02-29T08:28:12.082Z</time>
</trkpt>
<trkpt lat="31.6762400" lon="34.9457800">
<ele>249.540009</ele>
<time>2024-02-29T08:28:12.082Z</time>
</trkpt>
<trkpt lat="31.6762300" lon="34.9456300">
<ele>250.149994</ele>
<time>2024-02-29T08:28:12.082Z</time>
</trkpt>
<trkpt lat="31.6762300" lon="34.9456300">
<ele>250.149994</ele>
<time>2024-02-29T08:28:12.082Z</time>
</trkpt>
<trkpt lat="31.6761800" lon="34.9451000">
<ele>252.130005</ele>
<time>2024-02-29T08:28:12.082Z</time>
</trkpt>
<trkpt lat="31.6761800" lon="34.9449800">
<ele>252.550003</ele>
<time>2024-02-29T08:28:12.082Z</time>
</trkpt>
<trkpt lat="31.6762100" lon="34.9445300">
<ele>253.360001</ele>
<time>2024-02-29T08:28:12.082Z</time>
</trkpt>
<trkpt lat="31.6763800" lon="34.9429000">
<ele>252.919998</ele>
<time>2024-02-29T08:28:12.082Z</time>
</trkpt>
<trkpt lat="31.6763600" lon="34.9426400">
<ele>254.180008</ele>
<time>2024-02-29T08:28:12.082Z</time>
</trkpt>
<trkpt lat="31.6762800" lon="34.9424300">
<ele>255.730011</ele>
<time>2024-02-29T08:28:12.082Z</time>
</trkpt>
<trkpt lat="31.6762800" lon="34.9423900">
<ele>256.250000</ele>
<time>2024-02-29T08:28:12.082Z</time>
</trkpt>
<trkpt lat="31.6763300" lon="34.9422600">
<ele>258.640015</ele>
<time>2024-02-29T08:28:12.082Z</time>
</trkpt>
<trkpt lat="31.6763300" lon="34.9421800">
<ele>259.399994</ele>
<time>2024-02-29T08:28:12.082Z</time>
</trkpt>
<trkpt lat="31.6759800" lon="34.9412400">
<ele>262.500000</ele>
<time>2024-02-29T08:28:12.082Z</time>
</trkpt>
<trkpt lat="31.6756400" lon="34.9406300">
<ele>268.859985</ele>
<time>2024-02-29T08:28:12.082Z</time>
</trkpt>
<trkpt lat="31.6754000" lon="34.9403400">
<ele>266.549988</ele>
<time>2024-02-29T08:28:12.082Z</time>
</trkpt>
<trkpt lat="31.6753000" lon="34.9402500">
<ele>265.399994</ele>
<time>2024-02-29T08:28:12.082Z</time>
</trkpt>
<trkpt lat="31.6751100" lon="34.9401100">
<ele>264.639984</ele>
<time>2024-02-29T08:28:12.082Z</time>
</trkpt>
<trkpt lat="31.6749700" lon="34.9401200">
<ele>261.830017</ele>
<time>2024-02-29T08:28:12.082Z</time>
</trkpt>
<trkpt lat="31.6745900" lon="34.9403700">
<ele>249.900009</ele>
<time>2024-02-29T08:28:12.082Z</time>
</trkpt>
<trkpt lat="31.6745600" lon="34.9403900">
<ele>249.779984</ele>
<time>2024-02-29T08:28:12.082Z</time>
</trkpt>
<trkpt lat="31.6745500" lon="34.9403500">
<ele>249.260010</ele>
<time>2024-02-29T08:28:12.082Z</time>
</trkpt>
</trkseg>
</trk>
</gpx>
